<?xml version='1.0' encoding='UTF-8'?><gpx version="1.1" creator="JPX - https://github.com/jenetics/jpx" xmlns="http://www.topografix.com/GPX/1/1"><trk><trkseg><trkpt lat="44.826000337710816" lon="7.302667451692229"><ele>397.99999999999994</ele><time>2026-05-02T08:52:19.739Z</time></trkpt><trkpt lat="44.82601344319516" lon="7.30254621065192"><ele>398.0</ele><time>2026-05-02T08:52:21.99Z</time></trkpt><trkpt lat="44.82595863002227" lon="7.302475186182344"><ele>398.0</ele><time>2026-05-02T08:52:27.994Z</time></trkpt><trkpt lat="44.82589124426636" lon="7.302442406345499"><ele>398.0</ele><time>2026-05-02T08:52:29.994Z</time></trkpt><trkpt lat="44.82581790931082" lon="7.302416728344448"><ele>398.0</ele><time>2026-05-02T08:52:31.995Z</time></trkpt><trkpt lat="44.82577532618835" lon="7.302348460945743"><ele>397.99999999999994</ele><time>2026-05-02T08:52:34.996Z</time></trkpt><trkpt lat="44.825712375524056" lon="7.302338194715989"><ele>398.0</ele><time>2026-05-02T08:52:37.997Z</time></trkpt><trkpt lat="44.825613603420834" lon="7.302346021516226"><ele>396.49999999999994</ele><time>2026-05-02T08:52:39.997Z</time></trkpt><trkpt lat="44.82552723771127" lon="7.302358000686962"><ele>395.0</ele><time>2026-05-02T08:52:41.998Z</time></trkpt><trkpt lat="44.82545070049663" lon="7.302353423846251"><ele>393.5</ele><time>2026-05-02T08:52:43.998Z</time></trkpt><trkpt lat="44.82537980740524" lon="7.302358168872041"><ele>392.0</ele><time>2026-05-02T08:52:45.998Z</time></trkpt><trkpt lat="44.82531128434641" lon="7.302361329165115"><ele>390.49999999999994</ele><time>2026-05-02T08:52:47.999Z</time></trkpt><trkpt lat="44.82524519011467" lon="7.302358493185794"><ele>389.0</ele><time>2026-05-02T08:52:49.999Z</time></trkpt><trkpt lat="44.82516070694519" lon="7.302358715766978"><ele>389.16666666666663</ele><time>2026-05-02T08:52:52.999Z</time></trkpt><trkpt lat="44.82509504366519" lon="7.302353810060572"><ele>389.3333333333333</ele><time>2026-05-02T08:52:54.999Z</time></trkpt><trkpt lat="44.82502148247185" lon="7.302371788150619"><ele>389.5</ele><time>2026-05-02T08:52:57Z</time></trkpt><trkpt lat="44.82493873631478" lon="7.302373112350154"><ele>389.66666666666663</ele><time>2026-05-02T08:52:59Z</time></trkpt><trkpt lat="44.82485004512018" lon="7.302345681382616"><ele>389.8333333333333</ele><time>2026-05-02T08:53:01Z</time></trkpt><trkpt lat="44.82477128717357" lon="7.302349938471143"><ele>390.0</ele><time>2026-05-02T08:53:03Z</time></trkpt><trkpt lat="44.82468459456489" lon="7.302348234866932"><ele>390.0</ele><time>2026-05-02T08:53:05Z</time></trkpt><trkpt lat="44.824600054604225" lon="7.302342620813711"><ele>390.0</ele><time>2026-05-02T08:53:08Z</time></trkpt><trkpt lat="44.82457220993918" lon="7.3022625119274505"><ele>390.0</ele><time>2026-05-02T08:53:11Z</time></trkpt><trkpt lat="44.824577845841155" lon="7.302160448500593"><ele>390.0</ele><time>2026-05-02T08:53:13Z</time></trkpt><trkpt lat="44.82457961893038" lon="7.302049668190563"><ele>390.0</ele><time>2026-05-02T08:53:15.001Z</time></trkpt><trkpt lat="44.82457928826551" lon="7.3019330116185115"><ele>390.0</ele><time>2026-05-02T08:53:17.001Z</time></trkpt><trkpt lat="44.824565619254365" lon="7.301804614704081"><ele>390.3333333333333</ele><time>2026-05-02T08:53:19.001Z</time></trkpt><trkpt lat="44.82455871568628" lon="7.30169498119293"><ele>390.66666666666663</ele><time>2026-05-02T08:53:21.001Z</time></trkpt><trkpt lat="44.82456224611309" lon="7.301591023641096"><ele>391.0</ele><time>2026-05-02T08:53:23.001Z</time></trkpt><trkpt lat="44.824523913344116" lon="7.301505474967754"><ele>391.3333333333333</ele><time>2026-05-02T08:53:25.001Z</time></trkpt><trkpt lat="44.82443918178125" lon="7.301453262790424"><ele>391.66666666666663</ele><time>2026-05-02T08:53:27.001Z</time></trkpt><trkpt lat="44.824368122819294" lon="7.3013849775123765"><ele>392.0</ele><time>2026-05-02T08:53:29.001Z</time></trkpt><trkpt lat="44.82429499491824" lon="7.301315000655236"><ele>392.16666666666663</ele><time>2026-05-02T08:53:31.001Z</time></trkpt><trkpt lat="44.82422376833258" lon="7.301239038626366"><ele>392.3333333333333</ele><time>2026-05-02T08:53:33.001Z</time></trkpt><trkpt lat="44.82415639921807" lon="7.301163453579879"><ele>392.5</ele><time>2026-05-02T08:53:35.001Z</time></trkpt><trkpt lat="44.82408974497811" lon="7.301093446033499"><ele>392.66666666666663</ele><time>2026-05-02T08:53:37.001Z</time></trkpt><trkpt lat="44.82402832073216" lon="7.30102011664324"><ele>392.8333333333333</ele><time>2026-05-02T08:53:39.001Z</time></trkpt><trkpt lat="44.82397742686844" lon="7.3009502602539165"><ele>393.0</ele><time>2026-05-02T08:53:41.001Z</time></trkpt><trkpt lat="44.82395370991067" lon="7.3008620759296186"><ele>393.0</ele><time>2026-05-02T08:53:45.001Z</time></trkpt><trkpt lat="44.82390689246666" lon="7.300787554077412"><ele>393.0</ele><time>2026-05-02T08:53:48.001Z</time></trkpt><trkpt lat="44.82385559220709" lon="7.300715524076967"><ele>393.0</ele><time>2026-05-02T08:53:50.001Z</time></trkpt><trkpt lat="44.82380667836297" lon="7.300625814076544"><ele>393.0</ele><time>2026-05-02T08:53:52.001Z</time></trkpt><trkpt lat="44.82375489806562" lon="7.300535026380808"><ele>393.0</ele><time>2026-05-02T08:53:54.001Z</time></trkpt><trkpt lat="44.82369623376874" lon="7.300451886235727"><ele>393.0</ele><time>2026-05-02T08:53:56.001Z</time></trkpt><trkpt lat="44.823636439453885" lon="7.300370988440746"><ele>392.8571428571429</ele><time>2026-05-02T08:53:58.001Z</time></trkpt><trkpt lat="44.82357358663596" lon="7.300297105952447"><ele>392.7142857142857</ele><time>2026-05-02T08:54:00.001Z</time></trkpt><trkpt lat="44.823506232000454" lon="7.300237489948622"><ele>392.57142857142856</ele><time>2026-05-02T08:54:02.001Z</time></trkpt><trkpt lat="44.82344256207122" lon="7.300178023411645"><ele>392.42857142857144</ele><time>2026-05-02T08:54:04.001Z</time></trkpt><trkpt lat="44.823384913966144" lon="7.300137861918589"><ele>392.2857142857143</ele><time>2026-05-02T08:54:06.001Z</time></trkpt><trkpt lat="44.823330019923" lon="7.300076032722643"><ele>392.14285714285717</ele><time>2026-05-02T08:54:09.002Z</time></trkpt><trkpt lat="44.82327172814715" lon="7.300037263894719"><ele>392.0</ele><time>2026-05-02T08:54:12.002Z</time></trkpt><trkpt lat="44.823208720813504" lon="7.300008992550097"><ele>391.99999999999994</ele><time>2026-05-02T08:54:14.002Z</time></trkpt><trkpt lat="44.82313854695655" lon="7.2999874040176"><ele>392.0</ele><time>2026-05-02T08:54:16.002Z</time></trkpt><trkpt lat="44.82306538235049" lon="7.299955916593264"><ele>392.0</ele><time>2026-05-02T08:54:18.002Z</time></trkpt><trkpt lat="44.822997168419874" lon="7.29988438669242"><ele>392.0</ele><time>2026-05-02T08:54:20Z</time></trkpt><trkpt lat="44.822924134183516" lon="7.299826657661681"><ele>391.99999999999994</ele><time>2026-05-02T08:54:22Z</time></trkpt><trkpt lat="44.82285069207009" lon="7.299772694325401"><ele>392.0</ele><time>2026-05-02T08:54:24Z</time></trkpt><trkpt lat="44.82277935640309" lon="7.2997213779433885"><ele>392.16666666666663</ele><time>2026-05-02T08:54:26Z</time></trkpt><trkpt lat="44.82271287395201" lon="7.2996616087225545"><ele>392.3333333333333</ele><time>2026-05-02T08:54:28Z</time></trkpt><trkpt lat="44.82264396005374" lon="7.299601273715807"><ele>392.5</ele><time>2026-05-02T08:54:30Z</time></trkpt><trkpt lat="44.82257267806442" lon="7.299542913149385"><ele>392.66666666666663</ele><time>2026-05-02T08:54:32Z</time></trkpt><trkpt lat="44.822506899265186" lon="7.299478241835534"><ele>392.8333333333333</ele><time>2026-05-02T08:54:34Z</time></trkpt><trkpt lat="44.822441853342546" lon="7.299404911028717"><ele>393.0</ele><time>2026-05-02T08:54:36Z</time></trkpt><trkpt lat="44.822381896679794" lon="7.299329804638298"><ele>393.0</ele><time>2026-05-02T08:54:38Z</time></trkpt><trkpt lat="44.82231770404117" lon="7.299257248933697"><ele>393.0</ele><time>2026-05-02T08:54:40Z</time></trkpt><trkpt lat="44.82226205014557" lon="7.299174088396605"><ele>393.0</ele><time>2026-05-02T08:54:42Z</time></trkpt><trkpt lat="44.82221341671083" lon="7.29908210263447"><ele>393.0</ele><time>2026-05-02T08:54:44Z</time></trkpt><trkpt lat="44.82216384521333" lon="7.298991179994696"><ele>393.0</ele><time>2026-05-02T08:54:46Z</time></trkpt><trkpt lat="44.82211513885468" lon="7.298902694232301"><ele>393.0</ele><time>2026-05-02T08:54:48Z</time></trkpt><trkpt lat="44.822069435694296" lon="7.2988076213513535"><ele>393.6666666666667</ele><time>2026-05-02T08:54:50Z</time></trkpt><trkpt lat="44.82202219286227" lon="7.298717278751857"><ele>394.33333333333337</ele><time>2026-05-02T08:54:52Z</time></trkpt><trkpt lat="44.82197426394352" lon="7.298629183494457"><ele>395.0</ele><time>2026-05-02T08:54:54Z</time></trkpt><trkpt lat="44.82192600211494" lon="7.298537170038793"><ele>395.6666666666667</ele><time>2026-05-02T08:54:56Z</time></trkpt><trkpt lat="44.82187124457037" lon="7.29845496145926"><ele>396.33333333333337</ele><time>2026-05-02T08:54:58Z</time></trkpt><trkpt lat="44.821814542538064" lon="7.298377268391328"><ele>397.0</ele><time>2026-05-02T08:55:00Z</time></trkpt><trkpt lat="44.821759638347466" lon="7.298300464691614"><ele>397.0</ele><time>2026-05-02T08:55:02Z</time></trkpt><trkpt lat="44.82170464657508" lon="7.298233636327176"><ele>397.0</ele><time>2026-05-02T08:55:04Z</time></trkpt><trkpt lat="44.82165470445126" lon="7.298175790365473"><ele>397.0</ele><time>2026-05-02T08:55:06Z</time></trkpt><trkpt lat="44.82160102487886" lon="7.298116544028839"><ele>397.0</ele><time>2026-05-02T08:55:08Z</time></trkpt><trkpt lat="44.82155616732002" lon="7.29803240223762"><ele>397.0</ele><time>2026-05-02T08:55:10Z</time></trkpt><trkpt lat="44.82151249048731" lon="7.2979453681268955"><ele>397.0</ele><time>2026-05-02T08:55:12Z</time></trkpt><trkpt lat="44.821470665980954" lon="7.297861758645077"><ele>397.0</ele><time>2026-05-02T08:55:14Z</time></trkpt><trkpt lat="44.82142967846985" lon="7.297771392960494"><ele>397.1428571428571</ele><time>2026-05-02T08:55:16Z</time></trkpt><trkpt lat="44.82138608654493" lon="7.297691420550466"><ele>397.2857142857143</ele><time>2026-05-02T08:55:18Z</time></trkpt><trkpt lat="44.82134888488469" lon="7.297609297372356"><ele>397.42857142857144</ele><time>2026-05-02T08:55:20Z</time></trkpt><trkpt lat="44.8213120282324" lon="7.297531556945608"><ele>397.57142857142856</ele><time>2026-05-02T08:55:22Z</time></trkpt><trkpt lat="44.82126810214073" lon="7.297460344311596"><ele>397.7142857142857</ele><time>2026-05-02T08:55:24Z</time></trkpt><trkpt lat="44.82123186370582" lon="7.297383558613176"><ele>397.85714285714283</ele><time>2026-05-02T08:55:26Z</time></trkpt><trkpt lat="44.821223899444426" lon="7.297292073603747"><ele>398.0</ele><time>2026-05-02T08:55:28Z</time></trkpt><trkpt lat="44.8211738842659" lon="7.297208698806907"><ele>398.2857142857143</ele><time>2026-05-02T08:55:30Z</time></trkpt><trkpt lat="44.82111485757526" lon="7.297132724680379"><ele>398.57142857142856</ele><time>2026-05-02T08:55:32.001Z</time></trkpt><trkpt lat="44.8210560245898" lon="7.297081028681691"><ele>398.8571428571429</ele><time>2026-05-02T08:55:34.001Z</time></trkpt><trkpt lat="44.82099276390683" lon="7.296988340514728"><ele>399.1428571428571</ele><time>2026-05-02T08:55:37.001Z</time></trkpt><trkpt lat="44.82094495816733" lon="7.29691843567073"><ele>399.42857142857144</ele><time>2026-05-02T08:55:39.001Z</time></trkpt><trkpt lat="44.820896873148" lon="7.296848665445288"><ele>399.7142857142857</ele><time>2026-05-02T08:55:41.001Z</time></trkpt><trkpt lat="44.820848353047914" lon="7.296780775626488"><ele>400.0</ele><time>2026-05-02T08:55:43.001Z</time></trkpt><trkpt lat="44.820804378974174" lon="7.296717180110715"><ele>400.00000000000006</ele><time>2026-05-02T08:55:45.001Z</time></trkpt><trkpt lat="44.82074096404213" lon="7.296614311193195"><ele>400.0</ele><time>2026-05-02T08:55:48.001Z</time></trkpt><trkpt lat="44.820684276625855" lon="7.296534251909337"><ele>400.0</ele><time>2026-05-02T08:55:50.001Z</time></trkpt><trkpt lat="44.820622788315" lon="7.296458184777762"><ele>400.0</ele><time>2026-05-02T08:55:52.001Z</time></trkpt><trkpt lat="44.82056524778454" lon="7.296391107219806"><ele>400.00000000000006</ele><time>2026-05-02T08:55:54.001Z</time></trkpt><trkpt lat="44.82050665274844" lon="7.296335875643064"><ele>400.0</ele><time>2026-05-02T08:55:56.001Z</time></trkpt><trkpt lat="44.820460609039905" lon="7.296263189808961"><ele>400.83333333333337</ele><time>2026-05-02T08:55:58.001Z</time></trkpt><trkpt lat="44.82041087873565" lon="7.296181303263871"><ele>401.6666666666667</ele><time>2026-05-02T08:56:00.001Z</time></trkpt><trkpt lat="44.82034000124384" lon="7.296089818412049"><ele>402.5</ele><time>2026-05-02T08:56:03.001Z</time></trkpt><trkpt lat="44.820297284371605" lon="7.2960031594901285"><ele>403.33333333333337</ele><time>2026-05-02T08:56:05.001Z</time></trkpt><trkpt lat="44.82025486593155" lon="7.295914998824692"><ele>404.1666666666667</ele><time>2026-05-02T08:56:07.001Z</time></trkpt><trkpt lat="44.8202193740679" lon="7.295810194272815"><ele>405.0</ele><time>2026-05-02T08:56:09.001Z</time></trkpt><trkpt lat="44.820190942495444" lon="7.295708521241743"><ele>405.0</ele><time>2026-05-02T08:56:11.001Z</time></trkpt><trkpt lat="44.82015546067713" lon="7.295631289529906"><ele>405.0</ele><time>2026-05-02T08:56:13.001Z</time></trkpt><trkpt lat="44.820097162639016" lon="7.295535566714228"><ele>405.0</ele><time>2026-05-02T08:56:16.001Z</time></trkpt><trkpt lat="44.82004860084883" lon="7.295439194873085"><ele>405.0</ele><time>2026-05-02T08:56:19.001Z</time></trkpt><trkpt lat="44.81999232151292" lon="7.295355100922547"><ele>405.0</ele><time>2026-05-02T08:56:22.001Z</time></trkpt><trkpt lat="44.81994175512297" lon="7.295264172337905"><ele>405.0</ele><time>2026-05-02T08:56:25Z</time></trkpt><trkpt lat="44.81989666812402" lon="7.2951744175180275"><ele>405.6666666666667</ele><time>2026-05-02T08:56:28Z</time></trkpt><trkpt lat="44.81984852654423" lon="7.295087687690919"><ele>406.33333333333337</ele><time>2026-05-02T08:56:31Z</time></trkpt><trkpt lat="44.819796809122934" lon="7.295012059735993"><ele>407.0</ele><time>2026-05-02T08:56:34Z</time></trkpt><trkpt lat="44.819740218997275" lon="7.29493618452673"><ele>407.6666666666667</ele><time>2026-05-02T08:56:37Z</time></trkpt><trkpt lat="44.819680589121205" lon="7.294855551980412"><ele>408.33333333333337</ele><time>2026-05-02T08:56:40Z</time></trkpt><trkpt lat="44.81962052861536" lon="7.294785015691979"><ele>409.0</ele><time>2026-05-02T08:56:43Z</time></trkpt><trkpt lat="44.81955469753792" lon="7.294715248540476"><ele>409.2857142857143</ele><time>2026-05-02T08:56:46Z</time></trkpt><trkpt lat="44.81949184160239" lon="7.2946608954984375"><ele>409.5714285714286</ele><time>2026-05-02T08:56:49Z</time></trkpt><trkpt lat="44.819423890065735" lon="7.294614986103607"><ele>409.8571428571429</ele><time>2026-05-02T08:56:52Z</time></trkpt><trkpt lat="44.819364177085106" lon="7.294572022395716"><ele>410.1428571428571</ele><time>2026-05-02T08:56:54Z</time></trkpt><trkpt lat="44.81929623829195" lon="7.294533333739549"><ele>410.42857142857144</ele><time>2026-05-02T08:56:56Z</time></trkpt><trkpt lat="44.81923325984815" lon="7.294504463307734"><ele>410.7142857142857</ele><time>2026-05-02T08:56:58Z</time></trkpt><trkpt lat="44.81917161039026" lon="7.294484776939794"><ele>411.0</ele><time>2026-05-02T08:57:29Z</time></trkpt><trkpt lat="44.8191063086047" lon="7.294485411635669"><ele>411.0</ele><time>2026-05-02T08:57:32Z</time></trkpt><trkpt lat="44.81903680113929" lon="7.29449361889867"><ele>411.0</ele><time>2026-05-02T08:57:34Z</time></trkpt><trkpt lat="44.81895920594069" lon="7.294494038066632"><ele>411.0</ele><time>2026-05-02T08:57:36Z</time></trkpt><trkpt lat="44.818874072727446" lon="7.2944903013549744"><ele>411.0</ele><time>2026-05-02T08:57:38Z</time></trkpt><trkpt lat="44.81877964406207" lon="7.29449930530284"><ele>411.0</ele><time>2026-05-02T08:57:40.001Z</time></trkpt><trkpt lat="44.818684011802176" lon="7.294523779093425"><ele>411.0</ele><time>2026-05-02T08:57:42.001Z</time></trkpt><trkpt lat="44.81858581645359" lon="7.294542022390175"><ele>411.0</ele><time>2026-05-02T08:57:44.001Z</time></trkpt><trkpt lat="44.81848877752907" lon="7.294559416424613"><ele>411.0</ele><time>2026-05-02T08:57:46.001Z</time></trkpt><trkpt lat="44.81838882962128" lon="7.294574329213645"><ele>411.0</ele><time>2026-05-02T08:57:48.001Z</time></trkpt><trkpt lat="44.81829022674126" lon="7.294606885803783"><ele>411.0</ele><time>2026-05-02T08:57:50.001Z</time></trkpt><trkpt lat="44.81819380146635" lon="7.294648386333713"><ele>411.0</ele><time>2026-05-02T08:57:52.001Z</time></trkpt><trkpt lat="44.818101728397096" lon="7.2946937676238335"><ele>410.8</ele><time>2026-05-02T08:57:54.001Z</time></trkpt><trkpt lat="44.8180000124864" lon="7.294728503702985"><ele>410.6</ele><time>2026-05-02T08:57:56.001Z</time></trkpt><trkpt lat="44.817897574401634" lon="7.29476175981993"><ele>410.4</ele><time>2026-05-02T08:57:58.001Z</time></trkpt><trkpt lat="44.81779696046591" lon="7.294804077766875"><ele>410.2</ele><time>2026-05-02T08:58:00.001Z</time></trkpt><trkpt lat="44.817698590176015" lon="7.294851450562654"><ele>410.0</ele><time>2026-05-02T08:58:02.001Z</time></trkpt><trkpt lat="44.81760573726066" lon="7.294901678704418"><ele>409.2857142857143</ele><time>2026-05-02T08:58:04.001Z</time></trkpt><trkpt lat="44.817521504663354" lon="7.294950909554962"><ele>408.57142857142856</ele><time>2026-05-02T08:58:06.001Z</time></trkpt><trkpt lat="44.81745756577312" lon="7.294964047142331"><ele>407.85714285714283</ele><time>2026-05-02T08:58:10.001Z</time></trkpt><trkpt lat="44.81749025664185" lon="7.295060779841452"><ele>407.1428571428571</ele><time>2026-05-02T08:58:13.001Z</time></trkpt><trkpt lat="44.81754943246131" lon="7.295005727507542"><ele>406.42857142857144</ele><time>2026-05-02T08:58:15.001Z</time></trkpt><trkpt lat="44.81752314452657" lon="7.294914408784111"><ele>405.71428571428567</ele><time>2026-05-02T08:58:19.001Z</time></trkpt><trkpt lat="44.81751088126726" lon="7.2950191560835815"><ele>405.0</ele><time>2026-05-02T08:58:42Z</time></trkpt><trkpt lat="44.81753633678357" lon="7.295127571868997"><ele>405.0</ele><time>2026-05-02T08:58:44Z</time></trkpt><trkpt lat="44.817544373289934" lon="7.295277165656111"><ele>405.0</ele><time>2026-05-02T08:58:46Z</time></trkpt><trkpt lat="44.81757530109108" lon="7.295454006887697"><ele>405.0</ele><time>2026-05-02T08:58:48Z</time></trkpt><trkpt lat="44.81762030380759" lon="7.295626171847108"><ele>405.0</ele><time>2026-05-02T08:58:50Z</time></trkpt><trkpt lat="44.81765902251542" lon="7.295751986717065"><ele>404.6666666666667</ele><time>2026-05-02T08:58:51Z</time></trkpt><trkpt lat="44.81769867136762" lon="7.295860371611457"><ele>404.33333333333337</ele><time>2026-05-02T08:58:52Z</time></trkpt><trkpt lat="44.81773417686934" lon="7.295944767941359"><ele>404.0</ele><time>2026-05-02T08:58:53Z</time></trkpt><trkpt lat="44.817767841599334" lon="7.296023493481452"><ele>403.6666666666667</ele><time>2026-05-02T08:58:54Z</time></trkpt><trkpt lat="44.81780113657742" lon="7.296099927276813"><ele>403.33333333333337</ele><time>2026-05-02T08:58:55Z</time></trkpt><trkpt lat="44.81783468281544" lon="7.296175528847983"><ele>403.0</ele><time>2026-05-02T08:58:56Z</time></trkpt><trkpt lat="44.8178927406946" lon="7.2963163583274335"><ele>403.0</ele><time>2026-05-02T08:58:58Z</time></trkpt><trkpt lat="44.81792209566771" lon="7.296396833372779"><ele>403.0</ele><time>2026-05-02T08:58:59Z</time></trkpt><trkpt lat="44.81794620163946" lon="7.296482773064336"><ele>403.0</ele><time>2026-05-02T08:59:00Z</time></trkpt><trkpt lat="44.81798378686055" lon="7.296562097220952"><ele>403.0</ele><time>2026-05-02T08:59:01Z</time></trkpt><trkpt lat="44.81802452567414" lon="7.296646813973236"><ele>403.0</ele><time>2026-05-02T08:59:02Z</time></trkpt><trkpt lat="44.81806383000568" lon="7.296730122399711"><ele>403.0</ele><time>2026-05-02T08:59:03Z</time></trkpt><trkpt lat="44.81810804274975" lon="7.296820285616908"><ele>403.0</ele><time>2026-05-02T08:59:04Z</time></trkpt><trkpt lat="44.81815483886653" lon="7.296909856103885"><ele>403.00000000000006</ele><time>2026-05-02T08:59:05Z</time></trkpt><trkpt lat="44.818199643772026" lon="7.2969970525783125"><ele>403.0</ele><time>2026-05-02T08:59:06Z</time></trkpt><trkpt lat="44.818249319011066" lon="7.297084069697852"><ele>403.0</ele><time>2026-05-02T08:59:07Z</time></trkpt><trkpt lat="44.81830057842142" lon="7.297167298640683"><ele>403.0</ele><time>2026-05-02T08:59:08Z</time></trkpt><trkpt lat="44.818352841213986" lon="7.297255921777934"><ele>403.00000000000006</ele><time>2026-05-02T08:59:09Z</time></trkpt><trkpt lat="44.81840691819395" lon="7.297343724698242"><ele>403.0</ele><time>2026-05-02T08:59:10Z</time></trkpt><trkpt lat="44.81846012163794" lon="7.297433566302958"><ele>402.6666666666667</ele><time>2026-05-02T08:59:11Z</time></trkpt><trkpt lat="44.818510754099584" lon="7.297524154269852"><ele>402.33333333333337</ele><time>2026-05-02T08:59:12Z</time></trkpt><trkpt lat="44.818566771022454" lon="7.2976140927579705"><ele>402.0</ele><time>2026-05-02T08:59:13Z</time></trkpt><trkpt lat="44.81862205706672" lon="7.297699262289899"><ele>401.66666666666663</ele><time>2026-05-02T08:59:14Z</time></trkpt><trkpt lat="44.81867533043382" lon="7.297781365331531"><ele>401.3333333333333</ele><time>2026-05-02T08:59:15Z</time></trkpt><trkpt lat="44.81872917752018" lon="7.2978666658062545"><ele>401.0</ele><time>2026-05-02T08:59:16Z</time></trkpt><trkpt lat="44.81878155029048" lon="7.297950550088935"><ele>400.99999999999994</ele><time>2026-05-02T08:59:17Z</time></trkpt><trkpt lat="44.81883279194951" lon="7.298034666384046"><ele>401.0</ele><time>2026-05-02T08:59:18Z</time></trkpt><trkpt lat="44.818882632488446" lon="7.298117959599048"><ele>401.0</ele><time>2026-05-02T08:59:19Z</time></trkpt><trkpt lat="44.81893109778193" lon="7.298200911909334"><ele>401.0</ele><time>2026-05-02T08:59:20Z</time></trkpt><trkpt lat="44.81898074696163" lon="7.2982816165284525"><ele>400.99999999999994</ele><time>2026-05-02T08:59:21Z</time></trkpt><trkpt lat="44.819030056459205" lon="7.298361948493418"><ele>401.0</ele><time>2026-05-02T08:59:22Z</time></trkpt><trkpt lat="44.81907792305505" lon="7.298439206191577"><ele>400.7142857142857</ele><time>2026-05-02T08:59:23Z</time></trkpt><trkpt lat="44.81912775091148" lon="7.298515651163305"><ele>400.42857142857144</ele><time>2026-05-02T08:59:24Z</time></trkpt><trkpt lat="44.81918046979964" lon="7.298585912360278"><ele>400.1428571428571</ele><time>2026-05-02T08:59:25Z</time></trkpt><trkpt lat="44.81922918967627" lon="7.298659997223081"><ele>399.8571428571429</ele><time>2026-05-02T08:59:26Z</time></trkpt><trkpt lat="44.81927287642171" lon="7.298744228839785"><ele>399.57142857142856</ele><time>2026-05-02T08:59:27Z</time></trkpt><trkpt lat="44.81931986404817" lon="7.298821911238529"><ele>399.2857142857143</ele><time>2026-05-02T08:59:28Z</time></trkpt><trkpt lat="44.81936585161641" lon="7.29889520483517"><ele>399.0</ele><time>2026-05-02T08:59:29Z</time></trkpt><trkpt lat="44.819410226340125" lon="7.298965490620774"><ele>398.79999999999995</ele><time>2026-05-02T08:59:30Z</time></trkpt><trkpt lat="44.8194876968472" lon="7.299091320537704"><ele>398.59999999999997</ele><time>2026-05-02T08:59:32Z</time></trkpt><trkpt lat="44.819569030397226" lon="7.299212617092403"><ele>398.4</ele><time>2026-05-02T08:59:34Z</time></trkpt><trkpt lat="44.81965032946156" lon="7.299341669105351"><ele>398.2</ele><time>2026-05-02T08:59:36Z</time></trkpt><trkpt lat="44.81969250721425" lon="7.299412805970241"><ele>398.0</ele><time>2026-05-02T08:59:37Z</time></trkpt><trkpt lat="44.81973635083158" lon="7.299484342935612"><ele>397.99999999999994</ele><time>2026-05-02T08:59:38Z</time></trkpt><trkpt lat="44.81978073264322" lon="7.299552739579029"><ele>398.0</ele><time>2026-05-02T08:59:39Z</time></trkpt><trkpt lat="44.81982500190719" lon="7.2996229422665415"><ele>398.0</ele><time>2026-05-02T08:59:40Z</time></trkpt><trkpt lat="44.819870587867264" lon="7.299691509986768"><ele>398.0</ele><time>2026-05-02T08:59:41Z</time></trkpt><trkpt lat="44.81991600704801" lon="7.299759864575113"><ele>398.0</ele><time>2026-05-02T08:59:42Z</time></trkpt><trkpt lat="44.81996020256616" lon="7.299830705938978"><ele>397.99999999999994</ele><time>2026-05-02T08:59:43Z</time></trkpt><trkpt lat="44.82000514087337" lon="7.299901101396637"><ele>398.0</ele><time>2026-05-02T08:59:44Z</time></trkpt><trkpt lat="44.820049856175224" lon="7.2999722407228615"><ele>397.57142857142856</ele><time>2026-05-02T08:59:45Z</time></trkpt><trkpt lat="44.82009274807226" lon="7.300045955006539"><ele>397.1428571428571</ele><time>2026-05-02T08:59:46Z</time></trkpt><trkpt lat="44.82013323281209" lon="7.300119763940766"><ele>396.71428571428567</ele><time>2026-05-02T08:59:47.001Z</time></trkpt><trkpt lat="44.82017249386924" lon="7.300195087475244"><ele>396.2857142857143</ele><time>2026-05-02T08:59:48.001Z</time></trkpt><trkpt lat="44.820198899453594" lon="7.3002796662725835"><ele>395.8571428571429</ele><time>2026-05-02T08:59:49.001Z</time></trkpt><trkpt lat="44.82021746739213" lon="7.300370525836695"><ele>395.4285714285714</ele><time>2026-05-02T08:59:50.001Z</time></trkpt><trkpt lat="44.820222921253624" lon="7.30046398604834"><ele>395.0</ele><time>2026-05-02T08:59:51.001Z</time></trkpt><trkpt lat="44.82022217198436" lon="7.3005566329401645"><ele>394.66666666666663</ele><time>2026-05-02T08:59:52.001Z</time></trkpt><trkpt lat="44.82021909727014" lon="7.300649688749295"><ele>394.3333333333333</ele><time>2026-05-02T08:59:53.001Z</time></trkpt><trkpt lat="44.82021583015275" lon="7.30074032958122"><ele>394.0</ele><time>2026-05-02T08:59:54.001Z</time></trkpt><trkpt lat="44.82021751326907" lon="7.300899819244763"><ele>393.66666666666663</ele><time>2026-05-02T08:59:56.001Z</time></trkpt><trkpt lat="44.8202089933224" lon="7.301020470769054"><ele>393.3333333333333</ele><time>2026-05-02T08:59:59.001Z</time></trkpt><trkpt lat="44.82018708120783" lon="7.301126413419701"><ele>393.0</ele><time>2026-05-02T09:00:01.001Z</time></trkpt><trkpt lat="44.8201602090396" lon="7.3012557146147055"><ele>393.0</ele><time>2026-05-02T09:00:03.001Z</time></trkpt><trkpt lat="44.82023475435323" lon="7.301361528062113"><ele>393.0</ele><time>2026-05-02T09:00:05.001Z</time></trkpt><trkpt lat="44.820359467351025" lon="7.301355528272464"><ele>393.0</ele><time>2026-05-02T09:00:07.001Z</time></trkpt><trkpt lat="44.82042865576009" lon="7.3013460497412765"><ele>393.0</ele><time>2026-05-02T09:00:08.001Z</time></trkpt><trkpt lat="44.820495420765425" lon="7.301352308031785"><ele>393.0</ele><time>2026-05-02T09:00:09.001Z</time></trkpt><trkpt lat="44.82056034261001" lon="7.301380120037627"><ele>393.0</ele><time>2026-05-02T09:00:10.001Z</time></trkpt><trkpt lat="44.820623231016164" lon="7.301417834403361"><ele>393.0</ele><time>2026-05-02T09:00:11.001Z</time></trkpt><trkpt lat="44.82069411306704" lon="7.3014654167498225"><ele>393.0</ele><time>2026-05-02T09:00:12.001Z</time></trkpt><trkpt lat="44.820772375603276" lon="7.301507149946437"><ele>393.0</ele><time>2026-05-02T09:00:13.001Z</time></trkpt><trkpt lat="44.820860896550585" lon="7.3015551270140415"><ele>393.0</ele><time>2026-05-02T09:00:14.001Z</time></trkpt><trkpt lat="44.82094359870981" lon="7.301593073568678"><ele>393.0</ele><time>2026-05-02T09:00:15.001Z</time></trkpt><trkpt lat="44.821028111171415" lon="7.301632904261702"><ele>393.0</ele><time>2026-05-02T09:00:16.001Z</time></trkpt><trkpt lat="44.82110692381997" lon="7.301671498714805"><ele>392.8333333333333</ele><time>2026-05-02T09:00:17.001Z</time></trkpt><trkpt lat="44.82118488016645" lon="7.301712978195958"><ele>392.66666666666663</ele><time>2026-05-02T09:00:18.001Z</time></trkpt><trkpt lat="44.82126340671996" lon="7.3017507427072434"><ele>392.5</ele><time>2026-05-02T09:00:19.001Z</time></trkpt><trkpt lat="44.82133953530844" lon="7.301790731852883"><ele>392.3333333333333</ele><time>2026-05-02T09:00:20.001Z</time></trkpt><trkpt lat="44.821413983091986" lon="7.301826517995408"><ele>392.16666666666663</ele><time>2026-05-02T09:00:21.001Z</time></trkpt><trkpt lat="44.82148592349262" lon="7.3018618026409765"><ele>392.0</ele><time>2026-05-02T09:00:22.001Z</time></trkpt><trkpt lat="44.82155489539532" lon="7.301897717891912"><ele>391.99999999999994</ele><time>2026-05-02T09:00:23.001Z</time></trkpt><trkpt lat="44.82162344929764" lon="7.301934242645127"><ele>392.0</ele><time>2026-05-02T09:00:24.001Z</time></trkpt><trkpt lat="44.82168913627754" lon="7.301968687348163"><ele>392.0</ele><time>2026-05-02T09:00:25.001Z</time></trkpt><trkpt lat="44.82176097480381" lon="7.302007573278652"><ele>392.0</ele><time>2026-05-02T09:00:26.001Z</time></trkpt><trkpt lat="44.82183426223045" lon="7.302040828818391"><ele>391.99999999999994</ele><time>2026-05-02T09:00:27.001Z</time></trkpt><trkpt lat="44.821909344948274" lon="7.302079962003312"><ele>392.0</ele><time>2026-05-02T09:00:28.001Z</time></trkpt><trkpt lat="44.82198367674801" lon="7.302119909805642"><ele>391.49999999999994</ele><time>2026-05-02T09:00:29.001Z</time></trkpt><trkpt lat="44.822056677365794" lon="7.302160764573723"><ele>391.0</ele><time>2026-05-02T09:00:30.001Z</time></trkpt><trkpt lat="44.82213299193129" lon="7.302201335618286"><ele>390.5</ele><time>2026-05-02T09:00:31.001Z</time></trkpt><trkpt lat="44.82220848208091" lon="7.302237051879192"><ele>390.0</ele><time>2026-05-02T09:00:32.001Z</time></trkpt><trkpt lat="44.82227921901744" lon="7.30227545193721"><ele>389.49999999999994</ele><time>2026-05-02T09:00:33.001Z</time></trkpt><trkpt lat="44.8223474691758" lon="7.302312000244309"><ele>389.0</ele><time>2026-05-02T09:00:34.001Z</time></trkpt><trkpt lat="44.82241542129645" lon="7.302350373655189"><ele>388.99999999999994</ele><time>2026-05-02T09:00:35.001Z</time></trkpt><trkpt lat="44.822481810878614" lon="7.302388069779463"><ele>389.0</ele><time>2026-05-02T09:00:36.001Z</time></trkpt><trkpt lat="44.82254728546217" lon="7.302420555361029"><ele>389.0</ele><time>2026-05-02T09:00:36.999Z</time></trkpt><trkpt lat="44.82261142468728" lon="7.302454373135279"><ele>389.0</ele><time>2026-05-02T09:00:37.999Z</time></trkpt><trkpt lat="44.82267537090911" lon="7.3024889373616135"><ele>388.99999999999994</ele><time>2026-05-02T09:00:38.999Z</time></trkpt><trkpt lat="44.82276728793243" lon="7.302531510668764"><ele>389.0</ele><time>2026-05-02T09:00:40.999Z</time></trkpt><trkpt lat="44.82285638625817" lon="7.302583751716369"><ele>389.0</ele><time>2026-05-02T09:00:42.999Z</time></trkpt><trkpt lat="44.82297314318976" lon="7.302641478435552"><ele>389.0</ele><time>2026-05-02T09:00:44.999Z</time></trkpt><trkpt lat="44.82309338585335" lon="7.302699021219871"><ele>389.0</ele><time>2026-05-02T09:00:46.999Z</time></trkpt><trkpt lat="44.82315712505881" lon="7.302734784179411"><ele>389.0</ele><time>2026-05-02T09:00:47.999Z</time></trkpt><trkpt lat="44.82321920133519" lon="7.302769554917166"><ele>389.0</ele><time>2026-05-02T09:00:48.999Z</time></trkpt><trkpt lat="44.82328044305151" lon="7.302802876771829"><ele>389.0</ele><time>2026-05-02T09:00:49.999Z</time></trkpt><trkpt lat="44.82334464437579" lon="7.302833692353168"><ele>389.0</ele><time>2026-05-02T09:00:50.999Z</time></trkpt><trkpt lat="44.82340844509145" lon="7.302868827677487"><ele>389.0</ele><time>2026-05-02T09:00:52Z</time></trkpt><trkpt lat="44.82347096870642" lon="7.30290286685625"><ele>389.0</ele><time>2026-05-02T09:00:53Z</time></trkpt><trkpt lat="44.823537505470085" lon="7.3029423087988885"><ele>389.0</ele><time>2026-05-02T09:00:54Z</time></trkpt><trkpt lat="44.82360217028174" lon="7.302977311760605"><ele>389.0</ele><time>2026-05-02T09:00:55Z</time></trkpt><trkpt lat="44.82366818930119" lon="7.3030091436237825"><ele>389.0</ele><time>2026-05-02T09:00:56Z</time></trkpt><trkpt lat="44.82373207066261" lon="7.3030362456221285"><ele>388.99999999999994</ele><time>2026-05-02T09:00:57Z</time></trkpt><trkpt lat="44.823795362035455" lon="7.303062104158264"><ele>389.0</ele><time>2026-05-02T09:00:58Z</time></trkpt><trkpt lat="44.8238562317966" lon="7.3030891094107995"><ele>389.0</ele><time>2026-05-02T09:00:59Z</time></trkpt><trkpt lat="44.823955976740415" lon="7.303149235462915"><ele>389.0</ele><time>2026-05-02T09:01:01Z</time></trkpt><trkpt lat="44.82404763681271" lon="7.303222870826973"><ele>388.99999999999994</ele><time>2026-05-02T09:01:03Z</time></trkpt><trkpt lat="44.8241450709552" lon="7.303273910539799"><ele>389.0</ele><time>2026-05-02T09:01:05Z</time></trkpt><trkpt lat="44.82424537964947" lon="7.303306203782493"><ele>389.0</ele><time>2026-05-02T09:01:07Z</time></trkpt><trkpt lat="44.82432780433478" lon="7.303343632560388"><ele>389.0</ele><time>2026-05-02T09:01:09Z</time></trkpt><trkpt lat="44.82439976766169" lon="7.303377989391658"><ele>389.0</ele><time>2026-05-02T09:01:11Z</time></trkpt><trkpt lat="44.82449456904349" lon="7.30341269847954"><ele>389.0</ele><time>2026-05-02T09:01:13Z</time></trkpt><trkpt lat="44.82459677426358" lon="7.303460829837789"><ele>389.0</ele><time>2026-05-02T09:01:15Z</time></trkpt><trkpt lat="44.8246998397813" lon="7.303517067445604"><ele>389.0</ele><time>2026-05-02T09:01:17Z</time></trkpt><trkpt lat="44.82480710081023" lon="7.303544751727683"><ele>389.0</ele><time>2026-05-02T09:01:19Z</time></trkpt><trkpt lat="44.824906891203874" lon="7.303575187694288"><ele>389.0</ele><time>2026-05-02T09:01:21Z</time></trkpt><trkpt lat="44.82501453315133" lon="7.303610522252427"><ele>389.0</ele><time>2026-05-02T09:01:23Z</time></trkpt><trkpt lat="44.82513035630511" lon="7.303637527123045"><ele>389.0</ele><time>2026-05-02T09:01:25Z</time></trkpt><trkpt lat="44.82525029345056" lon="7.303654129046944"><ele>389.49999999999994</ele><time>2026-05-02T09:01:27Z</time></trkpt><trkpt lat="44.825364421582805" lon="7.303661288284462"><ele>390.0</ele><time>2026-05-02T09:01:29Z</time></trkpt><trkpt lat="44.82545532372868" lon="7.303623448383492"><ele>390.5</ele><time>2026-05-02T09:01:31Z</time></trkpt><trkpt lat="44.82553449749942" lon="7.3036178949577355"><ele>391.0</ele><time>2026-05-02T09:01:33Z</time></trkpt><trkpt lat="44.825598348712525" lon="7.303627438849136"><ele>391.49999999999994</ele><time>2026-05-02T09:01:35Z</time></trkpt><trkpt lat="44.825651039485734" lon="7.303541253140812"><ele>392.0</ele><time>2026-05-02T09:01:37Z</time></trkpt><trkpt lat="44.82567821877173" lon="7.303447018011915"><ele>391.99999999999994</ele><time>2026-05-02T09:01:39Z</time></trkpt><trkpt lat="44.82570772880094" lon="7.303324574300449"><ele>392.0</ele><time>2026-05-02T09:01:41Z</time></trkpt><trkpt lat="44.82572651259997" lon="7.303196775829292"><ele>392.0</ele><time>2026-05-02T09:01:43Z</time></trkpt><trkpt lat="44.825745380359095" lon="7.303070110587733"><ele>392.0</ele><time>2026-05-02T09:01:45Z</time></trkpt><trkpt lat="44.82576820641217" lon="7.302952742731339"><ele>391.99999999999994</ele><time>2026-05-02T09:01:47Z</time></trkpt><trkpt lat="44.82579021207293" lon="7.302850125764398"><ele>392.0</ele><time>2026-05-02T09:01:49Z</time></trkpt><trkpt lat="44.8258224781255" lon="7.302758607428322"><ele>391.49999999999994</ele><time>2026-05-02T09:01:52Z</time></trkpt><trkpt lat="44.825878488587364" lon="7.3026846325517045"><ele>391.0</ele><time>2026-05-02T09:01:55.001Z</time></trkpt><trkpt lat="44.82591772166096" lon="7.302572438323006"><ele>390.5</ele><time>2026-05-02T09:01:58.001Z</time></trkpt><trkpt lat="44.82594280160943" lon="7.302489752509553"><ele>390.0</ele><time>2026-05-02T09:02:00.001Z</time></trkpt><trkpt lat="44.82602777989849" lon="7.302486903083317"><ele>389.49999999999994</ele><time>2026-05-02T09:02:03.001Z</time></trkpt><trkpt lat="44.82603928764809" lon="7.302578503026146"><ele>389.0</ele><time>2026-05-02T09:02:05.001Z</time></trkpt><trkpt lat="44.82600661736041" lon="7.302687398652429"><ele>389.0</ele><time>2026-05-02T09:02:08.001Z</time></trkpt><trkpt lat="44.82602920483791" lon="7.302582933727175"><ele>389.0</ele><time>2026-05-02T09:05:02Z</time></trkpt><trkpt lat="44.82600095120426" lon="7.302494056281924"><ele>389.0</ele><time>2026-05-02T09:05:06Z</time></trkpt><trkpt lat="44.82595170196533" lon="7.302565741039958"><ele>389.0</ele><time>2026-05-02T09:05:11Z</time></trkpt><trkpt lat="44.82592192610959" lon="7.30264692611678"><ele>389.0</ele><time>2026-05-02T09:05:17Z</time></trkpt><trkpt lat="44.825880321672926" lon="7.302715700252974"><ele>389.0</ele><time>2026-05-02T09:05:22Z</time></trkpt><trkpt lat="44.825835818678605" lon="7.302791799398486"><ele>389.0</ele><time>2026-05-02T09:05:26Z</time></trkpt><trkpt lat="44.8258009136925" lon="7.3028914371027405"><ele>389.0</ele><time>2026-05-02T09:05:30Z</time></trkpt><trkpt lat="44.825782624923754" lon="7.302998468713565"><ele>389.0</ele><time>2026-05-02T09:05:34Z</time></trkpt><trkpt lat="44.825762032826646" lon="7.303100205789124"><ele>389.0</ele><time>2026-05-02T09:05:38Z</time></trkpt><trkpt lat="44.82574550253764" lon="7.303188586785813"><ele>389.0</ele><time>2026-05-02T09:05:41Z</time></trkpt><trkpt lat="44.825722224287624" lon="7.30329916063706"><ele>389.0</ele><time>2026-05-02T09:05:45Z</time></trkpt><trkpt lat="44.825716711882386" lon="7.303403151225926"><ele>389.0</ele><time>2026-05-02T09:05:49Z</time></trkpt><trkpt lat="44.825757250248834" lon="7.303487233040927"><ele>389.0</ele><time>2026-05-02T09:05:53Z</time></trkpt><trkpt lat="44.825799030122944" lon="7.303561047296857"><ele>389.42857142857144</ele><time>2026-05-02T09:05:58.001Z</time></trkpt><trkpt lat="44.825834839462395" lon="7.3036423473460514"><ele>389.85714285714283</ele><time>2026-05-02T09:06:01.001Z</time></trkpt><trkpt lat="44.82588745482513" lon="7.303711897797863"><ele>390.2857142857143</ele><time>2026-05-02T09:06:04.001Z</time></trkpt><trkpt lat="44.82591608501206" lon="7.303806855035311"><ele>390.7142857142857</ele><time>2026-05-02T09:06:07.001Z</time></trkpt><trkpt lat="44.82592344925368" lon="7.3039101997082785"><ele>391.1428571428571</ele><time>2026-05-02T09:06:09.001Z</time></trkpt><trkpt lat="44.82593129749456" lon="7.304012032068192"><ele>391.57142857142856</ele><time>2026-05-02T09:06:11.001Z</time></trkpt><trkpt lat="44.82594182633114" lon="7.304112365242447"><ele>392.0</ele><time>2026-05-02T09:06:13.001Z</time></trkpt><trkpt lat="44.825957873798686" lon="7.30422028837283"><ele>392.14285714285717</ele><time>2026-05-02T09:06:15.001Z</time></trkpt><trkpt lat="44.825976148976515" lon="7.304326251473699"><ele>392.2857142857143</ele><time>2026-05-02T09:06:17.001Z</time></trkpt><trkpt lat="44.826001777788385" lon="7.304415761030729"><ele>392.42857142857144</ele><time>2026-05-02T09:06:19.001Z</time></trkpt><trkpt lat="44.82602539233844" lon="7.304503298070672"><ele>392.57142857142856</ele><time>2026-05-02T09:06:21.001Z</time></trkpt><trkpt lat="44.82604083491286" lon="7.304591288971635"><ele>392.7142857142857</ele><time>2026-05-02T09:06:23.001Z</time></trkpt><trkpt lat="44.8260720828317" lon="7.304710743350871"><ele>392.8571428571429</ele><time>2026-05-02T09:06:26.001Z</time></trkpt><trkpt lat="44.82610511794962" lon="7.30479516292207"><ele>393.0</ele><time>2026-05-02T09:06:28.001Z</time></trkpt><trkpt lat="44.82613820430874" lon="7.304885325678724"><ele>394.8333333333333</ele><time>2026-05-02T09:06:30.001Z</time></trkpt><trkpt lat="44.82617839522321" lon="7.305009970586367"><ele>396.66666666666663</ele><time>2026-05-02T09:06:33.001Z</time></trkpt><trkpt lat="44.82620798802606" lon="7.305101185988616"><ele>398.5</ele><time>2026-05-02T09:06:35.001Z</time></trkpt><trkpt lat="44.826230939807225" lon="7.3051964079246865"><ele>400.3333333333333</ele><time>2026-05-02T09:06:37.001Z</time></trkpt><trkpt lat="44.82625808534838" lon="7.305293498778112"><ele>402.16666666666663</ele><time>2026-05-02T09:06:39.001Z</time></trkpt><trkpt lat="44.826283942200405" lon="7.305391541866347"><ele>404.0</ele><time>2026-05-02T09:06:41.001Z</time></trkpt><trkpt lat="44.82633151310789" lon="7.305480042471926"><ele>403.99999999999994</ele><time>2026-05-02T09:06:43.001Z</time></trkpt><trkpt lat="44.826385531689986" lon="7.305561981766756"><ele>404.0</ele><time>2026-05-02T09:06:45.001Z</time></trkpt><trkpt lat="44.82644581849472" lon="7.305643018148214"><ele>404.0</ele><time>2026-05-02T09:06:47.001Z</time></trkpt><trkpt lat="44.826520106871975" lon="7.305679270567272"><ele>404.0</ele><time>2026-05-02T09:06:49.001Z</time></trkpt><trkpt lat="44.82659246114813" lon="7.305722383844286"><ele>403.99999999999994</ele><time>2026-05-02T09:06:51.001Z</time></trkpt><trkpt lat="44.82666953648417" lon="7.305767668876951"><ele>404.0</ele><time>2026-05-02T09:06:53.001Z</time></trkpt><trkpt lat="44.82674141570004" lon="7.305837673970838"><ele>401.2</ele><time>2026-05-02T09:06:54.999Z</time></trkpt><trkpt lat="44.82681488471719" lon="7.305893727399587"><ele>398.4</ele><time>2026-05-02T09:06:56.999Z</time></trkpt><trkpt lat="44.82689649505837" lon="7.305952442744056"><ele>395.6</ele><time>2026-05-02T09:06:58.999Z</time></trkpt><trkpt lat="44.8269839344786" lon="7.3060136234840325"><ele>392.8</ele><time>2026-05-02T09:07:00.999Z</time></trkpt><trkpt lat="44.82707801680724" lon="7.3060780363979"><ele>390.0</ele><time>2026-05-02T09:07:02.999Z</time></trkpt><trkpt lat="44.82717508187623" lon="7.306146477692779"><ele>390.0</ele><time>2026-05-02T09:07:04.999Z</time></trkpt><trkpt lat="44.82727255925294" lon="7.306215631759571"><ele>390.0</ele><time>2026-05-02T09:07:06.999Z</time></trkpt><trkpt lat="44.82737564326651" lon="7.306289228847101"><ele>390.0</ele><time>2026-05-02T09:07:08.999Z</time></trkpt><trkpt lat="44.827482421752755" lon="7.306364726273818"><ele>390.0</ele><time>2026-05-02T09:07:10.999Z</time></trkpt><trkpt lat="44.827594208424834" lon="7.306440332832089"><ele>389.1666666666667</ele><time>2026-05-02T09:07:13Z</time></trkpt><trkpt lat="44.82765818242198" lon="7.3064608026187905"><ele>388.33333333333337</ele><time>2026-05-02T09:07:14Z</time></trkpt><trkpt lat="44.827722817143645" lon="7.30648406922955"><ele>387.5</ele><time>2026-05-02T09:07:15Z</time></trkpt><trkpt lat="44.82780183989608" lon="7.30643662060997"><ele>386.6666666666667</ele><time>2026-05-02T09:07:16Z</time></trkpt><trkpt lat="44.8278773491577" lon="7.306404649643722"><ele>385.83333333333337</ele><time>2026-05-02T09:07:17Z</time></trkpt><trkpt lat="44.82795140433768" lon="7.306364864835219"><ele>385.0</ele><time>2026-05-02T09:07:18Z</time></trkpt><trkpt lat="44.82803086189984" lon="7.306316880066171"><ele>385.0</ele><time>2026-05-02T09:07:19Z</time></trkpt><trkpt lat="44.828109202286356" lon="7.306267441179832"><ele>385.0</ele><time>2026-05-02T09:07:20Z</time></trkpt><trkpt lat="44.82819291154024" lon="7.306221051563507"><ele>385.0</ele><time>2026-05-02T09:07:21Z</time></trkpt><trkpt lat="44.828279333330755" lon="7.306176723776225"><ele>385.0</ele><time>2026-05-02T09:07:22Z</time></trkpt><trkpt lat="44.82836839205843" lon="7.306132777121959"><ele>385.0</ele><time>2026-05-02T09:07:23Z</time></trkpt><trkpt lat="44.828459577238405" lon="7.306092718413254"><ele>384.4</ele><time>2026-05-02T09:07:24Z</time></trkpt><trkpt lat="44.828554003976016" lon="7.306052042529503"><ele>383.8</ele><time>2026-05-02T09:07:25Z</time></trkpt><trkpt lat="44.82864989060749" lon="7.306012488704894"><ele>383.20000000000005</ele><time>2026-05-02T09:07:26Z</time></trkpt><trkpt lat="44.8287467187138" lon="7.305975742612249"><ele>382.6</ele><time>2026-05-02T09:07:27Z</time></trkpt><trkpt lat="44.8288446465236" lon="7.305940205516559"><ele>382.0</ele><time>2026-05-02T09:07:28Z</time></trkpt><trkpt lat="44.828943048299244" lon="7.305905787761829"><ele>382.0</ele><time>2026-05-02T09:07:29Z</time></trkpt><trkpt lat="44.82904315986097" lon="7.305871124269117"><ele>382.0</ele><time>2026-05-02T09:07:30Z</time></trkpt><trkpt lat="44.82914361563779" lon="7.305837803653256"><ele>382.0</ele><time>2026-05-02T09:07:31Z</time></trkpt><trkpt lat="44.82924820197474" lon="7.305804695943657"><ele>382.0</ele><time>2026-05-02T09:07:32Z</time></trkpt><trkpt lat="44.829347283682814" lon="7.305782859592852"><ele>382.0</ele><time>2026-05-02T09:07:33Z</time></trkpt><trkpt lat="44.8294464054897" lon="7.305764163319392"><ele>381.0</ele><time>2026-05-02T09:07:34Z</time></trkpt><trkpt lat="44.82954654247192" lon="7.305744573025856"><ele>380.0</ele><time>2026-05-02T09:07:35Z</time></trkpt><trkpt lat="44.8296471463682" lon="7.3057307784131815"><ele>379.0</ele><time>2026-05-02T09:07:36Z</time></trkpt><trkpt lat="44.82974622361315" lon="7.305723099881426"><ele>378.0</ele><time>2026-05-02T09:07:37Z</time></trkpt><trkpt lat="44.829849765071486" lon="7.305713393632097"><ele>377.0</ele><time>2026-05-02T09:07:38Z</time></trkpt><trkpt lat="44.82995213380307" lon="7.305711396785798"><ele>377.0</ele><time>2026-05-02T09:07:39Z</time></trkpt><trkpt lat="44.83005593018515" lon="7.30571272579149"><ele>377.0</ele><time>2026-05-02T09:07:40Z</time></trkpt><trkpt lat="44.830158266096056" lon="7.305712507577627"><ele>377.0</ele><time>2026-05-02T09:07:41Z</time></trkpt><trkpt lat="44.8302604229245" lon="7.305708918635673"><ele>377.0</ele><time>2026-05-02T09:07:42Z</time></trkpt><trkpt lat="44.83036550052073" lon="7.305709310919719"><ele>377.0</ele><time>2026-05-02T09:07:43Z</time></trkpt><trkpt lat="44.83046387901206" lon="7.305710398376305"><ele>375.8</ele><time>2026-05-02T09:07:44Z</time></trkpt><trkpt lat="44.830563152427196" lon="7.305713339526693"><ele>374.6</ele><time>2026-05-02T09:07:45Z</time></trkpt><trkpt lat="44.83065498246742" lon="7.305717173053406"><ele>373.40000000000003</ele><time>2026-05-02T09:07:46Z</time></trkpt><trkpt lat="44.830748022537925" lon="7.305720008816465"><ele>372.20000000000005</ele><time>2026-05-02T09:07:47Z</time></trkpt><trkpt lat="44.8308402245397" lon="7.305719421650429"><ele>371.0</ele><time>2026-05-02T09:07:48Z</time></trkpt><trkpt lat="44.83093052620031" lon="7.305718474728992"><ele>370.83333333333337</ele><time>2026-05-02T09:07:49Z</time></trkpt><trkpt lat="44.831018657487775" lon="7.3057183534269825"><ele>370.6666666666667</ele><time>2026-05-02T09:07:50Z</time></trkpt><trkpt lat="44.831104086786084" lon="7.305715151530456"><ele>370.5</ele><time>2026-05-02T09:07:51Z</time></trkpt><trkpt lat="44.8311839308382" lon="7.305710850419924"><ele>370.3333333333333</ele><time>2026-05-02T09:07:52Z</time></trkpt><trkpt lat="44.83126361678178" lon="7.305706986225624"><ele>370.16666666666663</ele><time>2026-05-02T09:07:53Z</time></trkpt><trkpt lat="44.83133837875329" lon="7.305705261077706"><ele>370.0</ele><time>2026-05-02T09:07:54Z</time></trkpt><trkpt lat="44.83141151476314" lon="7.305705956963998"><ele>370.0</ele><time>2026-05-02T09:07:55Z</time></trkpt><trkpt lat="44.831488422860865" lon="7.305711828770993"><ele>370.0</ele><time>2026-05-02T09:07:56Z</time></trkpt><trkpt lat="44.83156687555202" lon="7.305716471310276"><ele>370.0</ele><time>2026-05-02T09:07:57Z</time></trkpt><trkpt lat="44.83164417396885" lon="7.305724623073766"><ele>370.0</ele><time>2026-05-02T09:07:58Z</time></trkpt><trkpt lat="44.831720702149816" lon="7.305728835733709"><ele>370.0</ele><time>2026-05-02T09:07:59Z</time></trkpt><trkpt lat="44.83179572324922" lon="7.305734669400045"><ele>370.0</ele><time>2026-05-02T09:08:00Z</time></trkpt><trkpt lat="44.83187116090091" lon="7.305738527691675"><ele>369.8</ele><time>2026-05-02T09:08:01Z</time></trkpt><trkpt lat="44.83194421520832" lon="7.305740008396577"><ele>369.6</ele><time>2026-05-02T09:08:02Z</time></trkpt><trkpt lat="44.832011506940916" lon="7.3057419762425715"><ele>369.4</ele><time>2026-05-02T09:08:03Z</time></trkpt><trkpt lat="44.832139649234094" lon="7.305739336538695"><ele>369.2</ele><time>2026-05-02T09:08:05Z</time></trkpt><trkpt lat="44.83226776747665" lon="7.305734740351622"><ele>369.0</ele><time>2026-05-02T09:08:07Z</time></trkpt><trkpt lat="44.832330965075386" lon="7.305731237967795"><ele>369.0</ele><time>2026-05-02T09:08:08Z</time></trkpt><trkpt lat="44.832394972080074" lon="7.305734004045964"><ele>369.0</ele><time>2026-05-02T09:08:09Z</time></trkpt><trkpt lat="44.832458736476624" lon="7.305739537071562"><ele>369.0</ele><time>2026-05-02T09:08:10.001Z</time></trkpt><trkpt lat="44.83252497745334" lon="7.3057444771226585"><ele>369.0</ele><time>2026-05-02T09:08:11.001Z</time></trkpt><trkpt lat="44.83264354046177" lon="7.305746209067918"><ele>369.0</ele><time>2026-05-02T09:08:13.001Z</time></trkpt><trkpt lat="44.83275227722034" lon="7.305747989818713"><ele>369.0</ele><time>2026-05-02T09:08:15.001Z</time></trkpt><trkpt lat="44.83285118694359" lon="7.305750031329595"><ele>368.79999999999995</ele><time>2026-05-02T09:08:17.001Z</time></trkpt><trkpt lat="44.83295736444753" lon="7.305745347280125"><ele>368.59999999999997</ele><time>2026-05-02T09:08:19.001Z</time></trkpt><trkpt lat="44.833058419621636" lon="7.305713265865255"><ele>368.4</ele><time>2026-05-02T09:08:21.001Z</time></trkpt><trkpt lat="44.83315654841561" lon="7.305650627435196"><ele>368.2</ele><time>2026-05-02T09:08:23.001Z</time></trkpt><trkpt lat="44.83324739226504" lon="7.305567571110344"><ele>368.0</ele><time>2026-05-02T09:08:25.001Z</time></trkpt><trkpt lat="44.833348708301756" lon="7.305493219558223"><ele>368.0</ele><time>2026-05-02T09:08:27.001Z</time></trkpt><trkpt lat="44.83344288705936" lon="7.305424662296941"><ele>368.0</ele><time>2026-05-02T09:08:29.001Z</time></trkpt><trkpt lat="44.83353856776649" lon="7.305349710778992"><ele>368.0</ele><time>2026-05-02T09:08:31.001Z</time></trkpt><trkpt lat="44.83363365005569" lon="7.305287000174989"><ele>368.0</ele><time>2026-05-02T09:08:33.001Z</time></trkpt><trkpt lat="44.83372876927832" lon="7.305228404344533"><ele>368.0</ele><time>2026-05-02T09:08:35.001Z</time></trkpt><trkpt lat="44.833825849621086" lon="7.305170634157503"><ele>367.59999999999997</ele><time>2026-05-02T09:08:37.001Z</time></trkpt><trkpt lat="44.833923762537516" lon="7.305114684296225"><ele>367.2</ele><time>2026-05-02T09:08:39.001Z</time></trkpt><trkpt lat="44.83402710967285" lon="7.305062286672438"><ele>366.8</ele><time>2026-05-02T09:08:41.001Z</time></trkpt><trkpt lat="44.834133147967805" lon="7.305009908045346"><ele>366.4</ele><time>2026-05-02T09:08:43.001Z</time></trkpt><trkpt lat="44.83424016561201" lon="7.304961279676544"><ele>366.0</ele><time>2026-05-02T09:08:45.001Z</time></trkpt><trkpt lat="44.834346842357704" lon="7.304915499801696"><ele>365.8</ele><time>2026-05-02T09:08:47.001Z</time></trkpt><trkpt lat="44.834467130065" lon="7.304869376284101"><ele>365.6</ele><time>2026-05-02T09:08:49.001Z</time></trkpt><trkpt lat="44.83453139636253" lon="7.304839738626099"><ele>365.4</ele><time>2026-05-02T09:08:50.001Z</time></trkpt><trkpt lat="44.83459366791818" lon="7.304815888428296"><ele>365.2</ele><time>2026-05-02T09:08:51.001Z</time></trkpt><trkpt lat="44.8347146943774" lon="7.304775871059107"><ele>365.0</ele><time>2026-05-02T09:08:53.001Z</time></trkpt><trkpt lat="44.834832434701184" lon="7.304735707010779"><ele>365.0</ele><time>2026-05-02T09:08:55.001Z</time></trkpt><trkpt lat="44.834937135525394" lon="7.304664963821615"><ele>365.0</ele><time>2026-05-02T09:08:57.001Z</time></trkpt><trkpt lat="44.83505685933331" lon="7.304642122508848"><ele>365.0</ele><time>2026-05-02T09:08:59.001Z</time></trkpt><trkpt lat="44.83517643581709" lon="7.304618599957359"><ele>365.0</ele><time>2026-05-02T09:09:00.999Z</time></trkpt><trkpt lat="44.8352957156326" lon="7.304605633377482"><ele>365.0</ele><time>2026-05-02T09:09:02.999Z</time></trkpt><trkpt lat="44.83541337446796" lon="7.304596061794788"><ele>365.0</ele><time>2026-05-02T09:09:04.999Z</time></trkpt><trkpt lat="44.83552710709517" lon="7.304588662459684"><ele>365.0</ele><time>2026-05-02T09:09:06.999Z</time></trkpt><trkpt lat="44.835646623786715" lon="7.304578891140094"><ele>365.0</ele><time>2026-05-02T09:09:08.999Z</time></trkpt><trkpt lat="44.83576696276155" lon="7.304555322587734"><ele>365.0</ele><time>2026-05-02T09:09:10.999Z</time></trkpt><trkpt lat="44.83588932008278" lon="7.304518033348412"><ele>365.0</ele><time>2026-05-02T09:09:12.999Z</time></trkpt><trkpt lat="44.83600794841184" lon="7.304472591616341"><ele>365.0</ele><time>2026-05-02T09:09:14.999Z</time></trkpt><trkpt lat="44.83611946293958" lon="7.304425048155128"><ele>365.0</ele><time>2026-05-02T09:09:16.999Z</time></trkpt><trkpt lat="44.83622321828474" lon="7.304382976486488"><ele>365.2</ele><time>2026-05-02T09:09:18.999Z</time></trkpt><trkpt lat="44.836324737696245" lon="7.304345736939527"><ele>365.4</ele><time>2026-05-02T09:09:20.999Z</time></trkpt><trkpt lat="44.836433087180225" lon="7.304333921200959"><ele>365.6</ele><time>2026-05-02T09:09:22.999Z</time></trkpt><trkpt lat="44.83653478001581" lon="7.304341671363258"><ele>365.8</ele><time>2026-05-02T09:09:24.999Z</time></trkpt><trkpt lat="44.83663323759812" lon="7.304352000377437"><ele>366.0</ele><time>2026-05-02T09:09:27Z</time></trkpt><trkpt lat="44.8367389124088" lon="7.3043709185001315"><ele>365.8</ele><time>2026-05-02T09:09:29Z</time></trkpt><trkpt lat="44.83681948982767" lon="7.304388537257609"><ele>365.6</ele><time>2026-05-02T09:09:31Z</time></trkpt><trkpt lat="44.83690276585816" lon="7.304408654960798"><ele>365.4</ele><time>2026-05-02T09:09:33Z</time></trkpt><trkpt lat="44.83700588924238" lon="7.304435714571875"><ele>365.2</ele><time>2026-05-02T09:09:35Z</time></trkpt><trkpt lat="44.83711075471464" lon="7.304470180452621"><ele>365.0</ele><time>2026-05-02T09:09:37Z</time></trkpt><trkpt lat="44.837207857322205" lon="7.304504871744243"><ele>365.0</ele><time>2026-05-02T09:09:39Z</time></trkpt><trkpt lat="44.837279108431986" lon="7.304388436318645"><ele>365.0</ele><time>2026-05-02T09:09:40Z</time></trkpt><trkpt lat="44.837375375337515" lon="7.304402772692671"><ele>365.0</ele><time>2026-05-02T09:09:42Z</time></trkpt><trkpt lat="44.83746347185607" lon="7.3044246984231505"><ele>365.0</ele><time>2026-05-02T09:09:44Z</time></trkpt><trkpt lat="44.83754734324474" lon="7.3044466030853314"><ele>365.0</ele><time>2026-05-02T09:09:46Z</time></trkpt><trkpt lat="44.83763599910342" lon="7.304469346496934"><ele>365.33333333333337</ele><time>2026-05-02T09:09:48Z</time></trkpt><trkpt lat="44.83772565671034" lon="7.304487652090718"><ele>365.6666666666667</ele><time>2026-05-02T09:09:50Z</time></trkpt><trkpt lat="44.83781302960013" lon="7.304511867839818"><ele>366.0</ele><time>2026-05-02T09:09:52Z</time></trkpt><trkpt lat="44.83789532376655" lon="7.304528365517673"><ele>366.3333333333333</ele><time>2026-05-02T09:09:54Z</time></trkpt><trkpt lat="44.83797670991622" lon="7.3045316678103465"><ele>366.66666666666663</ele><time>2026-05-02T09:09:56Z</time></trkpt><trkpt lat="44.83805569483126" lon="7.30452688671689"><ele>367.0</ele><time>2026-05-02T09:09:58Z</time></trkpt><trkpt lat="44.83812780106195" lon="7.304522353246462"><ele>367.0</ele><time>2026-05-02T09:10:00Z</time></trkpt><trkpt lat="44.838195499593255" lon="7.304519962668724"><ele>367.0</ele><time>2026-05-02T09:10:02Z</time></trkpt><trkpt lat="44.83827838859372" lon="7.304534280101779"><ele>367.0</ele><time>2026-05-02T09:10:05Z</time></trkpt><trkpt lat="44.83834545135054" lon="7.304570463218679"><ele>367.0</ele><time>2026-05-02T09:10:07Z</time></trkpt><trkpt lat="44.83842317837796" lon="7.304557390942672"><ele>367.0</ele><time>2026-05-02T09:10:09Z</time></trkpt><trkpt lat="44.83845717894285" lon="7.304640570858971"><ele>367.0</ele><time>2026-05-02T09:10:10Z</time></trkpt><trkpt lat="44.8385208328208" lon="7.3046834796050195"><ele>367.0</ele><time>2026-05-02T09:10:12Z</time></trkpt><trkpt lat="44.83860466945772" lon="7.3047538945282895"><ele>366.66666666666663</ele><time>2026-05-02T09:10:15Z</time></trkpt><trkpt lat="44.83867556789795" lon="7.304804523872416"><ele>366.3333333333333</ele><time>2026-05-02T09:10:17Z</time></trkpt><trkpt lat="44.83874833793221" lon="7.304858435300964"><ele>366.0</ele><time>2026-05-02T09:10:19.001Z</time></trkpt><trkpt lat="44.83882453443116" lon="7.304914806081037"><ele>365.6666666666667</ele><time>2026-05-02T09:10:21.001Z</time></trkpt><trkpt lat="44.838901937217216" lon="7.304971308476155"><ele>365.33333333333337</ele><time>2026-05-02T09:10:23.001Z</time></trkpt><trkpt lat="44.83898037673443" lon="7.305021043185291"><ele>365.0</ele><time>2026-05-02T09:10:25.001Z</time></trkpt><trkpt lat="44.839056239175285" lon="7.305072448346149"><ele>365.0</ele><time>2026-05-02T09:10:27.001Z</time></trkpt><trkpt lat="44.83911980057911" lon="7.305128295318065"><ele>365.0</ele><time>2026-05-02T09:10:29.001Z</time></trkpt><trkpt lat="44.83918519807871" lon="7.305177848019139"><ele>365.0</ele><time>2026-05-02T09:10:31.001Z</time></trkpt><trkpt lat="44.839253445924506" lon="7.305237190832043"><ele>365.0</ele><time>2026-05-02T09:10:33.001Z</time></trkpt><trkpt lat="44.83932398286514" lon="7.305293463707675"><ele>365.0</ele><time>2026-05-02T09:10:35.001Z</time></trkpt><trkpt lat="44.83939111012978" lon="7.305348996998491"><ele>365.0</ele><time>2026-05-02T09:10:37.001Z</time></trkpt><trkpt lat="44.83945791624014" lon="7.305402735998918"><ele>364.83333333333337</ele><time>2026-05-02T09:10:39.001Z</time></trkpt><trkpt lat="44.839519759179574" lon="7.305454100793771"><ele>364.6666666666667</ele><time>2026-05-02T09:10:41.001Z</time></trkpt><trkpt lat="44.839558594829874" lon="7.305535839397346"><ele>364.5</ele><time>2026-05-02T09:10:43.001Z</time></trkpt><trkpt lat="44.839592249734224" lon="7.305636706125908"><ele>364.3333333333333</ele><time>2026-05-02T09:10:45.001Z</time></trkpt><trkpt lat="44.83962234998961" lon="7.305763289668121"><ele>364.16666666666663</ele><time>2026-05-02T09:10:47.001Z</time></trkpt><trkpt lat="44.839656511118015" lon="7.305889551252304"><ele>364.0</ele><time>2026-05-02T09:10:49.001Z</time></trkpt><trkpt lat="44.839697683998985" lon="7.30601756082604"><ele>364.0</ele><time>2026-05-02T09:10:51.001Z</time></trkpt><trkpt lat="44.83974608663569" lon="7.306144288835082"><ele>364.0</ele><time>2026-05-02T09:10:53.001Z</time></trkpt><trkpt lat="44.83979913683628" lon="7.306268223880361"><ele>364.0</ele><time>2026-05-02T09:10:55.001Z</time></trkpt><trkpt lat="44.83985290375756" lon="7.306380697591368"><ele>364.0</ele><time>2026-05-02T09:10:57.001Z</time></trkpt><trkpt lat="44.8399188384249" lon="7.306484781759759"><ele>364.0</ele><time>2026-05-02T09:10:59.001Z</time></trkpt><trkpt lat="44.83998527073095" lon="7.306571047149903"><ele>363.66666666666663</ele><time>2026-05-02T09:11:01.001Z</time></trkpt><trkpt lat="44.840024866750895" lon="7.306661078921941"><ele>363.3333333333333</ele><time>2026-05-02T09:11:05.001Z</time></trkpt><trkpt lat="44.84008692606899" lon="7.306768720059917"><ele>363.0</ele><time>2026-05-02T09:11:07.999Z</time></trkpt><trkpt lat="44.84018151691977" lon="7.306728377089224"><ele>362.6666666666667</ele><time>2026-05-02T09:11:08.999Z</time></trkpt><trkpt lat="44.84024892435017" lon="7.306756209678096"><ele>362.33333333333337</ele><time>2026-05-02T09:11:10.999Z</time></trkpt><trkpt lat="44.84031625751971" lon="7.306779915635663"><ele>362.0</ele><time>2026-05-02T09:11:12.999Z</time></trkpt><trkpt lat="44.84039880256101" lon="7.306792072274023"><ele>361.8</ele><time>2026-05-02T09:11:14.999Z</time></trkpt><trkpt lat="44.84048494824555" lon="7.3067987931383"><ele>361.6</ele><time>2026-05-02T09:11:16.999Z</time></trkpt><trkpt lat="44.84057881706516" lon="7.306812781616533"><ele>361.40000000000003</ele><time>2026-05-02T09:11:18.999Z</time></trkpt><trkpt lat="44.84067172441962" lon="7.306823104301629"><ele>361.20000000000005</ele><time>2026-05-02T09:11:20.999Z</time></trkpt><trkpt lat="44.84076378863578" lon="7.306832249212866"><ele>361.0</ele><time>2026-05-02T09:11:22.999Z</time></trkpt><trkpt lat="44.840861329685936" lon="7.306843636490643"><ele>361.0</ele><time>2026-05-02T09:11:24.999Z</time></trkpt><trkpt lat="44.84095869318943" lon="7.306856231437156"><ele>361.0</ele><time>2026-05-02T09:11:26.999Z</time></trkpt><trkpt lat="44.84104833669213" lon="7.306862671488513"><ele>361.0</ele><time>2026-05-02T09:11:28.999Z</time></trkpt><trkpt lat="44.84113513529323" lon="7.306875350178762"><ele>361.0</ele><time>2026-05-02T09:11:30.999Z</time></trkpt><trkpt lat="44.841215555371036" lon="7.306889032398229"><ele>361.0</ele><time>2026-05-02T09:11:33Z</time></trkpt><trkpt lat="44.84128721469647" lon="7.306896661669392"><ele>361.0</ele><time>2026-05-02T09:11:35Z</time></trkpt><trkpt lat="44.841368862146375" lon="7.306903999341873"><ele>361.5</ele><time>2026-05-02T09:11:37Z</time></trkpt><trkpt lat="44.84145332538955" lon="7.306911674022998"><ele>362.0</ele><time>2026-05-02T09:11:39Z</time></trkpt><trkpt lat="44.8415383566971" lon="7.306916454297939"><ele>362.5</ele><time>2026-05-02T09:11:41Z</time></trkpt><trkpt lat="44.84163199660166" lon="7.306921744208826"><ele>363.0</ele><time>2026-05-02T09:11:43Z</time></trkpt><trkpt lat="44.841723376765486" lon="7.306934661337614"><ele>363.5</ele><time>2026-05-02T09:11:45Z</time></trkpt><trkpt lat="44.84181259174536" lon="7.306947543723433"><ele>364.0</ele><time>2026-05-02T09:11:47Z</time></trkpt><trkpt lat="44.84190565153923" lon="7.306959750349033"><ele>364.0</ele><time>2026-05-02T09:11:49Z</time></trkpt><trkpt lat="44.842004339489186" lon="7.306973233862286"><ele>364.0</ele><time>2026-05-02T09:11:51Z</time></trkpt><trkpt lat="44.842110107251294" lon="7.306991812201182"><ele>364.0</ele><time>2026-05-02T09:11:53Z</time></trkpt><trkpt lat="44.84221963319324" lon="7.307018001890846"><ele>364.0</ele><time>2026-05-02T09:11:55Z</time></trkpt><trkpt lat="44.84232921155333" lon="7.30705547118385"><ele>364.0</ele><time>2026-05-02T09:11:57Z</time></trkpt><trkpt lat="44.84243368475225" lon="7.307106612673467"><ele>364.0</ele><time>2026-05-02T09:11:59Z</time></trkpt><trkpt lat="44.84254112679088" lon="7.307169149870741"><ele>364.0</ele><time>2026-05-02T09:12:01Z</time></trkpt><trkpt lat="44.842647935426015" lon="7.307238518194626"><ele>364.0</ele><time>2026-05-02T09:12:03Z</time></trkpt><trkpt lat="44.8427508981696" lon="7.307311829563251"><ele>364.0</ele><time>2026-05-02T09:12:05Z</time></trkpt><trkpt lat="44.842852292781885" lon="7.307388539804227"><ele>363.4</ele><time>2026-05-02T09:12:07Z</time></trkpt><trkpt lat="44.842954167281626" lon="7.307457191449529"><ele>362.79999999999995</ele><time>2026-05-02T09:12:09Z</time></trkpt><trkpt lat="44.84305708693026" lon="7.30752138437025"><ele>362.20000000000005</ele><time>2026-05-02T09:12:11Z</time></trkpt><trkpt lat="44.84316370647909" lon="7.307575537661318"><ele>361.6</ele><time>2026-05-02T09:12:13Z</time></trkpt><trkpt lat="44.843269312469225" lon="7.30761679856116"><ele>361.0</ele><time>2026-05-02T09:12:15Z</time></trkpt><trkpt lat="44.84337510068985" lon="7.30765208808362"><ele>361.20000000000005</ele><time>2026-05-02T09:12:17Z</time></trkpt><trkpt lat="44.84348198456611" lon="7.3076784276549"><ele>361.40000000000003</ele><time>2026-05-02T09:12:19Z</time></trkpt><trkpt lat="44.84358753143799" lon="7.307698441474176"><ele>361.6</ele><time>2026-05-02T09:12:21.001Z</time></trkpt><trkpt lat="44.84369051992813" lon="7.307722953767019"><ele>361.8</ele><time>2026-05-02T09:12:23.001Z</time></trkpt><trkpt lat="44.84379050312197" lon="7.307744228404828"><ele>362.0</ele><time>2026-05-02T09:12:25.001Z</time></trkpt><trkpt lat="44.84388893431447" lon="7.307758808316248"><ele>362.0</ele><time>2026-05-02T09:12:27.001Z</time></trkpt><trkpt lat="44.843987700402785" lon="7.3077715972693795"><ele>362.0</ele><time>2026-05-02T09:12:29.001Z</time></trkpt><trkpt lat="44.844088856851926" lon="7.307777071772101"><ele>362.0</ele><time>2026-05-02T09:12:31.001Z</time></trkpt><trkpt lat="44.8441877460758" lon="7.307780462264617"><ele>362.0</ele><time>2026-05-02T09:12:33.001Z</time></trkpt><trkpt lat="44.84428600001734" lon="7.307773113559734"><ele>362.0</ele><time>2026-05-02T09:12:35.001Z</time></trkpt><trkpt lat="44.844378839719006" lon="7.307761612441396"><ele>362.1666666666667</ele><time>2026-05-02T09:12:37.001Z</time></trkpt><trkpt lat="44.8444677891854" lon="7.307738843007007"><ele>362.33333333333337</ele><time>2026-05-02T09:12:39.001Z</time></trkpt><trkpt lat="44.84455575525172" lon="7.307713274727557"><ele>362.5</ele><time>2026-05-02T09:12:41.001Z</time></trkpt><trkpt lat="44.84464090515151" lon="7.307676663071181"><ele>362.6666666666667</ele><time>2026-05-02T09:12:43.001Z</time></trkpt><trkpt lat="44.8447228189986" lon="7.307638931730298"><ele>362.8333333333333</ele><time>2026-05-02T09:12:45.001Z</time></trkpt><trkpt lat="44.84479830419572" lon="7.307594193155933"><ele>363.0</ele><time>2026-05-02T09:12:47.001Z</time></trkpt><trkpt lat="44.844879762953504" lon="7.307548449783578"><ele>363.0</ele><time>2026-05-02T09:12:49.001Z</time></trkpt><trkpt lat="44.84495775785618" lon="7.307500029657706"><ele>363.0</ele><time>2026-05-02T09:12:51.001Z</time></trkpt><trkpt lat="44.84502821873787" lon="7.307456743260792"><ele>363.0</ele><time>2026-05-02T09:12:53.001Z</time></trkpt><trkpt lat="44.84509726725219" lon="7.307411828462453"><ele>363.0</ele><time>2026-05-02T09:12:55.001Z</time></trkpt><trkpt lat="44.84517380497969" lon="7.307362543743643"><ele>363.0</ele><time>2026-05-02T09:12:57.001Z</time></trkpt><trkpt lat="44.84524687971271" lon="7.307312992107524"><ele>363.0</ele><time>2026-05-02T09:12:59.001Z</time></trkpt><trkpt lat="44.84531516849939" lon="7.307269398140588"><ele>363.71428571428567</ele><time>2026-05-02T09:13:01.001Z</time></trkpt><trkpt lat="44.84537926005504" lon="7.307226088493365"><ele>364.42857142857144</ele><time>2026-05-02T09:13:03.001Z</time></trkpt><trkpt lat="44.84544343443024" lon="7.3071868800608915"><ele>365.1428571428571</ele><time>2026-05-02T09:13:05.001Z</time></trkpt><trkpt lat="44.84551207545053" lon="7.307144569565757"><ele>365.85714285714283</ele><time>2026-05-02T09:13:07.001Z</time></trkpt><trkpt lat="44.84558321129722" lon="7.3070907899891"><ele>366.57142857142856</ele><time>2026-05-02T09:13:09.001Z</time></trkpt><trkpt lat="44.84565595189376" lon="7.307053368535573"><ele>367.2857142857143</ele><time>2026-05-02T09:13:11.001Z</time></trkpt><trkpt lat="44.84572253464379" lon="7.307004574842595"><ele>368.0</ele><time>2026-05-02T09:13:12.999Z</time></trkpt><trkpt lat="44.84579007860604" lon="7.306961253764478"><ele>368.0</ele><time>2026-05-02T09:13:14.999Z</time></trkpt><trkpt lat="44.845860041271095" lon="7.306915242396549"><ele>368.0</ele><time>2026-05-02T09:13:16.999Z</time></trkpt><trkpt lat="44.84592840005871" lon="7.306870800427867"><ele>368.0</ele><time>2026-05-02T09:13:18.999Z</time></trkpt><trkpt lat="44.8459977109986" lon="7.3068229446615245"><ele>368.0</ele><time>2026-05-02T09:13:20.999Z</time></trkpt><trkpt lat="44.84606978061759" lon="7.306776316516083"><ele>368.0</ele><time>2026-05-02T09:13:22.999Z</time></trkpt><trkpt lat="44.8461365586691" lon="7.3067324268720935"><ele>368.0</ele><time>2026-05-02T09:13:24.999Z</time></trkpt><trkpt lat="44.846197537173566" lon="7.306691035202095"><ele>368.0</ele><time>2026-05-02T09:13:26.999Z</time></trkpt><trkpt lat="44.846266921017765" lon="7.306645687609422"><ele>368.0</ele><time>2026-05-02T09:13:28.999Z</time></trkpt><trkpt lat="44.846339920180675" lon="7.306595799035449"><ele>368.0</ele><time>2026-05-02T09:13:30.999Z</time></trkpt><trkpt lat="44.84641232490768" lon="7.306549524762121"><ele>368.0</ele><time>2026-05-02T09:13:32.999Z</time></trkpt><trkpt lat="44.846485225661425" lon="7.306502837888451"><ele>368.0</ele><time>2026-05-02T09:13:35Z</time></trkpt><trkpt lat="44.846555484974246" lon="7.306455267770363"><ele>368.0</ele><time>2026-05-02T09:13:37Z</time></trkpt><trkpt lat="44.8466243367061" lon="7.30641131855439"><ele>368.5</ele><time>2026-05-02T09:13:39Z</time></trkpt><trkpt lat="44.84669248550717" lon="7.306366561591806"><ele>369.0</ele><time>2026-05-02T09:13:41Z</time></trkpt><trkpt lat="44.846761648863676" lon="7.306324030978568"><ele>369.5</ele><time>2026-05-02T09:13:43Z</time></trkpt><trkpt lat="44.84683248331789" lon="7.306279507518832"><ele>370.0</ele><time>2026-05-02T09:13:45Z</time></trkpt><trkpt lat="44.84690110528439" lon="7.306230586193844"><ele>370.5</ele><time>2026-05-02T09:13:47Z</time></trkpt><trkpt lat="44.84697139760172" lon="7.306188071555089"><ele>371.0</ele><time>2026-05-02T09:13:49Z</time></trkpt><trkpt lat="44.847042630377835" lon="7.306143574048973"><ele>371.33333333333337</ele><time>2026-05-02T09:13:51Z</time></trkpt><trkpt lat="44.84711397073966" lon="7.306097342568273"><ele>371.6666666666667</ele><time>2026-05-02T09:13:53Z</time></trkpt><trkpt lat="44.84718457849897" lon="7.306053160639529"><ele>372.0</ele><time>2026-05-02T09:13:55Z</time></trkpt><trkpt lat="44.847252953498945" lon="7.306009609623056"><ele>372.3333333333333</ele><time>2026-05-02T09:13:57Z</time></trkpt><trkpt lat="44.84732202575023" lon="7.305965261818021"><ele>372.66666666666663</ele><time>2026-05-02T09:13:59Z</time></trkpt><trkpt lat="44.84739197404635" lon="7.305922161837645"><ele>373.0</ele><time>2026-05-02T09:14:01Z</time></trkpt><trkpt lat="44.84746177025998" lon="7.3058767322118445"><ele>373.0</ele><time>2026-05-02T09:14:03Z</time></trkpt><trkpt lat="44.84753362865561" lon="7.305830590984647"><ele>373.0</ele><time>2026-05-02T09:14:05Z</time></trkpt><trkpt lat="44.84760785462431" lon="7.3057872361716525"><ele>373.0</ele><time>2026-05-02T09:14:07Z</time></trkpt><trkpt lat="44.84768140074948" lon="7.3057375109005225"><ele>373.0</ele><time>2026-05-02T09:14:09Z</time></trkpt><trkpt lat="44.84775486234331" lon="7.305690421465459"><ele>373.0</ele><time>2026-05-02T09:14:11Z</time></trkpt><trkpt lat="44.84783046786258" lon="7.305648914610697"><ele>373.0</ele><time>2026-05-02T09:14:13Z</time></trkpt><trkpt lat="44.84790428559489" lon="7.30560104738935"><ele>373.5</ele><time>2026-05-02T09:14:15Z</time></trkpt><trkpt lat="44.84797664854779" lon="7.305552086528515"><ele>374.0</ele><time>2026-05-02T09:14:17Z</time></trkpt><trkpt lat="44.848048671892656" lon="7.305506115510068"><ele>374.5</ele><time>2026-05-02T09:14:19.001Z</time></trkpt><trkpt lat="44.84812164326354" lon="7.305462259859962"><ele>375.0</ele><time>2026-05-02T09:14:21.001Z</time></trkpt><trkpt lat="44.84819425009512" lon="7.305419823173828"><ele>375.5</ele><time>2026-05-02T09:14:23.001Z</time></trkpt><trkpt lat="44.848266090375645" lon="7.305374725752558"><ele>376.0</ele><time>2026-05-02T09:14:25.001Z</time></trkpt><trkpt lat="44.848337236433906" lon="7.3053336834346725"><ele>376.0</ele><time>2026-05-02T09:14:27.001Z</time></trkpt><trkpt lat="44.84841120508735" lon="7.305292640205731"><ele>376.0</ele><time>2026-05-02T09:14:29.001Z</time></trkpt><trkpt lat="44.84848860323055" lon="7.305245491409149"><ele>376.0</ele><time>2026-05-02T09:14:31.001Z</time></trkpt><trkpt lat="44.84856579038177" lon="7.305198124258688"><ele>376.0</ele><time>2026-05-02T09:14:33.001Z</time></trkpt><trkpt lat="44.84864287105293" lon="7.305152178724114"><ele>376.0</ele><time>2026-05-02T09:14:35.001Z</time></trkpt><trkpt lat="44.848722088004536" lon="7.3051069831184705"><ele>376.0</ele><time>2026-05-02T09:14:37.001Z</time></trkpt><trkpt lat="44.84880305640071" lon="7.305061954689105"><ele>376.0</ele><time>2026-05-02T09:14:39.001Z</time></trkpt><trkpt lat="44.84888356088721" lon="7.305013622979289"><ele>376.0</ele><time>2026-05-02T09:14:41.001Z</time></trkpt><trkpt lat="44.848963970087816" lon="7.304965994936091"><ele>376.0</ele><time>2026-05-02T09:14:43.001Z</time></trkpt><trkpt lat="44.8490441384649" lon="7.304916359805497"><ele>376.0</ele><time>2026-05-02T09:14:45.001Z</time></trkpt><trkpt lat="44.849127048423384" lon="7.304873109974859"><ele>376.0</ele><time>2026-05-02T09:14:47.001Z</time></trkpt><trkpt lat="44.84920800162852" lon="7.304827390214996"><ele>376.0</ele><time>2026-05-02T09:14:49.001Z</time></trkpt><trkpt lat="44.84929023011495" lon="7.304782320215557"><ele>376.5</ele><time>2026-05-02T09:14:51.001Z</time></trkpt><trkpt lat="44.84936947702825" lon="7.304739687657474"><ele>377.0</ele><time>2026-05-02T09:14:53.001Z</time></trkpt><trkpt lat="44.849449141748366" lon="7.304694568063143"><ele>377.5</ele><time>2026-05-02T09:14:55.001Z</time></trkpt><trkpt lat="44.849530530139994" lon="7.304649024386082"><ele>378.0</ele><time>2026-05-02T09:14:57.001Z</time></trkpt><trkpt lat="44.84961293342979" lon="7.304604546025767"><ele>378.5</ele><time>2026-05-02T09:14:59.001Z</time></trkpt><trkpt lat="44.8496927900103" lon="7.304558125614155"><ele>379.0</ele><time>2026-05-02T09:15:01.001Z</time></trkpt><trkpt lat="44.84977067056101" lon="7.304514778892097"><ele>379.0</ele><time>2026-05-02T09:15:03.001Z</time></trkpt><trkpt lat="44.849848026247265" lon="7.304476584897182"><ele>379.0</ele><time>2026-05-02T09:15:05.001Z</time></trkpt><trkpt lat="44.84992821281348" lon="7.30443544433264"><ele>379.0</ele><time>2026-05-02T09:15:07.001Z</time></trkpt><trkpt lat="44.85000892587068" lon="7.304391158613618"><ele>379.0</ele><time>2026-05-02T09:15:09.002Z</time></trkpt><trkpt lat="44.85009129155038" lon="7.304347345498591"><ele>379.0</ele><time>2026-05-02T09:15:11.002Z</time></trkpt><trkpt lat="44.8501759425435" lon="7.3043007951719705"><ele>379.0</ele><time>2026-05-02T09:15:13.002Z</time></trkpt><trkpt lat="44.85026202640266" lon="7.304258254662778"><ele>378.79999999999995</ele><time>2026-05-02T09:15:15.002Z</time></trkpt><trkpt lat="44.85034650591537" lon="7.30421013794406"><ele>378.59999999999997</ele><time>2026-05-02T09:15:17.002Z</time></trkpt><trkpt lat="44.850430454840776" lon="7.304158599099673"><ele>378.4</ele><time>2026-05-02T09:15:18.999Z</time></trkpt><trkpt lat="44.85051821305042" lon="7.304106286422539"><ele>378.2</ele><time>2026-05-02T09:15:20.999Z</time></trkpt><trkpt lat="44.85060653012601" lon="7.304050881368155"><ele>378.0</ele><time>2026-05-02T09:15:22.999Z</time></trkpt><trkpt lat="44.850701577042095" lon="7.304000295237327"><ele>378.0</ele><time>2026-05-02T09:15:24.999Z</time></trkpt><trkpt lat="44.85080140451407" lon="7.303949818870966"><ele>378.0</ele><time>2026-05-02T09:15:26.999Z</time></trkpt><trkpt lat="44.85090294539134" lon="7.303896735004626"><ele>378.0</ele><time>2026-05-02T09:15:28.999Z</time></trkpt><trkpt lat="44.85100613569441" lon="7.303836007479594"><ele>378.0</ele><time>2026-05-02T09:15:30.999Z</time></trkpt><trkpt lat="44.851111053997016" lon="7.30378060409296"><ele>378.0</ele><time>2026-05-02T09:15:32.999Z</time></trkpt><trkpt lat="44.85122037117676" lon="7.303719676625348"><ele>377.75</ele><time>2026-05-02T09:15:35Z</time></trkpt><trkpt lat="44.85133265684869" lon="7.303660556410979"><ele>377.5</ele><time>2026-05-02T09:15:37Z</time></trkpt><trkpt lat="44.85144608518921" lon="7.303602949757814"><ele>377.25</ele><time>2026-05-02T09:15:39Z</time></trkpt><trkpt lat="44.8515553971543" lon="7.30354303561826"><ele>377.0</ele><time>2026-05-02T09:15:41Z</time></trkpt><trkpt lat="44.85166671832164" lon="7.303486234109501"><ele>377.0</ele><time>2026-05-02T09:15:43Z</time></trkpt><trkpt lat="44.851783624881456" lon="7.30344049086611"><ele>377.0</ele><time>2026-05-02T09:15:45Z</time></trkpt><trkpt lat="44.851901396554524" lon="7.3034041232740154"><ele>377.0</ele><time>2026-05-02T09:15:47Z</time></trkpt><trkpt lat="44.852016646735635" lon="7.303377663155007"><ele>377.0</ele><time>2026-05-02T09:15:49Z</time></trkpt><trkpt lat="44.85212696464069" lon="7.303355534824751"><ele>377.0</ele><time>2026-05-02T09:15:51Z</time></trkpt><trkpt lat="44.85223738646812" lon="7.303341713940432"><ele>377.0</ele><time>2026-05-02T09:15:53Z</time></trkpt><trkpt lat="44.852344047560884" lon="7.303332449643586"><ele>377.0</ele><time>2026-05-02T09:15:55Z</time></trkpt><trkpt lat="44.85244778181588" lon="7.303330801065222"><ele>377.0</ele><time>2026-05-02T09:15:57Z</time></trkpt><trkpt lat="44.852551880043634" lon="7.303339154720326"><ele>377.0</ele><time>2026-05-02T09:15:59Z</time></trkpt><trkpt lat="44.852653764554375" lon="7.303349954534191"><ele>377.20000000000005</ele><time>2026-05-02T09:16:01Z</time></trkpt><trkpt lat="44.85275540685592" lon="7.303359802205785"><ele>377.4</ele><time>2026-05-02T09:16:03Z</time></trkpt><trkpt lat="44.85285194925325" lon="7.303369510236352"><ele>377.6</ele><time>2026-05-02T09:16:05Z</time></trkpt><trkpt lat="44.852952771998204" lon="7.303377841817947"><ele>377.79999999999995</ele><time>2026-05-02T09:16:07Z</time></trkpt><trkpt lat="44.853049459556146" lon="7.303387107841814"><ele>378.0</ele><time>2026-05-02T09:16:09Z</time></trkpt><trkpt lat="44.85314469297272" lon="7.303395006601934"><ele>378.0</ele><time>2026-05-02T09:16:11Z</time></trkpt><trkpt lat="44.85324092951875" lon="7.303400624913991"><ele>378.0</ele><time>2026-05-02T09:16:13Z</time></trkpt><trkpt lat="44.85333978787668" lon="7.303405507891188"><ele>378.0</ele><time>2026-05-02T09:16:15Z</time></trkpt><trkpt lat="44.8534419684497" lon="7.303415144760369"><ele>378.0</ele><time>2026-05-02T09:16:17.001Z</time></trkpt><trkpt lat="44.853544570835574" lon="7.303429384589247"><ele>378.0</ele><time>2026-05-02T09:16:19.001Z</time></trkpt><trkpt lat="44.853649439358996" lon="7.303437543108626"><ele>377.79999999999995</ele><time>2026-05-02T09:16:21.001Z</time></trkpt><trkpt lat="44.853757173005384" lon="7.303449081764271"><ele>377.6</ele><time>2026-05-02T09:16:23.001Z</time></trkpt><trkpt lat="44.85386594489551" lon="7.303455987380862"><ele>377.4</ele><time>2026-05-02T09:16:25.001Z</time></trkpt><trkpt lat="44.853974231395824" lon="7.303468169977616"><ele>377.20000000000005</ele><time>2026-05-02T09:16:27.001Z</time></trkpt><trkpt lat="44.85408486918879" lon="7.303479389708398"><ele>377.0</ele><time>2026-05-02T09:16:29.001Z</time></trkpt><trkpt lat="44.85419583661049" lon="7.303491950879119"><ele>377.25</ele><time>2026-05-02T09:16:31.001Z</time></trkpt><trkpt lat="44.85430780332068" lon="7.3035036251843195"><ele>377.5</ele><time>2026-05-02T09:16:33.001Z</time></trkpt><trkpt lat="44.85442240340565" lon="7.303509101805248"><ele>377.75</ele><time>2026-05-02T09:16:35.001Z</time></trkpt><trkpt lat="44.85453759379785" lon="7.303526670840657"><ele>378.0</ele><time>2026-05-02T09:16:37.001Z</time></trkpt><trkpt lat="44.854654616919426" lon="7.303544799785841"><ele>378.0</ele><time>2026-05-02T09:16:39.001Z</time></trkpt><trkpt lat="44.85477243937117" lon="7.3035636247223055"><ele>378.0</ele><time>2026-05-02T09:16:41.001Z</time></trkpt><trkpt lat="44.854887400674905" lon="7.303582007883138"><ele>378.0</ele><time>2026-05-02T09:16:43.001Z</time></trkpt><trkpt lat="44.855002283168105" lon="7.303604681854668"><ele>378.0</ele><time>2026-05-02T09:16:45.001Z</time></trkpt><trkpt lat="44.855109084774604" lon="7.303627086487443"><ele>378.2</ele><time>2026-05-02T09:16:47.001Z</time></trkpt><trkpt lat="44.855214366344704" lon="7.303652368750499"><ele>378.4</ele><time>2026-05-02T09:16:49.001Z</time></trkpt><trkpt lat="44.85531640587261" lon="7.303681304458224"><ele>378.59999999999997</ele><time>2026-05-02T09:16:51.001Z</time></trkpt><trkpt lat="44.85542321072955" lon="7.303712626989824"><ele>378.79999999999995</ele><time>2026-05-02T09:16:53.001Z</time></trkpt><trkpt lat="44.85552850296832" lon="7.303743734021941"><ele>379.0</ele><time>2026-05-02T09:16:55.001Z</time></trkpt><trkpt lat="44.85563148422289" lon="7.303774439762932"><ele>379.0</ele><time>2026-05-02T09:16:57.001Z</time></trkpt><trkpt lat="44.855732272157965" lon="7.303807394402349"><ele>379.0</ele><time>2026-05-02T09:16:59.001Z</time></trkpt><trkpt lat="44.85582859068913" lon="7.303837954887182"><ele>379.0</ele><time>2026-05-02T09:17:01.001Z</time></trkpt><trkpt lat="44.855923435347286" lon="7.303864572194908"><ele>379.0</ele><time>2026-05-02T09:17:03.001Z</time></trkpt><trkpt lat="44.85601502581274" lon="7.303893144042406"><ele>379.0</ele><time>2026-05-02T09:17:05.002Z</time></trkpt><trkpt lat="44.85610386216443" lon="7.303923543723541"><ele>379.16666666666663</ele><time>2026-05-02T09:17:07.002Z</time></trkpt><trkpt lat="44.85619038837469" lon="7.303949992060163"><ele>379.3333333333333</ele><time>2026-05-02T09:17:09.002Z</time></trkpt><trkpt lat="44.856272434548515" lon="7.30397268789637"><ele>379.5</ele><time>2026-05-02T09:17:11.002Z</time></trkpt><trkpt lat="44.85635307731151" lon="7.304000640056926"><ele>379.6666666666667</ele><time>2026-05-02T09:17:13.002Z</time></trkpt><trkpt lat="44.856432969451" lon="7.3040261360462795"><ele>379.83333333333337</ele><time>2026-05-02T09:17:15.002Z</time></trkpt><trkpt lat="44.85651510995512" lon="7.304049531013802"><ele>380.0</ele><time>2026-05-02T09:17:17.002Z</time></trkpt><trkpt lat="44.85659924725943" lon="7.304071115793076"><ele>380.0</ele><time>2026-05-02T09:17:19.002Z</time></trkpt><trkpt lat="44.85668260932194" lon="7.304095853697444"><ele>380.0</ele><time>2026-05-02T09:17:21.002Z</time></trkpt><trkpt lat="44.856766590198575" lon="7.304123315371809"><ele>380.0</ele><time>2026-05-02T09:17:23.002Z</time></trkpt><trkpt lat="44.85685265370521" lon="7.3041476127501905"><ele>380.0</ele><time>2026-05-02T09:17:24.999Z</time></trkpt><trkpt lat="44.85693868589516" lon="7.304165515660289"><ele>380.0</ele><time>2026-05-02T09:17:26.999Z</time></trkpt><trkpt lat="44.85702643931878" lon="7.304178448077658"><ele>380.0</ele><time>2026-05-02T09:17:28.999Z</time></trkpt><trkpt lat="44.857112954473955" lon="7.304181606210518"><ele>380.6666666666667</ele><time>2026-05-02T09:17:30.999Z</time></trkpt><trkpt lat="44.8571987119465" lon="7.304177781364898"><ele>381.33333333333337</ele><time>2026-05-02T09:17:32.999Z</time></trkpt><trkpt lat="44.85728495390719" lon="7.304163618508861"><ele>382.0</ele><time>2026-05-02T09:17:34.999Z</time></trkpt><trkpt lat="44.85736961185162" lon="7.3041417799804975"><ele>382.6666666666667</ele><time>2026-05-02T09:17:36.999Z</time></trkpt><trkpt lat="44.857450580490585" lon="7.304118424219687"><ele>383.3333333333333</ele><time>2026-05-02T09:17:39Z</time></trkpt><trkpt lat="44.85752727611934" lon="7.304088507721334"><ele>384.0</ele><time>2026-05-02T09:17:41Z</time></trkpt><trkpt lat="44.857606602459654" lon="7.304064858164771"><ele>384.3333333333333</ele><time>2026-05-02T09:17:43Z</time></trkpt><trkpt lat="44.85768483727041" lon="7.304048371906023"><ele>384.66666666666663</ele><time>2026-05-02T09:17:45Z</time></trkpt><trkpt lat="44.85775893187338" lon="7.304027718294632"><ele>385.0</ele><time>2026-05-02T09:17:47Z</time></trkpt><trkpt lat="44.85783178081992" lon="7.304007948449406"><ele>385.3333333333333</ele><time>2026-05-02T09:17:49Z</time></trkpt><trkpt lat="44.85789604710411" lon="7.30399028882184"><ele>385.66666666666663</ele><time>2026-05-02T09:17:51Z</time></trkpt><trkpt lat="44.85798311718069" lon="7.3039677502027365"><ele>386.0</ele><time>2026-05-02T09:17:54Z</time></trkpt><trkpt lat="44.858049670413514" lon="7.3039512654896726"><ele>386.00000000000006</ele><time>2026-05-02T09:17:56Z</time></trkpt><trkpt lat="44.858117372745795" lon="7.303937067097931"><ele>386.0</ele><time>2026-05-02T09:17:58Z</time></trkpt><trkpt lat="44.8581803441511" lon="7.3039140082180465"><ele>386.0</ele><time>2026-05-02T09:18:00Z</time></trkpt><trkpt lat="44.85825463880876" lon="7.3038868644781125"><ele>386.0</ele><time>2026-05-02T09:18:02Z</time></trkpt><trkpt lat="44.8583236923362" lon="7.303869369944868"><ele>386.0</ele><time>2026-05-02T09:18:04Z</time></trkpt><trkpt lat="44.85839048384829" lon="7.303851257431304"><ele>386.00000000000006</ele><time>2026-05-02T09:18:06Z</time></trkpt><trkpt lat="44.85845684455646" lon="7.30382981935246"><ele>386.0</ele><time>2026-05-02T09:18:08Z</time></trkpt><trkpt lat="44.85853279478879" lon="7.3038082454941655"><ele>386.8571428571429</ele><time>2026-05-02T09:18:10Z</time></trkpt><trkpt lat="44.85860364788748" lon="7.30378247301279"><ele>387.7142857142857</ele><time>2026-05-02T09:18:12Z</time></trkpt><trkpt lat="44.85867435627387" lon="7.30375764359112"><ele>388.57142857142856</ele><time>2026-05-02T09:18:14Z</time></trkpt><trkpt lat="44.8587468468608" lon="7.3037340251726945"><ele>389.42857142857144</ele><time>2026-05-02T09:18:16Z</time></trkpt><trkpt lat="44.8588166450455" lon="7.3037083158132265"><ele>390.2857142857143</ele><time>2026-05-02T09:18:18.001Z</time></trkpt><trkpt lat="44.85888770938354" lon="7.303678154556868"><ele>391.14285714285717</ele><time>2026-05-02T09:18:20.001Z</time></trkpt><trkpt lat="44.85896209547255" lon="7.30364709527076"><ele>392.0</ele><time>2026-05-02T09:18:22.001Z</time></trkpt><trkpt lat="44.859036614891465" lon="7.303612117250856"><ele>391.99999999999994</ele><time>2026-05-02T09:18:24.001Z</time></trkpt><trkpt lat="44.85911213870087" lon="7.303578851580606"><ele>392.0</ele><time>2026-05-02T09:18:26.001Z</time></trkpt><trkpt lat="44.859182801330064" lon="7.303544461328231"><ele>392.0</ele><time>2026-05-02T09:18:28.001Z</time></trkpt><trkpt lat="44.859252658730476" lon="7.303509395019262"><ele>392.0</ele><time>2026-05-02T09:18:30.001Z</time></trkpt><trkpt lat="44.85932440118067" lon="7.303471316166134"><ele>391.99999999999994</ele><time>2026-05-02T09:18:32.001Z</time></trkpt><trkpt lat="44.85939974327777" lon="7.303431065916188"><ele>392.0</ele><time>2026-05-02T09:18:34.001Z</time></trkpt><trkpt lat="44.85947498515262" lon="7.303396111342457"><ele>391.99999999999994</ele><time>2026-05-02T09:18:36.001Z</time></trkpt><trkpt lat="44.859552756306755" lon="7.303357954340138"><ele>392.0</ele><time>2026-05-02T09:18:38.001Z</time></trkpt><trkpt lat="44.859628840009364" lon="7.303320100209614"><ele>392.0</ele><time>2026-05-02T09:18:40.001Z</time></trkpt><trkpt lat="44.859705326796764" lon="7.303282964007128"><ele>392.0</ele><time>2026-05-02T09:18:42.001Z</time></trkpt><trkpt lat="44.859782835219846" lon="7.3032476228148715"><ele>391.99999999999994</ele><time>2026-05-02T09:18:44.001Z</time></trkpt><trkpt lat="44.85985865869271" lon="7.303208953579291"><ele>392.0</ele><time>2026-05-02T09:18:46.001Z</time></trkpt><trkpt lat="44.85992986649961" lon="7.303164575816437"><ele>391.99999999999994</ele><time>2026-05-02T09:18:48.001Z</time></trkpt><trkpt lat="44.85999594105528" lon="7.303125751492581"><ele>392.0</ele><time>2026-05-02T09:18:50.001Z</time></trkpt><trkpt lat="44.86006301716729" lon="7.303087148605433"><ele>392.0</ele><time>2026-05-02T09:18:52.001Z</time></trkpt><trkpt lat="44.86013244823376" lon="7.3030434169709535"><ele>392.0</ele><time>2026-05-02T09:18:54.001Z</time></trkpt><trkpt lat="44.86020200877815" lon="7.303000799506063"><ele>391.99999999999994</ele><time>2026-05-02T09:18:56.001Z</time></trkpt><trkpt lat="44.86027464956527" lon="7.302958280060904"><ele>392.0</ele><time>2026-05-02T09:18:58.001Z</time></trkpt><trkpt lat="44.86034518869074" lon="7.302910403455912"><ele>392.8333333333333</ele><time>2026-05-02T09:19:00.001Z</time></trkpt><trkpt lat="44.86041919749944" lon="7.302862090530337"><ele>393.66666666666663</ele><time>2026-05-02T09:19:02.001Z</time></trkpt><trkpt lat="44.86049405630483" lon="7.302814134128871"><ele>394.5</ele><time>2026-05-02T09:19:04.002Z</time></trkpt><trkpt lat="44.860567311319556" lon="7.302766709496407"><ele>395.33333333333337</ele><time>2026-05-02T09:19:06.002Z</time></trkpt><trkpt lat="44.86064035014972" lon="7.302718676408697"><ele>396.1666666666667</ele><time>2026-05-02T09:19:08.002Z</time></trkpt><trkpt lat="44.86071209430578" lon="7.302673267507885"><ele>397.0</ele><time>2026-05-02T09:19:10.002Z</time></trkpt><trkpt lat="44.860781464555146" lon="7.302625272217355"><ele>397.00000000000006</ele><time>2026-05-02T09:19:12.002Z</time></trkpt><trkpt lat="44.86085047975632" lon="7.302575330072572"><ele>397.0</ele><time>2026-05-02T09:19:14.002Z</time></trkpt><trkpt lat="44.86092082359071" lon="7.302522794578917"><ele>397.0</ele><time>2026-05-02T09:19:16.002Z</time></trkpt><trkpt lat="44.86099009456703" lon="7.302465962677027"><ele>397.0</ele><time>2026-05-02T09:19:18.002Z</time></trkpt><trkpt lat="44.861059382503754" lon="7.30241168488142"><ele>397.00000000000006</ele><time>2026-05-02T09:19:20.002Z</time></trkpt><trkpt lat="44.86113005826647" lon="7.302363295873707"><ele>397.0</ele><time>2026-05-02T09:19:22.002Z</time></trkpt><trkpt lat="44.86120072385734" lon="7.302318473565168"><ele>397.50000000000006</ele><time>2026-05-02T09:19:24.002Z</time></trkpt><trkpt lat="44.86127077070722" lon="7.302273805862298"><ele>398.0</ele><time>2026-05-02T09:19:26.002Z</time></trkpt><trkpt lat="44.861339945973974" lon="7.302229150762595"><ele>398.5</ele><time>2026-05-02T09:19:28.002Z</time></trkpt><trkpt lat="44.861411393706746" lon="7.302180091070065"><ele>399.0</ele><time>2026-05-02T09:19:30Z</time></trkpt><trkpt lat="44.86148234899821" lon="7.302133235872823"><ele>399.50000000000006</ele><time>2026-05-02T09:19:32Z</time></trkpt><trkpt lat="44.86155443704874" lon="7.302079822663494"><ele>400.0</ele><time>2026-05-02T09:19:34Z</time></trkpt><trkpt lat="44.861626386877866" lon="7.302026442164376"><ele>400.33333333333337</ele><time>2026-05-02T09:19:36Z</time></trkpt><trkpt lat="44.861695013137506" lon="7.301970708201223"><ele>400.6666666666667</ele><time>2026-05-02T09:19:38Z</time></trkpt><trkpt lat="44.861765675924026" lon="7.3019133138616015"><ele>401.0</ele><time>2026-05-02T09:19:40Z</time></trkpt><trkpt lat="44.86183359195079" lon="7.30185304147026"><ele>401.33333333333337</ele><time>2026-05-02T09:19:42Z</time></trkpt><trkpt lat="44.861899302165064" lon="7.301793181420534"><ele>401.6666666666667</ele><time>2026-05-02T09:19:44Z</time></trkpt><trkpt lat="44.861965688825386" lon="7.301736776138586"><ele>402.0</ele><time>2026-05-02T09:19:46Z</time></trkpt><trkpt lat="44.86202968881849" lon="7.301681891594635"><ele>402.1428571428571</ele><time>2026-05-02T09:19:48Z</time></trkpt><trkpt lat="44.8620899978367" lon="7.301629370317763"><ele>402.28571428571433</ele><time>2026-05-02T09:19:50Z</time></trkpt><trkpt lat="44.8621493426822" lon="7.301579080594951"><ele>402.42857142857144</ele><time>2026-05-02T09:19:52Z</time></trkpt><trkpt lat="44.862202350232884" lon="7.301530358204067"><ele>402.57142857142856</ele><time>2026-05-02T09:19:54Z</time></trkpt><trkpt lat="44.862258738754704" lon="7.3014829940751875"><ele>402.71428571428567</ele><time>2026-05-02T09:19:56Z</time></trkpt><trkpt lat="44.862330862112756" lon="7.3014327567391675"><ele>402.8571428571429</ele><time>2026-05-02T09:19:58Z</time></trkpt><trkpt lat="44.862395576735075" lon="7.301374125448347"><ele>403.0</ele><time>2026-05-02T09:20:00Z</time></trkpt><trkpt lat="44.86245654170841" lon="7.301323734798572"><ele>403.0</ele><time>2026-05-02T09:20:02Z</time></trkpt><trkpt lat="44.86251150641837" lon="7.3012664835483205"><ele>403.0</ele><time>2026-05-02T09:20:04Z</time></trkpt><trkpt lat="44.86257049474087" lon="7.301208224470234"><ele>403.0</ele><time>2026-05-02T09:20:06Z</time></trkpt><trkpt lat="44.86262453994037" lon="7.301146258815342"><ele>403.0</ele><time>2026-05-02T09:20:08Z</time></trkpt><trkpt lat="44.86268045594188" lon="7.301081896910567"><ele>403.0</ele><time>2026-05-02T09:20:10Z</time></trkpt><trkpt lat="44.862738382136754" lon="7.301019581409769"><ele>403.0</ele><time>2026-05-02T09:20:12Z</time></trkpt><trkpt lat="44.86279513256216" lon="7.300953644377517"><ele>403.0</ele><time>2026-05-02T09:20:14Z</time></trkpt><trkpt lat="44.86285117552024" lon="7.3008792631088815"><ele>403.00000000000006</ele><time>2026-05-02T09:20:16Z</time></trkpt><trkpt lat="44.862909627145335" lon="7.300799982473951"><ele>403.0</ele><time>2026-05-02T09:20:18Z</time></trkpt><trkpt lat="44.86297328108684" lon="7.300719942337299"><ele>403.0</ele><time>2026-05-02T09:20:20.001Z</time></trkpt><trkpt lat="44.863043719889006" lon="7.300641883334323"><ele>403.0</ele><time>2026-05-02T09:20:22.001Z</time></trkpt><trkpt lat="44.863114163445445" lon="7.300560961932186"><ele>403.00000000000006</ele><time>2026-05-02T09:20:24.001Z</time></trkpt><trkpt lat="44.86318455933791" lon="7.300478007209034"><ele>403.0</ele><time>2026-05-02T09:20:26.001Z</time></trkpt><trkpt lat="44.863256260045446" lon="7.300396111624465"><ele>403.1666666666667</ele><time>2026-05-02T09:20:28.001Z</time></trkpt><trkpt lat="44.86332420269195" lon="7.300318130532676"><ele>403.33333333333337</ele><time>2026-05-02T09:20:30.001Z</time></trkpt><trkpt lat="44.86339349025229" lon="7.3002450982789835"><ele>403.5</ele><time>2026-05-02T09:20:32.001Z</time></trkpt><trkpt lat="44.863462913034226" lon="7.300172293106873"><ele>403.66666666666663</ele><time>2026-05-02T09:20:34.001Z</time></trkpt><trkpt lat="44.86353646661256" lon="7.3001149313410085"><ele>403.8333333333333</ele><time>2026-05-02T09:20:36.001Z</time></trkpt><trkpt lat="44.863620168678516" lon="7.30013589740478"><ele>404.0</ele><time>2026-05-02T09:20:38.001Z</time></trkpt><trkpt lat="44.86368646136382" lon="7.30020228468911"><ele>404.66666666666663</ele><time>2026-05-02T09:20:40.001Z</time></trkpt><trkpt lat="44.86375351635335" lon="7.300257312515299"><ele>405.3333333333333</ele><time>2026-05-02T09:20:42.001Z</time></trkpt><trkpt lat="44.863820366505465" lon="7.300306454835978"><ele>406.0</ele><time>2026-05-02T09:20:44.001Z</time></trkpt><trkpt lat="44.86388607710667" lon="7.300351439743368"><ele>406.66666666666663</ele><time>2026-05-02T09:20:46.001Z</time></trkpt><trkpt lat="44.86395238402134" lon="7.300404664594813"><ele>407.3333333333333</ele><time>2026-05-02T09:20:48.001Z</time></trkpt><trkpt lat="44.86402272412794" lon="7.300459693099297"><ele>408.0</ele><time>2026-05-02T09:20:50.001Z</time></trkpt><trkpt lat="44.86409243662114" lon="7.300512954361351"><ele>408.0</ele><time>2026-05-02T09:20:52.001Z</time></trkpt><trkpt lat="44.86416435611073" lon="7.30057148129693"><ele>408.0</ele><time>2026-05-02T09:20:54.001Z</time></trkpt><trkpt lat="44.86423552418598" lon="7.300623392957362"><ele>408.0</ele><time>2026-05-02T09:20:56.001Z</time></trkpt><trkpt lat="44.86430636538196" lon="7.300672997272106"><ele>408.0</ele><time>2026-05-02T09:20:58.001Z</time></trkpt><trkpt lat="44.86437531528707" lon="7.300724837835756"><ele>408.0</ele><time>2026-05-02T09:21:00.001Z</time></trkpt><trkpt lat="44.864443108452214" lon="7.300772232826792"><ele>408.0</ele><time>2026-05-02T09:21:02.001Z</time></trkpt><trkpt lat="44.86451418929823" lon="7.300804291455845"><ele>408.42857142857144</ele><time>2026-05-02T09:21:04.001Z</time></trkpt><trkpt lat="44.86458586239308" lon="7.300832510932247"><ele>408.8571428571429</ele><time>2026-05-02T09:21:06.002Z</time></trkpt><trkpt lat="44.86465625161606" lon="7.300861623637634"><ele>409.2857142857143</ele><time>2026-05-02T09:21:08.002Z</time></trkpt><trkpt lat="44.86472421820402" lon="7.300885845714544"><ele>409.7142857142857</ele><time>2026-05-02T09:21:10.002Z</time></trkpt><trkpt lat="44.864787091097774" lon="7.300909471461619"><ele>410.1428571428571</ele><time>2026-05-02T09:21:12.002Z</time></trkpt><trkpt lat="44.86485107111353" lon="7.300903533352172"><ele>410.57142857142856</ele><time>2026-05-02T09:21:14.002Z</time></trkpt><trkpt lat="44.864940726043564" lon="7.300928405782648"><ele>411.0</ele><time>2026-05-02T09:21:17.002Z</time></trkpt><trkpt lat="44.86503485262207" lon="7.300818517891907"><ele>411.0</ele><time>2026-05-02T09:21:20.002Z</time></trkpt><trkpt lat="44.865085790922436" lon="7.300711147099174"><ele>411.0</ele><time>2026-05-02T09:21:23.002Z</time></trkpt><trkpt lat="44.86514422649732" lon="7.300613512455015"><ele>411.0</ele><time>2026-05-02T09:21:26.002Z</time></trkpt><trkpt lat="44.865184851652224" lon="7.300515982916417"><ele>411.0</ele><time>2026-05-02T09:21:29.002Z</time></trkpt><trkpt lat="44.86526922246873" lon="7.300455827790384"><ele>411.0</ele><time>2026-05-02T09:21:31.002Z</time></trkpt><trkpt lat="44.865330015316744" lon="7.300342582215844"><ele>411.5</ele><time>2026-05-02T09:21:33.002Z</time></trkpt><trkpt lat="44.86538441778528" lon="7.3002650184074795"><ele>412.0</ele><time>2026-05-02T09:21:35.002Z</time></trkpt><trkpt lat="44.865424738734305" lon="7.300193232655219"><ele>412.5</ele><time>2026-05-02T09:21:37Z</time></trkpt><trkpt lat="44.86546508332758" lon="7.3001158300875"><ele>413.0</ele><time>2026-05-02T09:21:39Z</time></trkpt><trkpt lat="44.86552810581959" lon="7.300015629069888"><ele>413.5</ele><time>2026-05-02T09:21:42Z</time></trkpt><trkpt lat="44.865597740287534" lon="7.299980177745188"><ele>414.0</ele><time>2026-05-02T09:21:44Z</time></trkpt><trkpt lat="44.86566655219682" lon="7.299936902937447"><ele>414.0</ele><time>2026-05-02T09:21:46Z</time></trkpt><trkpt lat="44.86572516007952" lon="7.299861266716963"><ele>414.0</ele><time>2026-05-02T09:21:48Z</time></trkpt><trkpt lat="44.86578222635142" lon="7.299782332806505"><ele>414.0</ele><time>2026-05-02T09:21:50Z</time></trkpt><trkpt lat="44.86583664571055" lon="7.299709518698842"><ele>414.0</ele><time>2026-05-02T09:21:52Z</time></trkpt><trkpt lat="44.865910768956866" lon="7.299683006405087"><ele>414.0</ele><time>2026-05-02T09:21:54Z</time></trkpt><trkpt lat="44.8659825724735" lon="7.299662328206997"><ele>414.0</ele><time>2026-05-02T09:21:56Z</time></trkpt><trkpt lat="44.86605851711778" lon="7.299647128566186"><ele>414.6666666666667</ele><time>2026-05-02T09:21:58Z</time></trkpt><trkpt lat="44.866136836238425" lon="7.299628040921134"><ele>415.33333333333337</ele><time>2026-05-02T09:22:00Z</time></trkpt><trkpt lat="44.86621339864672" lon="7.299637701198649"><ele>416.0</ele><time>2026-05-02T09:22:02Z</time></trkpt><trkpt lat="44.86628913595551" lon="7.299665124688267"><ele>416.6666666666667</ele><time>2026-05-02T09:22:04Z</time></trkpt><trkpt lat="44.866365264414476" lon="7.2996956238938235"><ele>417.33333333333337</ele><time>2026-05-02T09:22:06Z</time></trkpt><trkpt lat="44.866443310776084" lon="7.299742508807563"><ele>418.0</ele><time>2026-05-02T09:22:08Z</time></trkpt><trkpt lat="44.86650847547485" lon="7.299806482747726"><ele>418.00000000000006</ele><time>2026-05-02T09:22:10Z</time></trkpt><trkpt lat="44.86657630153532" lon="7.299878257299109"><ele>418.0</ele><time>2026-05-02T09:22:12Z</time></trkpt><trkpt lat="44.86663173516245" lon="7.299957148789678"><ele>418.0</ele><time>2026-05-02T09:22:14Z</time></trkpt><trkpt lat="44.86667161782384" lon="7.300060735453963"><ele>418.0</ele><time>2026-05-02T09:22:16Z</time></trkpt><trkpt lat="44.86670870554188" lon="7.300144245780694"><ele>418.00000000000006</ele><time>2026-05-02T09:22:18Z</time></trkpt><trkpt lat="44.866749143104364" lon="7.300234541249214"><ele>418.0</ele><time>2026-05-02T09:22:20.001Z</time></trkpt><trkpt lat="44.86678961717188" lon="7.300326091931467"><ele>418.33333333333337</ele><time>2026-05-02T09:22:22.001Z</time></trkpt><trkpt lat="44.866842107260865" lon="7.300415164193643"><ele>418.6666666666667</ele><time>2026-05-02T09:22:24.001Z</time></trkpt><trkpt lat="44.86691293651114" lon="7.300472393658134"><ele>419.0</ele><time>2026-05-02T09:22:26.001Z</time></trkpt><trkpt lat="44.86699051023159" lon="7.300532568928839"><ele>419.33333333333337</ele><time>2026-05-02T09:22:28.001Z</time></trkpt><trkpt lat="44.86707046440477" lon="7.300600276771662"><ele>419.6666666666667</ele><time>2026-05-02T09:22:30.001Z</time></trkpt><trkpt lat="44.86715248119168" lon="7.300669911243548"><ele>420.0</ele><time>2026-05-02T09:22:32.001Z</time></trkpt><trkpt lat="44.86723197570438" lon="7.3007402613398495"><ele>420.0</ele><time>2026-05-02T09:22:34.001Z</time></trkpt><trkpt lat="44.867310708147265" lon="7.300808181583671"><ele>420.0</ele><time>2026-05-02T09:22:36.001Z</time></trkpt><trkpt lat="44.86738273288097" lon="7.300870374385693"><ele>420.0</ele><time>2026-05-02T09:22:38.001Z</time></trkpt><trkpt lat="44.86747604956832" lon="7.300892283172584"><ele>420.0</ele><time>2026-05-02T09:22:40.001Z</time></trkpt><trkpt lat="44.86756085521063" lon="7.300928623617784"><ele>420.0</ele><time>2026-05-02T09:22:42.001Z</time></trkpt><trkpt lat="44.86763800774472" lon="7.300994346779932"><ele>419.8333333333333</ele><time>2026-05-02T09:22:44.001Z</time></trkpt><trkpt lat="44.86770610557938" lon="7.3010720682110675"><ele>419.66666666666663</ele><time>2026-05-02T09:22:46.001Z</time></trkpt><trkpt lat="44.86777291686855" lon="7.3011382152403055"><ele>419.5</ele><time>2026-05-02T09:22:48.001Z</time></trkpt><trkpt lat="44.867836032000355" lon="7.301217081222804"><ele>419.3333333333333</ele><time>2026-05-02T09:22:51.001Z</time></trkpt><trkpt lat="44.86789036891922" lon="7.301278623814076"><ele>419.16666666666663</ele><time>2026-05-02T09:22:54.001Z</time></trkpt><trkpt lat="44.867961812589016" lon="7.30130610492153"><ele>419.0</ele><time>2026-05-02T09:22:59.001Z</time></trkpt><trkpt lat="44.867939573519095" lon="7.301402550075921"><ele>418.99999999999994</ele><time>2026-05-02T09:23:25.002Z</time></trkpt><trkpt lat="44.86801748124674" lon="7.3014144864837345"><ele>419.0</ele><time>2026-05-02T09:23:26.002Z</time></trkpt><trkpt lat="44.86802211881541" lon="7.301520798350446"><ele>419.0</ele><time>2026-05-02T09:23:28.002Z</time></trkpt><trkpt lat="44.86810395211432" lon="7.301594436852637"><ele>419.0</ele><time>2026-05-02T09:23:31.002Z</time></trkpt><trkpt lat="44.86816023293071" lon="7.301667824754663"><ele>418.99999999999994</ele><time>2026-05-02T09:23:33.002Z</time></trkpt><trkpt lat="44.86821970071731" lon="7.3017347691297845"><ele>419.0</ele><time>2026-05-02T09:23:35.002Z</time></trkpt><trkpt lat="44.86828587498829" lon="7.301794845181971"><ele>418.66666666666663</ele><time>2026-05-02T09:23:37.002Z</time></trkpt><trkpt lat="44.868356628880875" lon="7.3018514918629975"><ele>418.3333333333333</ele><time>2026-05-02T09:23:39.002Z</time></trkpt><trkpt lat="44.86844298184376" lon="7.3019062648000705"><ele>418.0</ele><time>2026-05-02T09:23:41.002Z</time></trkpt><trkpt lat="44.868556674708" lon="7.301941093343268"><ele>417.66666666666663</ele><time>2026-05-02T09:23:43Z</time></trkpt><trkpt lat="44.86862302826759" lon="7.30194358313415"><ele>417.3333333333333</ele><time>2026-05-02T09:23:44Z</time></trkpt><trkpt lat="44.868693673124554" lon="7.301930882340331"><ele>417.0</ele><time>2026-05-02T09:23:45Z</time></trkpt><trkpt lat="44.86876673560671" lon="7.301906798346308"><ele>415.6666666666667</ele><time>2026-05-02T09:23:46Z</time></trkpt><trkpt lat="44.86884223731713" lon="7.301866767337629"><ele>414.33333333333337</ele><time>2026-05-02T09:23:47Z</time></trkpt><trkpt lat="44.8689165016501" lon="7.301809467536987"><ele>413.0</ele><time>2026-05-02T09:23:48Z</time></trkpt><trkpt lat="44.86899258523437" lon="7.301745510214443"><ele>411.6666666666667</ele><time>2026-05-02T09:23:49Z</time></trkpt><trkpt lat="44.86907367983528" lon="7.301680892806089"><ele>410.33333333333337</ele><time>2026-05-02T09:23:50Z</time></trkpt><trkpt lat="44.869157233787845" lon="7.301613651811198"><ele>409.0</ele><time>2026-05-02T09:23:51Z</time></trkpt><trkpt lat="44.86923562380402" lon="7.30154735264245"><ele>409.79999999999995</ele><time>2026-05-02T09:23:52Z</time></trkpt><trkpt lat="44.869315658556914" lon="7.3014829049180445"><ele>410.59999999999997</ele><time>2026-05-02T09:23:53Z</time></trkpt><trkpt lat="44.86939717332773" lon="7.301420302422934"><ele>411.4</ele><time>2026-05-02T09:23:54Z</time></trkpt><trkpt lat="44.86947837447218" lon="7.3013625472518315"><ele>412.2</ele><time>2026-05-02T09:23:55Z</time></trkpt><trkpt lat="44.869568757017426" lon="7.301308403139844"><ele>413.0</ele><time>2026-05-02T09:23:56Z</time></trkpt><trkpt lat="44.869657307560445" lon="7.301268803977785"><ele>413.0</ele><time>2026-05-02T09:23:57Z</time></trkpt><trkpt lat="44.86974721456543" lon="7.301241651213455"><ele>413.0</ele><time>2026-05-02T09:23:58Z</time></trkpt><trkpt lat="44.869842992956535" lon="7.301217229637452"><ele>413.0</ele><time>2026-05-02T09:23:59Z</time></trkpt><trkpt lat="44.86994424961785" lon="7.301204718802464"><ele>413.0</ele><time>2026-05-02T09:24:00Z</time></trkpt><trkpt lat="44.87004626228606" lon="7.301200721906681"><ele>413.0</ele><time>2026-05-02T09:24:01Z</time></trkpt><trkpt lat="44.870150211232854" lon="7.3011972835430425"><ele>410.8333333333333</ele><time>2026-05-02T09:24:02Z</time></trkpt><trkpt lat="44.87025589303277" lon="7.301193875672799"><ele>408.66666666666663</ele><time>2026-05-02T09:24:03Z</time></trkpt><trkpt lat="44.870359795281026" lon="7.301191708759477"><ele>406.5</ele><time>2026-05-02T09:24:04Z</time></trkpt><trkpt lat="44.870447951528654" lon="7.301196409526198"><ele>404.33333333333337</ele><time>2026-05-02T09:24:05Z</time></trkpt><trkpt lat="44.87052416959197" lon="7.301207522807994"><ele>402.1666666666667</ele><time>2026-05-02T09:24:06Z</time></trkpt><trkpt lat="44.87059270870362" lon="7.301248712766782"><ele>400.0</ele><time>2026-05-02T09:24:07Z</time></trkpt><trkpt lat="44.87065495042425" lon="7.301312314604825"><ele>400.00000000000006</ele><time>2026-05-02T09:24:08Z</time></trkpt><trkpt lat="44.87070376520101" lon="7.301406169813147"><ele>400.0</ele><time>2026-05-02T09:24:09Z</time></trkpt><trkpt lat="44.87073843127333" lon="7.301512812360625"><ele>400.0</ele><time>2026-05-02T09:24:10Z</time></trkpt><trkpt lat="44.87077485117881" lon="7.301621872546757"><ele>400.0</ele><time>2026-05-02T09:24:11Z</time></trkpt><trkpt lat="44.87080915258572" lon="7.301741771859653"><ele>400.00000000000006</ele><time>2026-05-02T09:24:12Z</time></trkpt><trkpt lat="44.87084357775159" lon="7.301866604784691"><ele>400.0</ele><time>2026-05-02T09:24:13Z</time></trkpt><trkpt lat="44.87088396186226" lon="7.301989938659124"><ele>399.00000000000006</ele><time>2026-05-02T09:24:14Z</time></trkpt><trkpt lat="44.87092464010626" lon="7.302111785621031"><ele>398.0</ele><time>2026-05-02T09:24:15Z</time></trkpt><trkpt lat="44.87095689841272" lon="7.302231720221666"><ele>397.0</ele><time>2026-05-02T09:24:16Z</time></trkpt><trkpt lat="44.87098957660202" lon="7.3023511800803815"><ele>396.0</ele><time>2026-05-02T09:24:17Z</time></trkpt><trkpt lat="44.87101466041874" lon="7.302463283681576"><ele>395.00000000000006</ele><time>2026-05-02T09:24:18Z</time></trkpt><trkpt lat="44.8710452727204" lon="7.302580093614173"><ele>394.0</ele><time>2026-05-02T09:24:19Z</time></trkpt><trkpt lat="44.871074955840974" lon="7.30269345859417"><ele>393.00000000000006</ele><time>2026-05-02T09:24:20Z</time></trkpt><trkpt lat="44.871100311556575" lon="7.302805899170816"><ele>392.0</ele><time>2026-05-02T09:24:21.001Z</time></trkpt><trkpt lat="44.87113013530216" lon="7.302913888754925"><ele>391.0</ele><time>2026-05-02T09:24:22.001Z</time></trkpt><trkpt lat="44.87115736323512" lon="7.303022589785684"><ele>390.0</ele><time>2026-05-02T09:24:23.001Z</time></trkpt><trkpt lat="44.87118212312459" lon="7.303129692554792"><ele>389.00000000000006</ele><time>2026-05-02T09:24:24.001Z</time></trkpt><trkpt lat="44.87121098944705" lon="7.303231322101943"><ele>388.0</ele><time>2026-05-02T09:24:25.001Z</time></trkpt><trkpt lat="44.87124003938333" lon="7.303330748463179"><ele>388.0</ele><time>2026-05-02T09:24:26.001Z</time></trkpt><trkpt lat="44.871267212311416" lon="7.3034277903031315"><ele>388.0</ele><time>2026-05-02T09:24:27.001Z</time></trkpt><trkpt lat="44.871301004743245" lon="7.30351809368266"><ele>388.0</ele><time>2026-05-02T09:24:28.001Z</time></trkpt><trkpt lat="44.87134288719833" lon="7.303595720053146"><ele>388.0</ele><time>2026-05-02T09:24:29.001Z</time></trkpt><trkpt lat="44.87138963532271" lon="7.303665953753085"><ele>388.0</ele><time>2026-05-02T09:24:30.001Z</time></trkpt><trkpt lat="44.87144798386496" lon="7.303720945454157"><ele>388.0</ele><time>2026-05-02T09:24:31.001Z</time></trkpt><trkpt lat="44.87151668144795" lon="7.303763677502999"><ele>388.0</ele><time>2026-05-02T09:24:32.001Z</time></trkpt><trkpt lat="44.87158594846745" lon="7.303797696112803"><ele>388.00000000000006</ele><time>2026-05-02T09:24:33.001Z</time></trkpt><trkpt lat="44.871652994364624" lon="7.303834958793212"><ele>388.0</ele><time>2026-05-02T09:24:34.001Z</time></trkpt><trkpt lat="44.871723244248926" lon="7.303884197100498"><ele>388.0</ele><time>2026-05-02T09:24:35.001Z</time></trkpt><trkpt lat="44.87179084701594" lon="7.303938293377492"><ele>388.0</ele><time>2026-05-02T09:24:36.001Z</time></trkpt><trkpt lat="44.87185610619171" lon="7.304003696628179"><ele>388.00000000000006</ele><time>2026-05-02T09:24:37.001Z</time></trkpt><trkpt lat="44.87191140868676" lon="7.304079599606803"><ele>388.0</ele><time>2026-05-02T09:24:38.001Z</time></trkpt><trkpt lat="44.87196033443149" lon="7.304165317494117"><ele>387.85714285714283</ele><time>2026-05-02T09:24:39.001Z</time></trkpt><trkpt lat="44.872009139458" lon="7.304251657544088"><ele>387.7142857142857</ele><time>2026-05-02T09:24:40.001Z</time></trkpt><trkpt lat="44.8720533657345" lon="7.304341064022409"><ele>387.57142857142856</ele><time>2026-05-02T09:24:41.001Z</time></trkpt><trkpt lat="44.872093116735826" lon="7.30443191688595"><ele>387.42857142857144</ele><time>2026-05-02T09:24:42.001Z</time></trkpt><trkpt lat="44.87212601633142" lon="7.304524560815677"><ele>387.28571428571433</ele><time>2026-05-02T09:24:43.001Z</time></trkpt><trkpt lat="44.87215628361417" lon="7.304615858316162"><ele>387.14285714285717</ele><time>2026-05-02T09:24:44.001Z</time></trkpt><trkpt lat="44.87218909677424" lon="7.30470643092341"><ele>387.0</ele><time>2026-05-02T09:24:45.001Z</time></trkpt><trkpt lat="44.872221067207114" lon="7.304796525063735"><ele>386.7142857142857</ele><time>2026-05-02T09:24:46.001Z</time></trkpt><trkpt lat="44.872254393627486" lon="7.304890448017438"><ele>386.42857142857144</ele><time>2026-05-02T09:24:47.001Z</time></trkpt><trkpt lat="44.87228249428733" lon="7.304974446345108"><ele>386.1428571428571</ele><time>2026-05-02T09:24:48.001Z</time></trkpt><trkpt lat="44.87230844454323" lon="7.305066087163092"><ele>385.8571428571429</ele><time>2026-05-02T09:24:49.001Z</time></trkpt><trkpt lat="44.87233412364326" lon="7.305155856943016"><ele>385.57142857142856</ele><time>2026-05-02T09:24:50.001Z</time></trkpt><trkpt lat="44.87235723936541" lon="7.305247000607755"><ele>385.2857142857143</ele><time>2026-05-02T09:24:51.001Z</time></trkpt><trkpt lat="44.8723833842155" lon="7.305344816264903"><ele>385.0</ele><time>2026-05-02T09:24:52.001Z</time></trkpt><trkpt lat="44.8724086260067" lon="7.305440291801677"><ele>385.0</ele><time>2026-05-02T09:24:53.001Z</time></trkpt><trkpt lat="44.87243554769959" lon="7.305538193466602"><ele>385.0</ele><time>2026-05-02T09:24:54.001Z</time></trkpt><trkpt lat="44.87245459224833" lon="7.3056406136985546"><ele>385.0</ele><time>2026-05-02T09:24:55.001Z</time></trkpt><trkpt lat="44.87247362856461" lon="7.305736917951531"><ele>385.0</ele><time>2026-05-02T09:24:56.001Z</time></trkpt><trkpt lat="44.87250219494928" lon="7.305833847080917"><ele>385.0</ele><time>2026-05-02T09:24:57.001Z</time></trkpt><trkpt lat="44.87253565091556" lon="7.305925487002702"><ele>385.0</ele><time>2026-05-02T09:24:58.001Z</time></trkpt><trkpt lat="44.872578075086665" lon="7.306010626190014"><ele>385.0</ele><time>2026-05-02T09:24:59.001Z</time></trkpt><trkpt lat="44.87262761004915" lon="7.306080534757435"><ele>384.85714285714283</ele><time>2026-05-02T09:25:00.001Z</time></trkpt><trkpt lat="44.872688189526315" lon="7.3061298107601"><ele>384.7142857142857</ele><time>2026-05-02T09:25:01.001Z</time></trkpt><trkpt lat="44.87274958406327" lon="7.3061829463849595"><ele>384.57142857142856</ele><time>2026-05-02T09:25:02.001Z</time></trkpt><trkpt lat="44.872814061163474" lon="7.3062320697685985"><ele>384.42857142857144</ele><time>2026-05-02T09:25:03.001Z</time></trkpt><trkpt lat="44.872876309796304" lon="7.306274621772252"><ele>384.2857142857143</ele><time>2026-05-02T09:25:04.001Z</time></trkpt><trkpt lat="44.87294562834922" lon="7.30631098570328"><ele>384.1428571428571</ele><time>2026-05-02T09:25:05.001Z</time></trkpt><trkpt lat="44.87301399724192" lon="7.30634784647306"><ele>384.0</ele><time>2026-05-02T09:25:06.002Z</time></trkpt><trkpt lat="44.87308386717335" lon="7.30638257631483"><ele>383.99999999999994</ele><time>2026-05-02T09:25:07.002Z</time></trkpt><trkpt lat="44.87315648638964" lon="7.306410123357845"><ele>384.0</ele><time>2026-05-02T09:25:08.002Z</time></trkpt><trkpt lat="44.873224924285665" lon="7.306435966237068"><ele>384.0</ele><time>2026-05-02T09:25:09.002Z</time></trkpt><trkpt lat="44.87329346156204" lon="7.306444865844881"><ele>384.0</ele><time>2026-05-02T09:25:10.002Z</time></trkpt><trkpt lat="44.873359769641255" lon="7.306455605625951"><ele>384.0</ele><time>2026-05-02T09:25:11.002Z</time></trkpt><trkpt lat="44.873422880142" lon="7.306472251974429"><ele>383.99999999999994</ele><time>2026-05-02T09:25:12.002Z</time></trkpt><trkpt lat="44.8734873231105" lon="7.3064926632100775"><ele>384.0</ele><time>2026-05-02T09:25:13.002Z</time></trkpt><trkpt lat="44.8735468262702" lon="7.306522215787114"><ele>384.25</ele><time>2026-05-02T09:25:14.002Z</time></trkpt><trkpt lat="44.87365138061352" lon="7.306616016621482"><ele>384.5</ele><time>2026-05-02T09:25:16.002Z</time></trkpt><trkpt lat="44.87374507868357" lon="7.306719973831296"><ele>384.75</ele><time>2026-05-02T09:25:18.002Z</time></trkpt><trkpt lat="44.87380846143525" lon="7.30691669297566"><ele>385.0</ele><time>2026-05-02T09:25:20.002Z</time></trkpt><trkpt lat="44.87385058449274" lon="7.3069893511936685"><ele>385.0</ele><time>2026-05-02T09:25:21.002Z</time></trkpt><trkpt lat="44.873845658008236" lon="7.307099866707604"><ele>385.0</ele><time>2026-05-02T09:25:22.002Z</time></trkpt><trkpt lat="44.87386052932964" lon="7.307193268811915"><ele>385.0</ele><time>2026-05-02T09:25:23.002Z</time></trkpt><trkpt lat="44.87386833059054" lon="7.307289638345846"><ele>385.0</ele><time>2026-05-02T09:25:24.002Z</time></trkpt><trkpt lat="44.87387657582589" lon="7.307384837779836"><ele>385.0</ele><time>2026-05-02T09:25:25.002Z</time></trkpt><trkpt lat="44.87388246888125" lon="7.307479370259138"><ele>385.0</ele><time>2026-05-02T09:25:26.002Z</time></trkpt><trkpt lat="44.87389102913125" lon="7.307571940811026"><ele>385.0</ele><time>2026-05-02T09:25:27.002Z</time></trkpt><trkpt lat="44.87390051632339" lon="7.307665744952562"><ele>385.00000000000006</ele><time>2026-05-02T09:25:28.002Z</time></trkpt><trkpt lat="44.87390868125716" lon="7.30775869263735"><ele>385.0</ele><time>2026-05-02T09:25:29.002Z</time></trkpt><trkpt lat="44.873928707576425" lon="7.307932169227691"><ele>385.0</ele><time>2026-05-02T09:25:31.002Z</time></trkpt><trkpt lat="44.873938689291435" lon="7.308020043247401"><ele>385.0</ele><time>2026-05-02T09:25:32.002Z</time></trkpt><trkpt lat="44.87394659515509" lon="7.308109813665774"><ele>385.00000000000006</ele><time>2026-05-02T09:25:33.002Z</time></trkpt><trkpt lat="44.873957844268176" lon="7.308283705169"><ele>385.0</ele><time>2026-05-02T09:25:35.002Z</time></trkpt><trkpt lat="44.873987301999136" lon="7.308450398256518"><ele>385.00000000000006</ele><time>2026-05-02T09:25:37.002Z</time></trkpt><trkpt lat="44.874011128144794" lon="7.308533110606497"><ele>385.0</ele><time>2026-05-02T09:25:38.002Z</time></trkpt><trkpt lat="44.874035556437796" lon="7.308615040200041"><ele>385.0</ele><time>2026-05-02T09:25:39.002Z</time></trkpt><trkpt lat="44.87408486489765" lon="7.3087861707772985"><ele>385.0</ele><time>2026-05-02T09:25:41.002Z</time></trkpt><trkpt lat="44.87411350727952" lon="7.308873071652847"><ele>385.00000000000006</ele><time>2026-05-02T09:25:42.002Z</time></trkpt><trkpt lat="44.87413762536154" lon="7.308969080711869"><ele>385.0</ele><time>2026-05-02T09:25:43.002Z</time></trkpt><trkpt lat="44.8741675652544" lon="7.309065055958622"><ele>385.0</ele><time>2026-05-02T09:25:44.002Z</time></trkpt><trkpt lat="44.87419580565122" lon="7.309159885005526"><ele>385.0</ele><time>2026-05-02T09:25:45.002Z</time></trkpt><trkpt lat="44.874224247720015" lon="7.309253315127184"><ele>385.0</ele><time>2026-05-02T09:25:46.002Z</time></trkpt><trkpt lat="44.874253209625024" lon="7.309342563503286"><ele>385.0</ele><time>2026-05-02T09:25:47.002Z</time></trkpt><trkpt lat="44.874281048684516" lon="7.309430428515345"><ele>385.0</ele><time>2026-05-02T09:25:48Z</time></trkpt><trkpt lat="44.87431785334424" lon="7.309512397484501"><ele>385.0</ele><time>2026-05-02T09:25:49Z</time></trkpt><trkpt lat="44.874351495177116" lon="7.309591330264145"><ele>385.0</ele><time>2026-05-02T09:25:50Z</time></trkpt><trkpt lat="44.874385165505636" lon="7.309669543273565"><ele>384.0</ele><time>2026-05-02T09:25:51Z</time></trkpt><trkpt lat="44.87441728165479" lon="7.309746616909933"><ele>383.0</ele><time>2026-05-02T09:25:52Z</time></trkpt><trkpt lat="44.87447482001619" lon="7.309873367883315"><ele>382.0</ele><time>2026-05-02T09:25:54Z</time></trkpt><trkpt lat="44.87452357675759" lon="7.309992503265437"><ele>381.0</ele><time>2026-05-02T09:25:56Z</time></trkpt><trkpt lat="44.874575520872284" lon="7.3100984431920155"><ele>380.0</ele><time>2026-05-02T09:25:58Z</time></trkpt><trkpt lat="44.87463302604857" lon="7.310201758038659"><ele>380.0</ele><time>2026-05-02T09:26:00Z</time></trkpt><trkpt lat="44.874695185730566" lon="7.310308037892669"><ele>380.0</ele><time>2026-05-02T09:26:02Z</time></trkpt><trkpt lat="44.87475541822397" lon="7.310411994358435"><ele>380.0</ele><time>2026-05-02T09:26:04Z</time></trkpt><trkpt lat="44.87482286986863" lon="7.3105113078585235"><ele>380.0</ele><time>2026-05-02T09:26:06Z</time></trkpt><trkpt lat="44.874890463564554" lon="7.310612782301369"><ele>380.0</ele><time>2026-05-02T09:26:08Z</time></trkpt><trkpt lat="44.87496254550813" lon="7.310710640894097"><ele>379.8</ele><time>2026-05-02T09:26:10Z</time></trkpt><trkpt lat="44.87503410278413" lon="7.3108070187397765"><ele>379.6</ele><time>2026-05-02T09:26:12Z</time></trkpt><trkpt lat="44.875107174799794" lon="7.310898408827556"><ele>379.4</ele><time>2026-05-02T09:26:14Z</time></trkpt><trkpt lat="44.87518117041194" lon="7.310986678426328"><ele>379.2</ele><time>2026-05-02T09:26:16Z</time></trkpt><trkpt lat="44.8752587065348" lon="7.311077449717033"><ele>379.0</ele><time>2026-05-02T09:26:18Z</time></trkpt><trkpt lat="44.875338107778305" lon="7.3111614316037805"><ele>379.25</ele><time>2026-05-02T09:26:20Z</time></trkpt><trkpt lat="44.875422741600346" lon="7.31124205819264"><ele>379.5</ele><time>2026-05-02T09:26:22Z</time></trkpt><trkpt lat="44.875514681008994" lon="7.311325679089593"><ele>379.75</ele><time>2026-05-02T09:26:24Z</time></trkpt><trkpt lat="44.875614681693364" lon="7.311411082643535"><ele>380.0</ele><time>2026-05-02T09:26:26Z</time></trkpt><trkpt lat="44.87572153915601" lon="7.31150116529811"><ele>380.0</ele><time>2026-05-02T09:26:28Z</time></trkpt><trkpt lat="44.87583031072857" lon="7.31158867827492"><ele>380.0</ele><time>2026-05-02T09:26:30.001Z</time></trkpt><trkpt lat="44.87588776535733" lon="7.311629689102863"><ele>380.0</ele><time>2026-05-02T09:26:31.001Z</time></trkpt><trkpt lat="44.87594419668303" lon="7.311671229806978"><ele>380.0</ele><time>2026-05-02T09:26:32.001Z</time></trkpt><trkpt lat="44.87600104638671" lon="7.31171516848127"><ele>380.0</ele><time>2026-05-02T09:26:33.001Z</time></trkpt><trkpt lat="44.876110618867315" lon="7.311802481338998"><ele>380.0</ele><time>2026-05-02T09:26:35.001Z</time></trkpt><trkpt lat="44.87621626751131" lon="7.311885190040934"><ele>380.5</ele><time>2026-05-02T09:26:37.001Z</time></trkpt><trkpt lat="44.876316971629954" lon="7.311967759783861"><ele>381.0</ele><time>2026-05-02T09:26:39.001Z</time></trkpt><trkpt lat="44.87641080749403" lon="7.312057038655852"><ele>381.5</ele><time>2026-05-02T09:26:41.001Z</time></trkpt><trkpt lat="44.87650676790024" lon="7.312149327431307"><ele>382.0</ele><time>2026-05-02T09:26:43.001Z</time></trkpt><trkpt lat="44.87660535984883" lon="7.312240585243352"><ele>382.20000000000005</ele><time>2026-05-02T09:26:45.001Z</time></trkpt><trkpt lat="44.876699279806225" lon="7.312336262026291"><ele>382.4</ele><time>2026-05-02T09:26:47.001Z</time></trkpt><trkpt lat="44.876789868062346" lon="7.312424435818885"><ele>382.6</ele><time>2026-05-02T09:26:49.001Z</time></trkpt><trkpt lat="44.87687388328078" lon="7.312512089775089"><ele>382.79999999999995</ele><time>2026-05-02T09:26:51.001Z</time></trkpt><trkpt lat="44.876949546834744" lon="7.312603081289711"><ele>383.0</ele><time>2026-05-02T09:26:53.001Z</time></trkpt><trkpt lat="44.87702747557671" lon="7.3126866885725965"><ele>383.2</ele><time>2026-05-02T09:26:55.001Z</time></trkpt><trkpt lat="44.877108688667704" lon="7.312763380969397"><ele>383.4</ele><time>2026-05-02T09:26:57.001Z</time></trkpt><trkpt lat="44.877190762123234" lon="7.312840730045614"><ele>383.59999999999997</ele><time>2026-05-02T09:26:59.001Z</time></trkpt><trkpt lat="44.87726970515636" lon="7.31291338617307"><ele>383.79999999999995</ele><time>2026-05-02T09:27:01.001Z</time></trkpt><trkpt lat="44.87734956854819" lon="7.31298258297202"><ele>384.0</ele><time>2026-05-02T09:27:03.001Z</time></trkpt><trkpt lat="44.87743432341329" lon="7.313036793464806"><ele>384.0</ele><time>2026-05-02T09:27:05.001Z</time></trkpt><trkpt lat="44.87752528654625" lon="7.313075040263099"><ele>384.0</ele><time>2026-05-02T09:27:07.001Z</time></trkpt><trkpt lat="44.87761665637435" lon="7.313108357581996"><ele>384.0</ele><time>2026-05-02T09:27:09.001Z</time></trkpt><trkpt lat="44.87771182442278" lon="7.313138165824936"><ele>384.0</ele><time>2026-05-02T09:27:11.001Z</time></trkpt><trkpt lat="44.87780525636802" lon="7.313165325521458"><ele>384.0</ele><time>2026-05-02T09:27:13.002Z</time></trkpt><trkpt lat="44.87782820120383" lon="7.313255607013739"><ele>384.0</ele><time>2026-05-02T09:27:14.002Z</time></trkpt><trkpt lat="44.87789340513267" lon="7.313194445886939"><ele>384.0</ele><time>2026-05-02T09:27:15.002Z</time></trkpt><trkpt lat="44.877965616570116" lon="7.3132219910959435"><ele>384.0</ele><time>2026-05-02T09:27:17.002Z</time></trkpt><trkpt lat="44.87802707535224" lon="7.31324478766254"><ele>384.0</ele><time>2026-05-02T09:27:19.002Z</time></trkpt><trkpt lat="44.8780921743135" lon="7.313270759690337"><ele>384.0</ele><time>2026-05-02T09:27:21.002Z</time></trkpt><trkpt lat="44.87814361118042" lon="7.313383337757598"><ele>384.0</ele><time>2026-05-02T09:27:23.002Z</time></trkpt><trkpt lat="44.87822892213927" lon="7.313314815811471"><ele>383.99999999999994</ele><time>2026-05-02T09:27:25.002Z</time></trkpt><trkpt lat="44.8782975610255" lon="7.3133361485040425"><ele>384.0</ele><time>2026-05-02T09:27:27.002Z</time></trkpt><trkpt lat="44.87836726233631" lon="7.313355206913788"><ele>384.0</ele><time>2026-05-02T09:27:29.002Z</time></trkpt><trkpt lat="44.87843991703617" lon="7.313380005552186"><ele>384.0</ele><time>2026-05-02T09:27:31.002Z</time></trkpt><trkpt lat="44.87851227765505" lon="7.313402795173937"><ele>384.0</ele><time>2026-05-02T09:27:33.002Z</time></trkpt><trkpt lat="44.87858386519618" lon="7.313431862222526"><ele>383.99999999999994</ele><time>2026-05-02T09:27:35.002Z</time></trkpt><trkpt lat="44.87865491636118" lon="7.313461937195964"><ele>384.0</ele><time>2026-05-02T09:27:37.002Z</time></trkpt><trkpt lat="44.87871943239935" lon="7.313489561120858"><ele>384.1666666666667</ele><time>2026-05-02T09:27:39.002Z</time></trkpt><trkpt lat="44.878787853420036" lon="7.31352291317581"><ele>384.33333333333337</ele><time>2026-05-02T09:27:41.002Z</time></trkpt><trkpt lat="44.878862642365924" lon="7.313562081362236"><ele>384.5</ele><time>2026-05-02T09:27:43.002Z</time></trkpt><trkpt lat="44.8789357732145" lon="7.313606764902952"><ele>384.6666666666667</ele><time>2026-05-02T09:27:45.002Z</time></trkpt><trkpt lat="44.879008956396156" lon="7.313650732966064"><ele>384.83333333333337</ele><time>2026-05-02T09:27:47.002Z</time></trkpt><trkpt lat="44.87908144286838" lon="7.3137020261522805"><ele>385.0</ele><time>2026-05-02T09:27:49.002Z</time></trkpt><trkpt lat="44.87915073170421" lon="7.313753725788276"><ele>385.0</ele><time>2026-05-02T09:27:51.002Z</time></trkpt><trkpt lat="44.87922049151341" lon="7.3138092276323174"><ele>385.0</ele><time>2026-05-02T09:27:53.002Z</time></trkpt><trkpt lat="44.87929734988068" lon="7.31387078296862"><ele>385.0</ele><time>2026-05-02T09:27:55Z</time></trkpt><trkpt lat="44.879381501666934" lon="7.313939526573812"><ele>385.0</ele><time>2026-05-02T09:27:57Z</time></trkpt><trkpt lat="44.87946765506242" lon="7.314009846152057"><ele>385.0</ele><time>2026-05-02T09:27:59Z</time></trkpt><trkpt lat="44.87955976040654" lon="7.31408522064225"><ele>385.0</ele><time>2026-05-02T09:28:01Z</time></trkpt><trkpt lat="44.879660535088945" lon="7.314163249341583"><ele>385.0</ele><time>2026-05-02T09:28:03Z</time></trkpt><trkpt lat="44.879765867508844" lon="7.314246189194874"><ele>385.0</ele><time>2026-05-02T09:28:05Z</time></trkpt><trkpt lat="44.87987638426343" lon="7.314331985149089"><ele>385.0</ele><time>2026-05-02T09:28:07Z</time></trkpt><trkpt lat="44.87997754161634" lon="7.3144138664503044"><ele>385.0</ele><time>2026-05-02T09:28:09Z</time></trkpt><trkpt lat="44.88008526804726" lon="7.314495855563513"><ele>385.0</ele><time>2026-05-02T09:28:11Z</time></trkpt><trkpt lat="44.88017621346064" lon="7.314555861568791"><ele>385.0</ele><time>2026-05-02T09:28:13Z</time></trkpt><trkpt lat="44.88024373749299" lon="7.314612771569054"><ele>385.0</ele><time>2026-05-02T09:28:15Z</time></trkpt><trkpt lat="44.880250580846074" lon="7.314741474232805"><ele>385.0</ele><time>2026-05-02T09:28:17Z</time></trkpt><trkpt lat="44.88028549226158" lon="7.314888248181485"><ele>385.0</ele><time>2026-05-02T09:28:19Z</time></trkpt><trkpt lat="44.88037102654463" lon="7.314980731523798"><ele>385.0</ele><time>2026-05-02T09:28:21Z</time></trkpt><trkpt lat="44.88047810639621" lon="7.315001438965334"><ele>385.0</ele><time>2026-05-02T09:28:23Z</time></trkpt><trkpt lat="44.88059026541602" lon="7.315020369457978"><ele>385.0</ele><time>2026-05-02T09:28:25Z</time></trkpt><trkpt lat="44.88064101060019" lon="7.315128904264494"><ele>385.0</ele><time>2026-05-02T09:28:26Z</time></trkpt><trkpt lat="44.88069385160651" lon="7.315182070880087"><ele>385.00000000000006</ele><time>2026-05-02T09:28:27Z</time></trkpt><trkpt lat="44.88074776536469" lon="7.315228725894927"><ele>385.0</ele><time>2026-05-02T09:28:28Z</time></trkpt><trkpt lat="44.880805472910865" lon="7.315271700175693"><ele>385.0</ele><time>2026-05-02T09:28:29Z</time></trkpt><trkpt lat="44.88086206762106" lon="7.31531181222652"><ele>385.0</ele><time>2026-05-02T09:28:30Z</time></trkpt><trkpt lat="44.880919932444456" lon="7.3153483936732275"><ele>385.00000000000006</ele><time>2026-05-02T09:28:31Z</time></trkpt><trkpt lat="44.881030835090705" lon="7.315421322294215"><ele>385.0</ele><time>2026-05-02T09:28:33Z</time></trkpt><trkpt lat="44.88113942447072" lon="7.315493374794454"><ele>384.83333333333337</ele><time>2026-05-02T09:28:35Z</time></trkpt><trkpt lat="44.88124604991321" lon="7.315563970285957"><ele>384.6666666666667</ele><time>2026-05-02T09:28:37.001Z</time></trkpt><trkpt lat="44.88135748917662" lon="7.315639929807062"><ele>384.5</ele><time>2026-05-02T09:28:39.001Z</time></trkpt><trkpt lat="44.881414241047494" lon="7.3156842095006835"><ele>384.33333333333337</ele><time>2026-05-02T09:28:40.001Z</time></trkpt><trkpt lat="44.88147141370975" lon="7.315731386226519"><ele>384.1666666666667</ele><time>2026-05-02T09:28:41.001Z</time></trkpt><trkpt lat="44.881526249361556" lon="7.315780019442955"><ele>384.0</ele><time>2026-05-02T09:28:42.001Z</time></trkpt><trkpt lat="44.88157960168857" lon="7.315827920126839"><ele>383.75</ele><time>2026-05-02T09:28:43.001Z</time></trkpt><trkpt lat="44.881683072675685" lon="7.315925864046049"><ele>383.5</ele><time>2026-05-02T09:28:45.001Z</time></trkpt><trkpt lat="44.881784900481456" lon="7.316022367381463"><ele>383.25</ele><time>2026-05-02T09:28:47.001Z</time></trkpt><trkpt lat="44.88188590743214" lon="7.316115117075304"><ele>383.0</ele><time>2026-05-02T09:28:49.001Z</time></trkpt><trkpt lat="44.88198427324599" lon="7.316205741790482"><ele>382.79999999999995</ele><time>2026-05-02T09:28:51.001Z</time></trkpt><trkpt lat="44.88207676567028" lon="7.3162944628998465"><ele>382.6</ele><time>2026-05-02T09:28:53.001Z</time></trkpt><trkpt lat="44.882160614953705" lon="7.316376444364496"><ele>382.4</ele><time>2026-05-02T09:28:55.001Z</time></trkpt><trkpt lat="44.88224495312983" lon="7.3164619858757565"><ele>382.20000000000005</ele><time>2026-05-02T09:28:57.001Z</time></trkpt><trkpt lat="44.882318025320195" lon="7.3165453272634196"><ele>382.0</ele><time>2026-05-02T09:28:59.001Z</time></trkpt><trkpt lat="44.88235207210746" lon="7.316641545203775"><ele>382.0</ele><time>2026-05-02T09:29:00.001Z</time></trkpt><trkpt lat="44.88244420715824" lon="7.31671322238754"><ele>382.0</ele><time>2026-05-02T09:29:02.001Z</time></trkpt><trkpt lat="44.88255363267777" lon="7.3166769064027655"><ele>382.0</ele><time>2026-05-02T09:29:04.001Z</time></trkpt><trkpt lat="44.882607739489735" lon="7.316780735976523"><ele>382.0</ele><time>2026-05-02T09:29:05.001Z</time></trkpt><trkpt lat="44.88270798613176" lon="7.316881340908071"><ele>382.0</ele><time>2026-05-02T09:29:07.001Z</time></trkpt><trkpt lat="44.882805314914826" lon="7.316974944993311"><ele>382.25</ele><time>2026-05-02T09:29:09.001Z</time></trkpt><trkpt lat="44.88290279208689" lon="7.317065045067196"><ele>382.5</ele><time>2026-05-02T09:29:11.001Z</time></trkpt><trkpt lat="44.88300141897314" lon="7.317155552741238"><ele>382.75</ele><time>2026-05-02T09:29:13.001Z</time></trkpt><trkpt lat="44.88309635439024" lon="7.317244192118993"><ele>383.0</ele><time>2026-05-02T09:29:15.001Z</time></trkpt><trkpt lat="44.88319423123426" lon="7.317335433707424"><ele>383.0</ele><time>2026-05-02T09:29:17.001Z</time></trkpt><trkpt lat="44.88329159954825" lon="7.31742889531479"><ele>383.0</ele><time>2026-05-02T09:29:19.002Z</time></trkpt><trkpt lat="44.883392285226584" lon="7.317520386958365"><ele>383.0</ele><time>2026-05-02T09:29:21.002Z</time></trkpt><trkpt lat="44.88349784285113" lon="7.317618530817111"><ele>383.0</ele><time>2026-05-02T09:29:23.002Z</time></trkpt><trkpt lat="44.883600682113006" lon="7.317713993135962"><ele>383.0</ele><time>2026-05-02T09:29:25.002Z</time></trkpt><trkpt lat="44.88365405403313" lon="7.317763215480933"><ele>383.0</ele><time>2026-05-02T09:29:26.002Z</time></trkpt><trkpt lat="44.883707893120146" lon="7.317813584299265"><ele>383.0</ele><time>2026-05-02T09:29:27.002Z</time></trkpt><trkpt lat="44.88376218032775" lon="7.3178646007356125"><ele>383.0</ele><time>2026-05-02T09:29:28.002Z</time></trkpt><trkpt lat="44.88381658661179" lon="7.317912735280877"><ele>383.0</ele><time>2026-05-02T09:29:29.002Z</time></trkpt><trkpt lat="44.883869633224826" lon="7.317962025772171"><ele>383.0</ele><time>2026-05-02T09:29:30.002Z</time></trkpt><trkpt lat="44.88397080417152" lon="7.318055737360769"><ele>383.0</ele><time>2026-05-02T09:29:32.002Z</time></trkpt><trkpt lat="44.88406552692239" lon="7.318144644756667"><ele>382.79999999999995</ele><time>2026-05-02T09:29:34.002Z</time></trkpt><trkpt lat="44.884153132301165" lon="7.318225649896461"><ele>382.6</ele><time>2026-05-02T09:29:36.002Z</time></trkpt><trkpt lat="44.884246735678765" lon="7.318308592473309"><ele>382.4</ele><time>2026-05-02T09:29:38.002Z</time></trkpt><trkpt lat="44.884341340064836" lon="7.318402246992"><ele>382.20000000000005</ele><time>2026-05-02T09:29:40.002Z</time></trkpt><trkpt lat="44.88443430324418" lon="7.318485872898924"><ele>382.0</ele><time>2026-05-02T09:29:42.002Z</time></trkpt><trkpt lat="44.88452242630777" lon="7.318565339724918"><ele>382.40000000000003</ele><time>2026-05-02T09:29:44.002Z</time></trkpt><trkpt lat="44.884626608741854" lon="7.318617810996439"><ele>382.8</ele><time>2026-05-02T09:29:46.002Z</time></trkpt><trkpt lat="44.88474010087289" lon="7.318662809009743"><ele>383.2</ele><time>2026-05-02T09:29:48.002Z</time></trkpt><trkpt lat="44.88485992425474" lon="7.31867009311254"><ele>383.6</ele><time>2026-05-02T09:29:50.002Z</time></trkpt><trkpt lat="44.88492536657267" lon="7.318669824899234"><ele>384.0</ele><time>2026-05-02T09:29:51.002Z</time></trkpt><trkpt lat="44.88499286113715" lon="7.318671939221109"><ele>384.0</ele><time>2026-05-02T09:29:52.002Z</time></trkpt><trkpt lat="44.885056801415" lon="7.318676412430836"><ele>384.0</ele><time>2026-05-02T09:29:53.002Z</time></trkpt><trkpt lat="44.88517409867502" lon="7.318681105622192"><ele>384.0</ele><time>2026-05-02T09:29:55.002Z</time></trkpt><trkpt lat="44.88528855674793" lon="7.3186918086413195"><ele>384.0</ele><time>2026-05-02T09:29:57.002Z</time></trkpt><trkpt lat="44.88538921225817" lon="7.318695468320612"><ele>384.0</ele><time>2026-05-02T09:29:59.002Z</time></trkpt><trkpt lat="44.88546777311003" lon="7.318690471723927"><ele>384.2</ele><time>2026-05-02T09:30:01Z</time></trkpt><trkpt lat="44.8854718194379" lon="7.31889355324254"><ele>384.4</ele><time>2026-05-02T09:30:05Z</time></trkpt><trkpt lat="44.88547755481361" lon="7.319014201438982"><ele>384.6</ele><time>2026-05-02T09:30:07Z</time></trkpt><trkpt lat="44.885478438205354" lon="7.319132213819376"><ele>384.8</ele><time>2026-05-02T09:30:09Z</time></trkpt><trkpt lat="44.885480114073964" lon="7.319260266369158"><ele>385.0</ele><time>2026-05-02T09:30:11Z</time></trkpt><trkpt lat="44.88547974037887" lon="7.319393075758792"><ele>385.50000000000006</ele><time>2026-05-02T09:30:13Z</time></trkpt><trkpt lat="44.885477221790865" lon="7.3195264506685795"><ele>386.0</ele><time>2026-05-02T09:30:15Z</time></trkpt><trkpt lat="44.885475252115654" lon="7.319657061286978"><ele>386.5</ele><time>2026-05-02T09:30:17Z</time></trkpt><trkpt lat="44.88547358659361" lon="7.319781764624844"><ele>387.0</ele><time>2026-05-02T09:30:19Z</time></trkpt><trkpt lat="44.88547657893558" lon="7.3198805106533005"><ele>387.50000000000006</ele><time>2026-05-02T09:31:18.001Z</time></trkpt><trkpt lat="44.885463515674616" lon="7.319977271834287"><ele>388.0</ele><time>2026-05-02T09:31:22.001Z</time></trkpt><trkpt lat="44.88546131827083" lon="7.320073333049545"><ele>388.1666666666667</ele><time>2026-05-02T09:31:24.001Z</time></trkpt><trkpt lat="44.885455699191404" lon="7.320179265228288"><ele>388.33333333333337</ele><time>2026-05-02T09:31:26.002Z</time></trkpt><trkpt lat="44.88545478857967" lon="7.32028270920625"><ele>388.5</ele><time>2026-05-02T09:31:28.002Z</time></trkpt><trkpt lat="44.88546126801637" lon="7.32039982223397"><ele>388.66666666666663</ele><time>2026-05-02T09:31:30.002Z</time></trkpt><trkpt lat="44.88545716023295" lon="7.320539255166618"><ele>388.8333333333333</ele><time>2026-05-02T09:31:32.002Z</time></trkpt><trkpt lat="44.88545212155443" lon="7.32067201263498"><ele>389.0</ele><time>2026-05-02T09:31:34.002Z</time></trkpt><trkpt lat="44.885448622721036" lon="7.320800967238408"><ele>388.4</ele><time>2026-05-02T09:31:36.002Z</time></trkpt><trkpt lat="44.88544432111494" lon="7.32093790103235"><ele>387.79999999999995</ele><time>2026-05-02T09:31:38.002Z</time></trkpt><trkpt lat="44.88544531420425" lon="7.32107449893578"><ele>387.20000000000005</ele><time>2026-05-02T09:31:40.002Z</time></trkpt><trkpt lat="44.88544435627903" lon="7.321203831459805"><ele>386.6</ele><time>2026-05-02T09:31:42.002Z</time></trkpt><trkpt lat="44.88543297880023" lon="7.321331986213281"><ele>386.0</ele><time>2026-05-02T09:31:44.002Z</time></trkpt><trkpt lat="44.88542714488647" lon="7.32145130119247"><ele>385.8</ele><time>2026-05-02T09:31:46.002Z</time></trkpt><trkpt lat="44.885422427615" lon="7.321569480292652"><ele>385.6</ele><time>2026-05-02T09:31:48.002Z</time></trkpt><trkpt lat="44.885420396244974" lon="7.321689750775259"><ele>385.4</ele><time>2026-05-02T09:31:51.002Z</time></trkpt><trkpt lat="44.88541731807538" lon="7.321822591394516"><ele>385.2</ele><time>2026-05-02T09:31:53.002Z</time></trkpt><trkpt lat="44.885413788299935" lon="7.321974921326495"><ele>385.0</ele><time>2026-05-02T09:31:55.002Z</time></trkpt><trkpt lat="44.88541060408363" lon="7.322112338439703"><ele>385.2</ele><time>2026-05-02T09:31:57.002Z</time></trkpt><trkpt lat="44.88540745149423" lon="7.322248390889222"><ele>385.4</ele><time>2026-05-02T09:31:59.002Z</time></trkpt><trkpt lat="44.88540427121355" lon="7.322385638701521"><ele>385.6</ele><time>2026-05-02T09:32:01.002Z</time></trkpt><trkpt lat="44.88540138129445" lon="7.322516910673814"><ele>385.8</ele><time>2026-05-02T09:32:03.002Z</time></trkpt><trkpt lat="44.88539841864291" lon="7.322651495390842"><ele>386.0</ele><time>2026-05-02T09:32:05.002Z</time></trkpt><trkpt lat="44.88539544175853" lon="7.322786726997963"><ele>386.0</ele><time>2026-05-02T09:32:07Z</time></trkpt><trkpt lat="44.8853922835324" lon="7.322930196040313"><ele>386.0</ele><time>2026-05-02T09:32:09Z</time></trkpt><trkpt lat="44.885389292986396" lon="7.3230660478030005"><ele>386.0</ele><time>2026-05-02T09:32:11Z</time></trkpt><trkpt lat="44.88538639367035" lon="7.323197755397571"><ele>386.0</ele><time>2026-05-02T09:32:13Z</time></trkpt><trkpt lat="44.88538382263906" lon="7.3233167317283705"><ele>386.0</ele><time>2026-05-02T09:32:15Z</time></trkpt><trkpt lat="44.88538118747712" lon="7.323447062448695"><ele>386.0</ele><time>2026-05-02T09:32:17Z</time></trkpt><trkpt lat="44.88537811851459" lon="7.323579306900469"><ele>386.0</ele><time>2026-05-02T09:32:19Z</time></trkpt><trkpt lat="44.88537372122859" lon="7.323709535172939"><ele>386.0</ele><time>2026-05-02T09:32:21Z</time></trkpt><trkpt lat="44.885366653086685" lon="7.323850328409246"><ele>386.0</ele><time>2026-05-02T09:32:23Z</time></trkpt><trkpt lat="44.885355603401635" lon="7.323996702329107"><ele>386.0</ele><time>2026-05-02T09:32:25Z</time></trkpt><trkpt lat="44.8853441164019" lon="7.324143151026292"><ele>386.20000000000005</ele><time>2026-05-02T09:32:27Z</time></trkpt><trkpt lat="44.88533048278835" lon="7.3242967027948405"><ele>386.40000000000003</ele><time>2026-05-02T09:32:29Z</time></trkpt><trkpt lat="44.885314123549165" lon="7.324439474743337"><ele>386.6</ele><time>2026-05-02T09:32:31Z</time></trkpt><trkpt lat="44.88529681653893" lon="7.324578043570918"><ele>386.8</ele><time>2026-05-02T09:32:33Z</time></trkpt><trkpt lat="44.88527782316253" lon="7.3247204938687664"><ele>387.0</ele><time>2026-05-02T09:32:35Z</time></trkpt><trkpt lat="44.88525802108217" lon="7.324858706447166"><ele>387.0</ele><time>2026-05-02T09:32:37Z</time></trkpt><trkpt lat="44.88523792055937" lon="7.324998015575214"><ele>387.0</ele><time>2026-05-02T09:32:39Z</time></trkpt><trkpt lat="44.88521952758752" lon="7.325130040232057"><ele>387.0</ele><time>2026-05-02T09:32:41Z</time></trkpt><trkpt lat="44.885202470096935" lon="7.325253493800444"><ele>387.0</ele><time>2026-05-02T09:32:43.001Z</time></trkpt><trkpt lat="44.88518402592837" lon="7.325386983584843"><ele>387.0</ele><time>2026-05-02T09:32:45.001Z</time></trkpt><trkpt lat="44.88516765388508" lon="7.32550547618587"><ele>387.0</ele><time>2026-05-02T09:32:47.001Z</time></trkpt><trkpt lat="44.885150629340295" lon="7.325628691388514"><ele>387.0</ele><time>2026-05-02T09:32:49.001Z</time></trkpt><trkpt lat="44.88513506613175" lon="7.325741330882872"><ele>387.0</ele><time>2026-05-02T09:32:51.001Z</time></trkpt><trkpt lat="44.88512029775071" lon="7.325848220928731"><ele>387.0</ele><time>2026-05-02T09:32:53.001Z</time></trkpt><trkpt lat="44.88510496346241" lon="7.325955746130187"><ele>387.0</ele><time>2026-05-02T09:32:55.001Z</time></trkpt><trkpt lat="44.88509231498391" lon="7.326045980671817"><ele>387.0</ele><time>2026-05-02T09:32:58.001Z</time></trkpt><trkpt lat="44.8850749136353" lon="7.326168269673765"><ele>386.3333333333333</ele><time>2026-05-02T09:33:07.001Z</time></trkpt><trkpt lat="44.88505820334168" lon="7.326285412380218"><ele>385.6666666666667</ele><time>2026-05-02T09:33:10.001Z</time></trkpt><trkpt lat="44.88504257807584" lon="7.326395535452666"><ele>385.0</ele><time>2026-05-02T09:33:12.001Z</time></trkpt><trkpt lat="44.88502711313521" lon="7.326505759314409"><ele>384.33333333333337</ele><time>2026-05-02T09:33:14.001Z</time></trkpt><trkpt lat="44.88501128269487" lon="7.326618588094401"><ele>383.6666666666667</ele><time>2026-05-02T09:33:16.001Z</time></trkpt><trkpt lat="44.88499234589927" lon="7.3267535569144675"><ele>383.0</ele><time>2026-05-02T09:33:18.001Z</time></trkpt><trkpt lat="44.884973594368034" lon="7.3268854524307825"><ele>383.0</ele><time>2026-05-02T09:33:20.001Z</time></trkpt><trkpt lat="44.88495291178384" lon="7.327030900258228"><ele>383.0</ele><time>2026-05-02T09:33:22.001Z</time></trkpt><trkpt lat="44.88493273977973" lon="7.327172757095615"><ele>383.0</ele><time>2026-05-02T09:33:24.001Z</time></trkpt><trkpt lat="44.88491274338335" lon="7.327313379165262"><ele>383.0</ele><time>2026-05-02T09:33:26.002Z</time></trkpt><trkpt lat="44.88489293536176" lon="7.327452676597767"><ele>383.0</ele><time>2026-05-02T09:33:28.002Z</time></trkpt><trkpt lat="44.884872637844865" lon="7.32759648021336"><ele>383.2</ele><time>2026-05-02T09:33:30.002Z</time></trkpt><trkpt lat="44.88485233080344" lon="7.327741917715358"><ele>383.4</ele><time>2026-05-02T09:33:32.002Z</time></trkpt><trkpt lat="44.88483415490436" lon="7.327871941143274"><ele>383.59999999999997</ele><time>2026-05-02T09:33:34.002Z</time></trkpt><trkpt lat="44.88481598485565" lon="7.327999326998024"><ele>383.79999999999995</ele><time>2026-05-02T09:33:36.002Z</time></trkpt><trkpt lat="44.884795549108716" lon="7.328142597265794"><ele>384.0</ele><time>2026-05-02T09:33:38.002Z</time></trkpt><trkpt lat="44.884776940208816" lon="7.328273059897325"><ele>384.0</ele><time>2026-05-02T09:33:40.002Z</time></trkpt><trkpt lat="44.884763219092214" lon="7.328369255542921"><ele>384.0</ele><time>2026-05-02T09:33:42.002Z</time></trkpt><trkpt lat="44.88475038820941" lon="7.328459558111868"><ele>384.0</ele><time>2026-05-02T09:33:44.002Z</time></trkpt><trkpt lat="44.88478701835364" lon="7.3285376672540705"><ele>384.0</ele><time>2026-05-02T09:33:49.002Z</time></trkpt><trkpt lat="44.8847660626309" lon="7.328658586295319"><ele>384.0</ele><time>2026-05-02T09:33:51.002Z</time></trkpt><trkpt lat="44.88475252827919" lon="7.32876686449787"><ele>384.0</ele><time>2026-05-02T09:33:53.002Z</time></trkpt><trkpt lat="44.88473381718363" lon="7.328884133738397"><ele>383.8333333333333</ele><time>2026-05-02T09:33:55.002Z</time></trkpt><trkpt lat="44.884715377397015" lon="7.329009368475163"><ele>383.6666666666667</ele><time>2026-05-02T09:33:57.002Z</time></trkpt><trkpt lat="44.88469811113204" lon="7.329127640698822"><ele>383.5</ele><time>2026-05-02T09:33:59.002Z</time></trkpt><trkpt lat="44.88468107744923" lon="7.329244319755632"><ele>383.33333333333337</ele><time>2026-05-02T09:34:01.002Z</time></trkpt><trkpt lat="44.8846634252011" lon="7.329365236787914"><ele>383.1666666666667</ele><time>2026-05-02T09:34:03.002Z</time></trkpt><trkpt lat="44.88464324163936" lon="7.32949669697855"><ele>383.0</ele><time>2026-05-02T09:34:05.002Z</time></trkpt><trkpt lat="44.884622288719804" lon="7.329634232453215"><ele>382.75</ele><time>2026-05-02T09:34:07.003Z</time></trkpt><trkpt lat="44.88459961581568" lon="7.329783058482235"><ele>382.5</ele><time>2026-05-02T09:34:09.003Z</time></trkpt><trkpt lat="44.884575938018806" lon="7.329938484737354"><ele>382.25</ele><time>2026-05-02T09:34:11.003Z</time></trkpt><trkpt lat="44.884641996988364" lon="7.330123486491477"><ele>382.0</ele><time>2026-05-02T09:34:13Z</time></trkpt><trkpt lat="44.88462504356154" lon="7.330259487639633"><ele>382.0</ele><time>2026-05-02T09:34:15Z</time></trkpt><trkpt lat="44.88462939177206" lon="7.33037810152327"><ele>382.0</ele><time>2026-05-02T09:34:17Z</time></trkpt><trkpt lat="44.88452444270726" lon="7.3304454037685955"><ele>382.0</ele><time>2026-05-02T09:34:18Z</time></trkpt><trkpt lat="44.88453317713436" lon="7.330564125965828"><ele>382.0</ele><time>2026-05-02T09:34:20Z</time></trkpt><trkpt lat="44.88454499653887" lon="7.330654649899026"><ele>382.0</ele><time>2026-05-02T09:34:22Z</time></trkpt><trkpt lat="44.884566504744484" lon="7.330760950786232"><ele>382.0</ele><time>2026-05-02T09:34:24Z</time></trkpt><trkpt lat="44.88459360145464" lon="7.330877611296389"><ele>381.5</ele><time>2026-05-02T09:34:27Z</time></trkpt><trkpt lat="44.88461546954385" lon="7.330971763797693"><ele>381.0</ele><time>2026-05-02T09:34:29Z</time></trkpt><trkpt lat="44.88464884197103" lon="7.3310906685811625"><ele>380.5</ele><time>2026-05-02T09:34:31Z</time></trkpt><trkpt lat="44.884679430117345" lon="7.3311987808754875"><ele>380.0</ele><time>2026-05-02T09:34:33Z</time></trkpt><trkpt lat="44.88471075005218" lon="7.331309479635017"><ele>379.5</ele><time>2026-05-02T09:34:35Z</time></trkpt><trkpt lat="44.88474319909511" lon="7.331424169201616"><ele>379.0</ele><time>2026-05-02T09:34:37Z</time></trkpt><trkpt lat="44.8849934735825" lon="7.331414794531249"><ele>379.0</ele><time>2026-05-02T09:34:39Z</time></trkpt><trkpt lat="44.885023534411246" lon="7.331525315845696"><ele>379.0</ele><time>2026-05-02T09:34:41Z</time></trkpt><trkpt lat="44.885054378305455" lon="7.331627427334104"><ele>379.0</ele><time>2026-05-02T09:34:43Z</time></trkpt><trkpt lat="44.8850853792937" lon="7.33172327560413"><ele>379.0</ele><time>2026-05-02T09:34:45Z</time></trkpt><trkpt lat="44.88511125387347" lon="7.331818228212629"><ele>379.0</ele><time>2026-05-02T09:34:47Z</time></trkpt><trkpt lat="44.88513284274203" lon="7.331907648120587"><ele>379.0</ele><time>2026-05-02T09:34:49.001Z</time></trkpt><trkpt lat="44.88520914192216" lon="7.331904176687053"><ele>379.0</ele><time>2026-05-02T09:34:50.001Z</time></trkpt><trkpt lat="44.88517711800841" lon="7.33205795958518"><ele>379.0</ele><time>2026-05-02T09:34:53.001Z</time></trkpt><trkpt lat="44.88519932132673" lon="7.332146506858649"><ele>379.0</ele><time>2026-05-02T09:34:55.001Z</time></trkpt><trkpt lat="44.88524424499469" lon="7.3322394165806655"><ele>379.0</ele><time>2026-05-02T09:34:57.001Z</time></trkpt><trkpt lat="44.885248357032616" lon="7.332340921960914"><ele>379.0</ele><time>2026-05-02T09:34:59.001Z</time></trkpt><trkpt lat="44.88525289093254" lon="7.332452840960409"><ele>379.0</ele><time>2026-05-02T09:35:01.001Z</time></trkpt><trkpt lat="44.88514991529087" lon="7.332508869595985"><ele>379.0</ele><time>2026-05-02T09:35:02.001Z</time></trkpt><trkpt lat="44.8850876283323" lon="7.332640446907101"><ele>379.0</ele><time>2026-05-02T09:35:08.001Z</time></trkpt><trkpt lat="44.88511478964578" lon="7.332739192546556"><ele>379.0</ele><time>2026-05-02T09:35:22.001Z</time></trkpt><trkpt lat="44.88514074778133" lon="7.332833564086567"><ele>379.0</ele><time>2026-05-02T09:35:24.002Z</time></trkpt><trkpt lat="44.88516767830442" lon="7.332931470722015"><ele>379.0</ele><time>2026-05-02T09:35:27.001Z</time></trkpt><trkpt lat="44.8851941846778" lon="7.333027835269795"><ele>379.0</ele><time>2026-05-02T09:35:30.002Z</time></trkpt><trkpt lat="44.88521829134107" lon="7.333115475691919"><ele>378.3333333333333</ele><time>2026-05-02T09:35:32.002Z</time></trkpt><trkpt lat="44.885242806359095" lon="7.333204602902273"><ele>377.66666666666663</ele><time>2026-05-02T09:35:34.002Z</time></trkpt><trkpt lat="44.88526853978807" lon="7.333298160273393"><ele>377.0</ele><time>2026-05-02T09:35:36.002Z</time></trkpt><trkpt lat="44.88529499486399" lon="7.333395322208562"><ele>376.3333333333333</ele><time>2026-05-02T09:35:38.002Z</time></trkpt><trkpt lat="44.88532520382807" lon="7.333505566522129"><ele>375.6666666666667</ele><time>2026-05-02T09:35:40.002Z</time></trkpt><trkpt lat="44.88535693952839" lon="7.333621382907116"><ele>375.0</ele><time>2026-05-02T09:35:42.002Z</time></trkpt><trkpt lat="44.88538196951204" lon="7.333712729657615"><ele>375.0</ele><time>2026-05-02T09:35:44.002Z</time></trkpt><trkpt lat="44.88540833945967" lon="7.333803285799403"><ele>375.0</ele><time>2026-05-02T09:35:46.002Z</time></trkpt><trkpt lat="44.885440377676616" lon="7.333916803510325"><ele>375.0</ele><time>2026-05-02T09:35:48.002Z</time></trkpt><trkpt lat="44.88547460645869" lon="7.334038084971168"><ele>375.0</ele><time>2026-05-02T09:35:50.002Z</time></trkpt><trkpt lat="44.885505875215046" lon="7.334150625292076"><ele>375.0</ele><time>2026-05-02T09:35:52.002Z</time></trkpt><trkpt lat="44.885529449218765" lon="7.334234973956839"><ele>375.0</ele><time>2026-05-02T09:35:54.002Z</time></trkpt><trkpt lat="44.88555977179864" lon="7.334343469410061"><ele>375.0</ele><time>2026-05-02T09:35:56.002Z</time></trkpt><trkpt lat="44.885590909221" lon="7.334454883091108"><ele>375.0</ele><time>2026-05-02T09:35:58.002Z</time></trkpt><trkpt lat="44.88562039906363" lon="7.334559114503006"><ele>375.0</ele><time>2026-05-02T09:36:00.002Z</time></trkpt><trkpt lat="44.88564444872583" lon="7.334644600528493"><ele>375.0</ele><time>2026-05-02T09:36:03.002Z</time></trkpt><trkpt lat="44.88567450277308" lon="7.3347514294174205"><ele>375.0</ele><time>2026-05-02T09:36:05.002Z</time></trkpt><trkpt lat="44.885705141669824" lon="7.3348603371840495"><ele>375.0</ele><time>2026-05-02T09:36:07.002Z</time></trkpt><trkpt lat="44.885735878673444" lon="7.334969593678205"><ele>374.8333333333333</ele><time>2026-05-02T09:36:09.002Z</time></trkpt><trkpt lat="44.88576714956668" lon="7.335080747929525"><ele>374.6666666666667</ele><time>2026-05-02T09:36:11.003Z</time></trkpt><trkpt lat="44.885799295381815" lon="7.335195012168707"><ele>374.5</ele><time>2026-05-02T09:36:13.003Z</time></trkpt><trkpt lat="44.885832773216435" lon="7.335314508479307"><ele>374.33333333333337</ele><time>2026-05-02T09:36:15.003Z</time></trkpt><trkpt lat="44.885867439346626" lon="7.335439394636493"><ele>374.1666666666667</ele><time>2026-05-02T09:36:17.003Z</time></trkpt><trkpt lat="44.88589860498934" lon="7.335560433719606"><ele>374.0</ele><time>2026-05-02T09:36:19Z</time></trkpt><trkpt lat="44.885924624502294" lon="7.335675902404852"><ele>373.83333333333337</ele><time>2026-05-02T09:36:21Z</time></trkpt><trkpt lat="44.88594225791542" lon="7.3357869014422645"><ele>373.6666666666667</ele><time>2026-05-02T09:36:23Z</time></trkpt><trkpt lat="44.88596185401689" lon="7.335915224937937"><ele>373.5</ele><time>2026-05-02T09:36:25Z</time></trkpt><trkpt lat="44.88597957179296" lon="7.336031223021728"><ele>373.3333333333333</ele><time>2026-05-02T09:36:27Z</time></trkpt><trkpt lat="44.885993137041034" lon="7.336120035641834"><ele>373.16666666666663</ele><time>2026-05-02T09:36:29Z</time></trkpt><trkpt lat="44.88600909900046" lon="7.33622453970362"><ele>373.0</ele><time>2026-05-02T09:36:31Z</time></trkpt><trkpt lat="44.886113479885644" lon="7.336299706168575"><ele>372.66666666666663</ele><time>2026-05-02T09:36:32Z</time></trkpt><trkpt lat="44.88615773620027" lon="7.336400427838575"><ele>372.3333333333333</ele><time>2026-05-02T09:36:34Z</time></trkpt><trkpt lat="44.886184286000876" lon="7.336508221335592"><ele>372.0</ele><time>2026-05-02T09:36:36Z</time></trkpt><trkpt lat="44.886217842713144" lon="7.336626258106625"><ele>371.6666666666667</ele><time>2026-05-02T09:36:38Z</time></trkpt><trkpt lat="44.88625036258064" lon="7.336740647696941"><ele>371.33333333333337</ele><time>2026-05-02T09:36:40Z</time></trkpt><trkpt lat="44.88628628268473" lon="7.3368669978433205"><ele>371.0</ele><time>2026-05-02T09:36:42Z</time></trkpt><trkpt lat="44.886322222418414" lon="7.3369923293443176"><ele>371.0</ele><time>2026-05-02T09:36:44Z</time></trkpt><trkpt lat="44.886355518416636" lon="7.337107313411296"><ele>371.0</ele><time>2026-05-02T09:36:46Z</time></trkpt><trkpt lat="44.886388974597175" lon="7.337222850805571"><ele>371.0</ele><time>2026-05-02T09:36:49.001Z</time></trkpt><trkpt lat="44.88641464072004" lon="7.337311485995547"><ele>371.0</ele><time>2026-05-02T09:38:05.002Z</time></trkpt><trkpt lat="44.886440794750335" lon="7.337401806123777"><ele>371.0</ele><time>2026-05-02T09:38:56.001Z</time></trkpt><trkpt lat="44.886471589406696" lon="7.337508153095689"><ele>371.0</ele><time>2026-05-02T09:39:00.001Z</time></trkpt><trkpt lat="44.886496453690924" lon="7.33759383713607"><ele>370.6666666666667</ele><time>2026-05-02T09:39:05.001Z</time></trkpt><trkpt lat="44.88652944223832" lon="7.3377075809678285"><ele>370.33333333333337</ele><time>2026-05-02T09:39:08.001Z</time></trkpt><trkpt lat="44.88656301610116" lon="7.337822822237862"><ele>370.0</ele><time>2026-05-02T09:39:11.001Z</time></trkpt><trkpt lat="44.88659800130897" lon="7.337920134491776"><ele>369.6666666666667</ele><time>2026-05-02T09:39:13.001Z</time></trkpt><trkpt lat="44.88661574115048" lon="7.338009453485025"><ele>369.3333333333333</ele><time>2026-05-02T09:39:15.001Z</time></trkpt><trkpt lat="44.8866279214726" lon="7.338136262132442"><ele>369.0</ele><time>2026-05-02T09:39:18.001Z</time></trkpt><trkpt lat="44.88664395467493" lon="7.33822382439316"><ele>368.8333333333333</ele><time>2026-05-02T09:39:20.001Z</time></trkpt><trkpt lat="44.886673119449966" lon="7.338310122606581"><ele>368.6666666666667</ele><time>2026-05-02T09:39:22.001Z</time></trkpt><trkpt lat="44.88670766494675" lon="7.3383949356531"><ele>368.5</ele><time>2026-05-02T09:39:24.001Z</time></trkpt><trkpt lat="44.88673203080022" lon="7.338487597891526"><ele>368.33333333333337</ele><time>2026-05-02T09:39:26.001Z</time></trkpt><trkpt lat="44.88678123592428" lon="7.338600998508627"><ele>368.1666666666667</ele><time>2026-05-02T09:39:29.001Z</time></trkpt><trkpt lat="44.88680847718034" lon="7.338682225884954"><ele>368.0</ele><time>2026-05-02T09:39:31.002Z</time></trkpt><trkpt lat="44.88685102846956" lon="7.338816848509628"><ele>368.0</ele><time>2026-05-02T09:39:34.002Z</time></trkpt><trkpt lat="44.88687445491987" lon="7.338926796740586"><ele>368.0</ele><time>2026-05-02T09:39:36.002Z</time></trkpt><trkpt lat="44.88689147633272" lon="7.33902685037243"><ele>368.0</ele><time>2026-05-02T09:39:38.002Z</time></trkpt><trkpt lat="44.88682288342162" lon="7.3391567353607465"><ele>368.0</ele><time>2026-05-02T09:39:41.002Z</time></trkpt><trkpt lat="44.88672789979544" lon="7.339222471916232"><ele>368.0</ele><time>2026-05-02T09:39:43.002Z</time></trkpt><trkpt lat="44.8866310289174" lon="7.339257165354569"><ele>368.0</ele><time>2026-05-02T09:39:45.002Z</time></trkpt><trkpt lat="44.886535319884736" lon="7.339297028523566"><ele>368.0</ele><time>2026-05-02T09:39:47.002Z</time></trkpt><trkpt lat="44.886441078667" lon="7.33931763825452"><ele>368.0</ele><time>2026-05-02T09:39:49.002Z</time></trkpt><trkpt lat="44.88635802838515" lon="7.3393116812076356"><ele>368.0</ele><time>2026-05-02T09:39:51.002Z</time></trkpt><trkpt lat="44.886291622509695" lon="7.339280842290211"><ele>368.0</ele><time>2026-05-02T09:39:54.002Z</time></trkpt><trkpt lat="44.886214087883474" lon="7.3394441550378176"><ele>368.0</ele><time>2026-05-02T09:39:57.002Z</time></trkpt><trkpt lat="44.88623111611265" lon="7.339563080648412"><ele>368.0</ele><time>2026-05-02T09:40:00.002Z</time></trkpt><trkpt lat="44.88624879158619" lon="7.339682086839057"><ele>368.0</ele><time>2026-05-02T09:40:03.002Z</time></trkpt><trkpt lat="44.886264259962005" lon="7.339784140255231"><ele>368.0</ele><time>2026-05-02T09:40:05.002Z</time></trkpt><trkpt lat="44.88628114950413" lon="7.3398959802865305"><ele>368.0</ele><time>2026-05-02T09:40:07.002Z</time></trkpt><trkpt lat="44.88629903628348" lon="7.340014425121536"><ele>368.0</ele><time>2026-05-02T09:40:10.002Z</time></trkpt><trkpt lat="44.88631330131361" lon="7.34012467261376"><ele>368.1666666666667</ele><time>2026-05-02T09:40:12.003Z</time></trkpt><trkpt lat="44.88633048950628" lon="7.340251844011468"><ele>368.33333333333337</ele><time>2026-05-02T09:40:14.003Z</time></trkpt><trkpt lat="44.88634681464866" lon="7.34037805577018"><ele>368.5</ele><time>2026-05-02T09:40:16.003Z</time></trkpt><trkpt lat="44.88636005126086" lon="7.3404890448190026"><ele>368.6666666666667</ele><time>2026-05-02T09:40:18.003Z</time></trkpt><trkpt lat="44.88637262969416" lon="7.340602646104569"><ele>368.8333333333333</ele><time>2026-05-02T09:40:20.003Z</time></trkpt><trkpt lat="44.88638670243513" lon="7.340730716623573"><ele>369.0</ele><time>2026-05-02T09:40:22.003Z</time></trkpt><trkpt lat="44.88640163400038" lon="7.340862386125846"><ele>369.0</ele><time>2026-05-02T09:40:24.003Z</time></trkpt><trkpt lat="44.886417195700425" lon="7.34100080757081"><ele>369.0</ele><time>2026-05-02T09:40:26.003Z</time></trkpt><trkpt lat="44.88643584099259" lon="7.341150402735044"><ele>369.0</ele><time>2026-05-02T09:40:28.003Z</time></trkpt><trkpt lat="44.88649820192239" lon="7.341213322615761"><ele>369.0</ele><time>2026-05-02T09:40:29Z</time></trkpt><trkpt lat="44.88647838868122" lon="7.3413785927570805"><ele>369.0</ele><time>2026-05-02T09:40:31Z</time></trkpt><trkpt lat="44.88635205233709" lon="7.3415195906838"><ele>369.0</ele><time>2026-05-02T09:40:33Z</time></trkpt><trkpt lat="44.886478794622214" lon="7.3416829438966955"><ele>369.0</ele><time>2026-05-02T09:40:35Z</time></trkpt><trkpt lat="44.886499092658475" lon="7.34181734399489"><ele>369.0</ele><time>2026-05-02T09:40:37Z</time></trkpt><trkpt lat="44.88651914875931" lon="7.341940650369082"><ele>369.0</ele><time>2026-05-02T09:40:39Z</time></trkpt><trkpt lat="44.88654476172009" lon="7.342065431138166"><ele>369.0</ele><time>2026-05-02T09:40:41Z</time></trkpt><trkpt lat="44.88657598256061" lon="7.3422060166522645"><ele>369.0</ele><time>2026-05-02T09:40:43Z</time></trkpt><trkpt lat="44.88659656808652" lon="7.342355257045187"><ele>369.0</ele><time>2026-05-02T09:40:45Z</time></trkpt><trkpt lat="44.88661629098377" lon="7.342509688992536"><ele>369.0</ele><time>2026-05-02T09:40:47Z</time></trkpt><trkpt lat="44.88663680706774" lon="7.3426634527825785"><ele>369.0</ele><time>2026-05-02T09:40:49Z</time></trkpt><trkpt lat="44.88666199133209" lon="7.342817377212233"><ele>368.2</ele><time>2026-05-02T09:40:51Z</time></trkpt><trkpt lat="44.88668308490903" lon="7.342973783249878"><ele>367.4</ele><time>2026-05-02T09:40:53Z</time></trkpt><trkpt lat="44.88670066967582" lon="7.343122379759296"><ele>366.6</ele><time>2026-05-02T09:40:55Z</time></trkpt><trkpt lat="44.88671972508359" lon="7.343273377192765"><ele>365.8</ele><time>2026-05-02T09:40:57Z</time></trkpt><trkpt lat="44.88674277908181" lon="7.343415770628707"><ele>365.0</ele><time>2026-05-02T09:40:59Z</time></trkpt><trkpt lat="44.88676221657163" lon="7.343557209372581"><ele>364.8</ele><time>2026-05-02T09:41:01.001Z</time></trkpt><trkpt lat="44.88678256390458" lon="7.343690653511462"><ele>364.6</ele><time>2026-05-02T09:41:03.001Z</time></trkpt><trkpt lat="44.8868035875106" lon="7.343831769260302"><ele>364.4</ele><time>2026-05-02T09:41:05.001Z</time></trkpt><trkpt lat="44.88682595424504" lon="7.343977031901631"><ele>364.2</ele><time>2026-05-02T09:41:07.001Z</time></trkpt><trkpt lat="44.88684465158864" lon="7.344120493901854"><ele>364.0</ele><time>2026-05-02T09:41:09.001Z</time></trkpt><trkpt lat="44.886866999255" lon="7.34426638735828"><ele>363.79999999999995</ele><time>2026-05-02T09:41:11.001Z</time></trkpt><trkpt lat="44.88688705509032" lon="7.344417718595203"><ele>363.59999999999997</ele><time>2026-05-02T09:41:13.001Z</time></trkpt><trkpt lat="44.88690623605161" lon="7.344567485658639"><ele>363.4</ele><time>2026-05-02T09:41:15.001Z</time></trkpt><trkpt lat="44.88692404774237" lon="7.34472252300862"><ele>363.2</ele><time>2026-05-02T09:41:17.001Z</time></trkpt><trkpt lat="44.886941918558335" lon="7.344883709934067"><ele>363.0</ele><time>2026-05-02T09:41:19.001Z</time></trkpt><trkpt lat="44.88696412535509" lon="7.345041980803861"><ele>362.75</ele><time>2026-05-02T09:41:21.001Z</time></trkpt><trkpt lat="44.8869889776226" lon="7.345193885850044"><ele>362.5</ele><time>2026-05-02T09:41:23.001Z</time></trkpt><trkpt lat="44.88700051240443" lon="7.345358593872233"><ele>362.25</ele><time>2026-05-02T09:41:25.001Z</time></trkpt><trkpt lat="44.8870191394247" lon="7.345515113678309"><ele>362.0</ele><time>2026-05-02T09:41:27.001Z</time></trkpt><trkpt lat="44.88704159806393" lon="7.345670007708759"><ele>362.0</ele><time>2026-05-02T09:41:29.001Z</time></trkpt><trkpt lat="44.88706670740353" lon="7.3458185932749345"><ele>362.0</ele><time>2026-05-02T09:41:31.001Z</time></trkpt><trkpt lat="44.88708913955607" lon="7.345962720557907"><ele>362.0</ele><time>2026-05-02T09:41:33.001Z</time></trkpt><trkpt lat="44.887103524602715" lon="7.346114336716924"><ele>362.0</ele><time>2026-05-02T09:41:35.001Z</time></trkpt><trkpt lat="44.88712115240836" lon="7.346268122041405"><ele>362.0</ele><time>2026-05-02T09:41:37.001Z</time></trkpt><trkpt lat="44.88715299022801" lon="7.346420987748088"><ele>362.0</ele><time>2026-05-02T09:41:39.001Z</time></trkpt><trkpt lat="44.887174896438445" lon="7.346566185912138"><ele>362.0</ele><time>2026-05-02T09:41:41.002Z</time></trkpt><trkpt lat="44.88719573339287" lon="7.346721355655389"><ele>362.0</ele><time>2026-05-02T09:41:43.002Z</time></trkpt><trkpt lat="44.88720046079614" lon="7.346888762187947"><ele>362.0</ele><time>2026-05-02T09:41:45.002Z</time></trkpt><trkpt lat="44.88721610877851" lon="7.347047636037553"><ele>362.0</ele><time>2026-05-02T09:41:47.002Z</time></trkpt><trkpt lat="44.88723852840913" lon="7.347210868883471"><ele>361.8</ele><time>2026-05-02T09:41:49.002Z</time></trkpt><trkpt lat="44.88726555573145" lon="7.347373437778322"><ele>361.6</ele><time>2026-05-02T09:41:51.002Z</time></trkpt><trkpt lat="44.887288932205934" lon="7.3475298981411985"><ele>361.40000000000003</ele><time>2026-05-02T09:41:53.002Z</time></trkpt><trkpt lat="44.88731304951338" lon="7.347679701574316"><ele>361.20000000000005</ele><time>2026-05-02T09:41:55.002Z</time></trkpt><trkpt lat="44.88733149089912" lon="7.34780857167756"><ele>361.0</ele><time>2026-05-02T09:41:57.002Z</time></trkpt><trkpt lat="44.887353671832706" lon="7.347945206000284"><ele>361.0</ele><time>2026-05-02T09:41:59.002Z</time></trkpt><trkpt lat="44.88737097978506" lon="7.348092420977324"><ele>361.0</ele><time>2026-05-02T09:42:01.002Z</time></trkpt><trkpt lat="44.88739230261791" lon="7.348226758896768"><ele>361.0</ele><time>2026-05-02T09:42:03.002Z</time></trkpt><trkpt lat="44.887409527385316" lon="7.3483574964606975"><ele>361.0</ele><time>2026-05-02T09:42:05.002Z</time></trkpt><trkpt lat="44.88742677775702" lon="7.348483596882943"><ele>361.0</ele><time>2026-05-02T09:42:07.002Z</time></trkpt><trkpt lat="44.88744466523591" lon="7.3486122659400035"><ele>361.0</ele><time>2026-05-02T09:42:09.002Z</time></trkpt><trkpt lat="44.88746150710142" lon="7.3487364932560615"><ele>361.0</ele><time>2026-05-02T09:42:11.002Z</time></trkpt><trkpt lat="44.88748267821762" lon="7.348861543509605"><ele>361.0</ele><time>2026-05-02T09:42:13.002Z</time></trkpt><trkpt lat="44.88749901081731" lon="7.3489866835538225"><ele>361.0</ele><time>2026-05-02T09:42:15.002Z</time></trkpt><trkpt lat="44.88751249113958" lon="7.349104476448681"><ele>361.0</ele><time>2026-05-02T09:42:17.002Z</time></trkpt><trkpt lat="44.8875225167804" lon="7.349220733641938"><ele>361.0</ele><time>2026-05-02T09:42:19.002Z</time></trkpt><trkpt lat="44.88754109342836" lon="7.349335130108929"><ele>360.5</ele><time>2026-05-02T09:42:21.002Z</time></trkpt><trkpt lat="44.88755707039417" lon="7.349425984047975"><ele>360.0</ele><time>2026-05-02T09:42:23.003Z</time></trkpt><trkpt lat="44.88757143480445" lon="7.3495602931146085"><ele>359.5</ele><time>2026-05-02T09:42:26.003Z</time></trkpt><trkpt lat="44.88757908135313" lon="7.349652526180768"><ele>359.0</ele><time>2026-05-02T09:42:37Z</time></trkpt><trkpt lat="44.88757899592013" lon="7.349528383282116"><ele>358.5</ele><time>2026-05-02T09:48:09.002Z</time></trkpt><trkpt lat="44.88756117211469" lon="7.349398553477928"><ele>358.0</ele><time>2026-05-02T09:48:12.002Z</time></trkpt><trkpt lat="44.887543222061424" lon="7.349268181238589"><ele>358.00000000000006</ele><time>2026-05-02T09:48:15.002Z</time></trkpt><trkpt lat="44.88753040543339" lon="7.34917435913106"><ele>358.0</ele><time>2026-05-02T09:48:17.002Z</time></trkpt><trkpt lat="44.887517212542136" lon="7.349077850400997"><ele>358.0</ele><time>2026-05-02T09:48:19.002Z</time></trkpt><trkpt lat="44.887503894149525" lon="7.348980422611241"><ele>358.0</ele><time>2026-05-02T09:48:21.002Z</time></trkpt><trkpt lat="44.88748968619039" lon="7.348881629843561"><ele>358.0</ele><time>2026-05-02T09:48:23.002Z</time></trkpt><trkpt lat="44.88747621829523" lon="7.348780445156519"><ele>358.00000000000006</ele><time>2026-05-02T09:48:25.002Z</time></trkpt><trkpt lat="44.887461874881446" lon="7.348675512768099"><ele>358.0</ele><time>2026-05-02T09:48:27.002Z</time></trkpt><trkpt lat="44.88744737160952" lon="7.348566428982906"><ele>358.5</ele><time>2026-05-02T09:48:29.002Z</time></trkpt><trkpt lat="44.887432620895204" lon="7.348454359403734"><ele>359.0</ele><time>2026-05-02T09:48:31.002Z</time></trkpt><trkpt lat="44.88741750497329" lon="7.348342520371771"><ele>359.5</ele><time>2026-05-02T09:48:33.003Z</time></trkpt><trkpt lat="44.88745034746166" lon="7.348221272018554"><ele>360.0</ele><time>2026-05-02T09:48:35.003Z</time></trkpt><trkpt lat="44.887441507715536" lon="7.348121846751291"><ele>360.5</ele><time>2026-05-02T09:48:37.003Z</time></trkpt><trkpt lat="44.88737759815086" lon="7.348047415961641"><ele>361.0</ele><time>2026-05-02T09:48:39.003Z</time></trkpt><trkpt lat="44.88736130904429" lon="7.347926959765671"><ele>361.0</ele><time>2026-05-02T09:48:41.003Z</time></trkpt><trkpt lat="44.887345422547746" lon="7.347810216028637"><ele>361.0</ele><time>2026-05-02T09:48:43.003Z</time></trkpt><trkpt lat="44.88732723735984" lon="7.347678341499561"><ele>361.0</ele><time>2026-05-02T09:48:45.003Z</time></trkpt><trkpt lat="44.88730729484796" lon="7.347533720186622"><ele>361.0</ele><time>2026-05-02T09:48:47.003Z</time></trkpt><trkpt lat="44.88729339700271" lon="7.34743293344004"><ele>361.0</ele><time>2026-05-02T09:48:49.003Z</time></trkpt><trkpt lat="44.88727999687801" lon="7.3473357532530095"><ele>361.0</ele><time>2026-05-02T09:48:51.003Z</time></trkpt><trkpt lat="44.88726622036794" lon="7.347235845964443"><ele>361.20000000000005</ele><time>2026-05-02T09:48:53Z</time></trkpt><trkpt lat="44.887252613177026" lon="7.3471371655212465"><ele>361.40000000000003</ele><time>2026-05-02T09:48:55Z</time></trkpt><trkpt lat="44.88723698068805" lon="7.347023796099927"><ele>361.6</ele><time>2026-05-02T09:48:58Z</time></trkpt><trkpt lat="44.887440377340596" lon="7.347016035254256"><ele>361.8</ele><time>2026-05-02T09:49:02Z</time></trkpt><trkpt lat="44.887516614556496" lon="7.3470203069829685"><ele>362.0</ele><time>2026-05-02T09:49:04Z</time></trkpt><trkpt lat="44.887585701899994" lon="7.3470261895197835"><ele>361.6666666666667</ele><time>2026-05-02T09:49:06Z</time></trkpt><trkpt lat="44.887661220983816" lon="7.347035192203318"><ele>361.33333333333337</ele><time>2026-05-02T09:49:08Z</time></trkpt><trkpt lat="44.88774158929645" lon="7.34704440275438"><ele>361.0</ele><time>2026-05-02T09:49:10Z</time></trkpt><trkpt lat="44.88781733472709" lon="7.347053780981429"><ele>360.6666666666667</ele><time>2026-05-02T09:49:12Z</time></trkpt><trkpt lat="44.887890011739756" lon="7.34706808833312"><ele>360.3333333333333</ele><time>2026-05-02T09:49:14Z</time></trkpt><trkpt lat="44.887972316155036" lon="7.347073595938686"><ele>360.0</ele><time>2026-05-02T09:49:16Z</time></trkpt><trkpt lat="44.888048249454776" lon="7.347089402424472"><ele>360.0</ele><time>2026-05-02T09:49:18Z</time></trkpt><trkpt lat="44.88812678257183" lon="7.3471061462797795"><ele>360.0</ele><time>2026-05-02T09:49:20.001Z</time></trkpt><trkpt lat="44.888208208544974" lon="7.3471247782647335"><ele>360.0</ele><time>2026-05-02T09:49:22.001Z</time></trkpt><trkpt lat="44.88829391080633" lon="7.347137887793957"><ele>360.0</ele><time>2026-05-02T09:49:24.001Z</time></trkpt><trkpt lat="44.888379023956816" lon="7.347147168301855"><ele>360.0</ele><time>2026-05-02T09:49:26.001Z</time></trkpt><trkpt lat="44.88846290079894" lon="7.347162237881244"><ele>360.0</ele><time>2026-05-02T09:49:28.001Z</time></trkpt><trkpt lat="44.88854020896949" lon="7.347160764079379"><ele>360.1666666666667</ele><time>2026-05-02T09:49:30.001Z</time></trkpt><trkpt lat="44.88862833825104" lon="7.347127829184253"><ele>360.3333333333333</ele><time>2026-05-02T09:49:32.001Z</time></trkpt><trkpt lat="44.88870731151902" lon="7.347083133931249"><ele>360.5</ele><time>2026-05-02T09:49:34.001Z</time></trkpt><trkpt lat="44.88878028521063" lon="7.347051314920698"><ele>360.66666666666663</ele><time>2026-05-02T09:49:36.001Z</time></trkpt><trkpt lat="44.88884971609223" lon="7.3470214689197135"><ele>360.8333333333333</ele><time>2026-05-02T09:49:38.001Z</time></trkpt><trkpt lat="44.88890995874786" lon="7.346986187656318"><ele>361.0</ele><time>2026-05-02T09:49:40.001Z</time></trkpt><trkpt lat="44.88897173567035" lon="7.346952394629213"><ele>361.0</ele><time>2026-05-02T09:49:42.001Z</time></trkpt><trkpt lat="44.88903424337754" lon="7.346923300909782"><ele>361.0</ele><time>2026-05-02T09:49:44.001Z</time></trkpt><trkpt lat="44.88911272400951" lon="7.346885130298527"><ele>361.0</ele><time>2026-05-02T09:49:47.001Z</time></trkpt><trkpt lat="44.889191443091924" lon="7.346845079973091"><ele>361.0</ele><time>2026-05-02T09:49:50.001Z</time></trkpt><trkpt lat="44.88926781137112" lon="7.346809399450539"><ele>361.0</ele><time>2026-05-02T09:49:53.001Z</time></trkpt><trkpt lat="44.88933546896308" lon="7.346779020907557"><ele>361.0</ele><time>2026-05-02T09:49:56.001Z</time></trkpt><trkpt lat="44.88940261205063" lon="7.346733687358347"><ele>360.5714285714286</ele><time>2026-05-02T09:49:59.002Z</time></trkpt><trkpt lat="44.889468566540785" lon="7.346709140897935"><ele>360.1428571428571</ele><time>2026-05-02T09:50:02.002Z</time></trkpt><trkpt lat="44.88954090262752" lon="7.346667564681766"><ele>359.7142857142857</ele><time>2026-05-02T09:50:05.002Z</time></trkpt><trkpt lat="44.88960057809272" lon="7.346639178993394"><ele>359.28571428571433</ele><time>2026-05-02T09:50:07.002Z</time></trkpt><trkpt lat="44.889661174486235" lon="7.346608722019836"><ele>358.8571428571429</ele><time>2026-05-02T09:50:09.002Z</time></trkpt><trkpt lat="44.889727622101425" lon="7.346582394607527"><ele>358.42857142857144</ele><time>2026-05-02T09:50:11.002Z</time></trkpt><trkpt lat="44.88979387451027" lon="7.3465520793534616"><ele>358.0</ele><time>2026-05-02T09:50:13.002Z</time></trkpt><trkpt lat="44.88985963914674" lon="7.346521247935723"><ele>358.00000000000006</ele><time>2026-05-02T09:50:15.002Z</time></trkpt><trkpt lat="44.88992176199175" lon="7.3464880656254765"><ele>358.0</ele><time>2026-05-02T09:50:17.002Z</time></trkpt><trkpt lat="44.88998226356074" lon="7.346462941588469"><ele>358.0</ele><time>2026-05-02T09:50:19.002Z</time></trkpt><trkpt lat="44.89004410555035" lon="7.346434439882029"><ele>358.0</ele><time>2026-05-02T09:50:21.002Z</time></trkpt><trkpt lat="44.890103464660875" lon="7.346403293165539"><ele>358.0</ele><time>2026-05-02T09:50:23.002Z</time></trkpt><trkpt lat="44.890165188023936" lon="7.346377908458167"><ele>358.00000000000006</ele><time>2026-05-02T09:50:25.002Z</time></trkpt><trkpt lat="44.89023241919411" lon="7.346383932814715"><ele>358.0</ele><time>2026-05-02T09:50:27.002Z</time></trkpt><trkpt lat="44.89032069262738" lon="7.346409452411621"><ele>358.00000000000006</ele><time>2026-05-02T09:50:30.002Z</time></trkpt><trkpt lat="44.890378254829464" lon="7.3464626716689665"><ele>358.0</ele><time>2026-05-02T09:50:32.002Z</time></trkpt><trkpt lat="44.89043836508436" lon="7.3465348463028635"><ele>358.0</ele><time>2026-05-02T09:50:34.002Z</time></trkpt><trkpt lat="44.890488543924306" lon="7.346609104882344"><ele>358.0</ele><time>2026-05-02T09:50:36.002Z</time></trkpt><trkpt lat="44.89053874223908" lon="7.346693210402935"><ele>358.0</ele><time>2026-05-02T09:50:38.003Z</time></trkpt><trkpt lat="44.89059093134557" lon="7.346778552336589"><ele>358.00000000000006</ele><time>2026-05-02T09:50:40.003Z</time></trkpt><trkpt lat="44.89065043191553" lon="7.346830478543476"><ele>358.0</ele><time>2026-05-02T09:50:42.003Z</time></trkpt><trkpt lat="44.89072973074341" lon="7.346893859352841"><ele>358.0</ele><time>2026-05-02T09:50:45.003Z</time></trkpt><trkpt lat="44.89079241438244" lon="7.346928465945858"><ele>358.0</ele><time>2026-05-02T09:50:49.003Z</time></trkpt><trkpt lat="44.890858183992265" lon="7.347018793593507"><ele>358.0</ele><time>2026-05-02T09:51:08Z</time></trkpt><trkpt lat="44.89090628071338" lon="7.34711628517191"><ele>358.0</ele><time>2026-05-02T09:51:10Z</time></trkpt><trkpt lat="44.8909577928346" lon="7.34720897060688"><ele>358.0</ele><time>2026-05-02T09:51:12Z</time></trkpt><trkpt lat="44.89095718862024" lon="7.346851461771158"><ele>358.0</ele><time>2026-05-02T09:51:29.001Z</time></trkpt><trkpt lat="44.89091999285052" lon="7.346758754551653"><ele>358.0</ele><time>2026-05-02T09:51:33.001Z</time></trkpt><trkpt lat="44.89098273119633" lon="7.3467158414716085"><ele>358.0</ele><time>2026-05-02T09:51:39.001Z</time></trkpt><trkpt lat="44.89104981340103" lon="7.346723232921093"><ele>358.0</ele><time>2026-05-02T09:51:41.001Z</time></trkpt><trkpt lat="44.89110992678154" lon="7.346695531386115"><ele>358.0</ele><time>2026-05-02T09:51:44.063Z</time></trkpt><trkpt lat="44.89106049318626" lon="7.3465435901475065"><ele>358.0</ele><time>2026-05-02T09:51:48.001Z</time></trkpt><trkpt lat="44.89107788967992" lon="7.346449554958273"><ele>357.8333333333333</ele><time>2026-05-02T09:52:04.001Z</time></trkpt><trkpt lat="44.89110589474279" lon="7.34653352377712"><ele>357.66666666666663</ele><time>2026-05-02T09:52:08.002Z</time></trkpt><trkpt lat="44.89117940368159" lon="7.346595001123029"><ele>357.5</ele><time>2026-05-02T09:52:13.002Z</time></trkpt><trkpt lat="44.89117318242056" lon="7.346485037596555"><ele>357.3333333333333</ele><time>2026-05-02T09:52:18.002Z</time></trkpt><trkpt lat="44.89114107116907" lon="7.346383585121609"><ele>357.1666666666667</ele><time>2026-05-02T09:52:21.002Z</time></trkpt><trkpt lat="44.891154383112" lon="7.3462517809728585"><ele>357.0</ele><time>2026-05-02T09:52:24.002Z</time></trkpt><trkpt lat="44.89120133274606" lon="7.346159353145557"><ele>357.0</ele><time>2026-05-02T09:52:27.002Z</time></trkpt><trkpt lat="44.8912484064903" lon="7.346097175123803"><ele>357.0</ele><time>2026-05-02T09:52:29.002Z</time></trkpt><trkpt lat="44.89129890048889" lon="7.3460321301289975"><ele>357.0</ele><time>2026-05-02T09:52:31.002Z</time></trkpt><trkpt lat="44.891368647451195" lon="7.345973162605106"><ele>357.0</ele><time>2026-05-02T09:52:33.002Z</time></trkpt><trkpt lat="44.89141964856788" lon="7.345905103479453"><ele>357.0</ele><time>2026-05-02T09:52:35.002Z</time></trkpt><trkpt lat="44.891415786713324" lon="7.345767159664707"><ele>357.0</ele><time>2026-05-02T09:52:39.002Z</time></trkpt><trkpt lat="44.89145378716776" lon="7.345673774777267"><ele>357.0</ele><time>2026-05-02T09:52:41.002Z</time></trkpt><trkpt lat="44.89148859700688" lon="7.345588608829129"><ele>357.0</ele><time>2026-05-02T09:52:43.002Z</time></trkpt><trkpt lat="44.891521222105865" lon="7.345449693003207"><ele>357.0</ele><time>2026-05-02T09:52:46.003Z</time></trkpt><trkpt lat="44.89155998910773" lon="7.345333241177711"><ele>357.0</ele><time>2026-05-02T09:52:48.003Z</time></trkpt><trkpt lat="44.89158060992484" lon="7.345226544011457"><ele>357.0</ele><time>2026-05-02T09:52:50.003Z</time></trkpt><trkpt lat="44.89161220223732" lon="7.345119784511958"><ele>357.0</ele><time>2026-05-02T09:52:52.003Z</time></trkpt><trkpt lat="44.891609259082244" lon="7.345024501278115"><ele>357.2857142857143</ele><time>2026-05-02T09:52:54.003Z</time></trkpt><trkpt lat="44.89161046646007" lon="7.34492908866727"><ele>357.57142857142856</ele><time>2026-05-02T09:52:56.003Z</time></trkpt><trkpt lat="44.891610123566856" lon="7.344835890913749"><ele>357.8571428571429</ele><time>2026-05-02T09:52:58.003Z</time></trkpt><trkpt lat="44.89162375649865" lon="7.34474631654332"><ele>358.1428571428571</ele><time>2026-05-02T09:53:02.003Z</time></trkpt><trkpt lat="44.891640569910926" lon="7.344654414459741"><ele>358.42857142857144</ele><time>2026-05-02T09:53:06Z</time></trkpt><trkpt lat="44.89167000193032" lon="7.344554876696261"><ele>358.7142857142857</ele><time>2026-05-02T09:53:08Z</time></trkpt><trkpt lat="44.89168622486467" lon="7.344447431533607"><ele>359.0</ele><time>2026-05-02T09:53:10Z</time></trkpt><trkpt lat="44.89168276869457" lon="7.344322346110675"><ele>359.42857142857144</ele><time>2026-05-02T09:53:12Z</time></trkpt><trkpt lat="44.8916483999399" lon="7.344214580345376"><ele>359.8571428571429</ele><time>2026-05-02T09:53:14Z</time></trkpt><trkpt lat="44.8916243925911" lon="7.344112562725266"><ele>360.2857142857143</ele><time>2026-05-02T09:53:16Z</time></trkpt><trkpt lat="44.89160192201678" lon="7.34401214014662"><ele>360.7142857142857</ele><time>2026-05-02T09:53:18Z</time></trkpt><trkpt lat="44.89157620356405" lon="7.343915780175256"><ele>361.1428571428571</ele><time>2026-05-02T09:53:20Z</time></trkpt><trkpt lat="44.89155357994125" lon="7.343826619097137"><ele>361.57142857142856</ele><time>2026-05-02T09:53:22Z</time></trkpt><trkpt lat="44.891527388311744" lon="7.343745799950898"><ele>362.0</ele><time>2026-05-02T09:53:24Z</time></trkpt><trkpt lat="44.89147018105439" lon="7.343671611116967"><ele>362.2857142857143</ele><time>2026-05-02T09:53:27Z</time></trkpt><trkpt lat="44.89145986201663" lon="7.343568268617813"><ele>362.57142857142856</ele><time>2026-05-02T09:53:30Z</time></trkpt><trkpt lat="44.89144222184787" lon="7.343477058397875"><ele>362.8571428571429</ele><time>2026-05-02T09:53:32Z</time></trkpt><trkpt lat="44.89141474388136" lon="7.343379879317003"><ele>363.1428571428571</ele><time>2026-05-02T09:53:34.001Z</time></trkpt><trkpt lat="44.891387043597916" lon="7.3432812658439675"><ele>363.42857142857144</ele><time>2026-05-02T09:53:36.001Z</time></trkpt><trkpt lat="44.891375522706035" lon="7.343168671887664"><ele>363.7142857142857</ele><time>2026-05-02T09:53:38.001Z</time></trkpt><trkpt lat="44.891352014247" lon="7.3430714004890865"><ele>364.0</ele><time>2026-05-02T09:53:40.001Z</time></trkpt><trkpt lat="44.89133280498731" lon="7.342985360097315"><ele>364.0</ele><time>2026-05-02T09:53:42.001Z</time></trkpt><trkpt lat="44.891310791165104" lon="7.34289651714717"><ele>364.0</ele><time>2026-05-02T09:53:44.001Z</time></trkpt><trkpt lat="44.89127385784301" lon="7.342804199523775"><ele>364.0</ele><time>2026-05-02T09:53:46.001Z</time></trkpt><trkpt lat="44.89123473030865" lon="7.34271613445356"><ele>364.0</ele><time>2026-05-02T09:53:48.001Z</time></trkpt><trkpt lat="44.89116209633343" lon="7.342657169798081"><ele>364.0</ele><time>2026-05-02T09:53:50.001Z</time></trkpt><trkpt lat="44.89110318276424" lon="7.342572463062951"><ele>364.0</ele><time>2026-05-02T09:53:52.001Z</time></trkpt><trkpt lat="44.891034996303745" lon="7.342499453216005"><ele>364.0</ele><time>2026-05-02T09:53:54.001Z</time></trkpt><trkpt lat="44.890961976164995" lon="7.342439855229904"><ele>364.0</ele><time>2026-05-02T09:53:56.001Z</time></trkpt><trkpt lat="44.89088830434757" lon="7.342380808818146"><ele>364.0</ele><time>2026-05-02T09:53:58.001Z</time></trkpt><trkpt lat="44.89081161271749" lon="7.342318138507333"><ele>364.0</ele><time>2026-05-02T09:54:00.001Z</time></trkpt><trkpt lat="44.89074144102533" lon="7.342238229708505"><ele>364.0</ele><time>2026-05-02T09:54:02.001Z</time></trkpt><trkpt lat="44.8906779219842" lon="7.342142133185945"><ele>364.0</ele><time>2026-05-02T09:54:04.001Z</time></trkpt><trkpt lat="44.89062141658228" lon="7.342027951465247"><ele>364.0</ele><time>2026-05-02T09:54:06.001Z</time></trkpt><trkpt lat="44.89056724014197" lon="7.341922191855781"><ele>364.0</ele><time>2026-05-02T09:54:08.001Z</time></trkpt><trkpt lat="44.890512662669565" lon="7.341804155376704"><ele>364.0</ele><time>2026-05-02T09:54:10.002Z</time></trkpt><trkpt lat="44.8904703650364" lon="7.341678950668305"><ele>364.0</ele><time>2026-05-02T09:54:12.002Z</time></trkpt><trkpt lat="44.890423966772886" lon="7.3415647588957516"><ele>364.0</ele><time>2026-05-02T09:54:14.002Z</time></trkpt><trkpt lat="44.890382922730794" lon="7.341459506461339"><ele>364.4</ele><time>2026-05-02T09:54:16.002Z</time></trkpt><trkpt lat="44.89034052864425" lon="7.341349828861068"><ele>364.79999999999995</ele><time>2026-05-02T09:54:18.002Z</time></trkpt><trkpt lat="44.89029227418535" lon="7.341234182415948"><ele>365.20000000000005</ele><time>2026-05-02T09:54:20.002Z</time></trkpt><trkpt lat="44.89024988144841" lon="7.3411229484911225"><ele>365.6</ele><time>2026-05-02T09:54:22.002Z</time></trkpt><trkpt lat="44.89020626764941" lon="7.341004108172673"><ele>366.0</ele><time>2026-05-02T09:54:24.002Z</time></trkpt><trkpt lat="44.89016093788563" lon="7.340885629365219"><ele>366.0</ele><time>2026-05-02T09:54:26.002Z</time></trkpt><trkpt lat="44.89011556816841" lon="7.340765416824965"><ele>366.0</ele><time>2026-05-02T09:54:28.002Z</time></trkpt><trkpt lat="44.89006785212281" lon="7.340644815074243"><ele>366.0</ele><time>2026-05-02T09:54:30.002Z</time></trkpt><trkpt lat="44.89001843106219" lon="7.340531237974903"><ele>366.0</ele><time>2026-05-02T09:54:32.002Z</time></trkpt><trkpt lat="44.88996696436238" lon="7.340415780905219"><ele>366.0</ele><time>2026-05-02T09:54:34.002Z</time></trkpt><trkpt lat="44.88991375091253" lon="7.340305255888357"><ele>365.8</ele><time>2026-05-02T09:54:36.002Z</time></trkpt><trkpt lat="44.88986735402587" lon="7.340191746626617"><ele>365.6</ele><time>2026-05-02T09:54:38.002Z</time></trkpt><trkpt lat="44.8898107702322" lon="7.340086891384954"><ele>365.4</ele><time>2026-05-02T09:54:40.002Z</time></trkpt><trkpt lat="44.889759543668724" lon="7.339978591222826"><ele>365.2</ele><time>2026-05-02T09:54:42.002Z</time></trkpt><trkpt lat="44.889704376890705" lon="7.339875999461618"><ele>365.0</ele><time>2026-05-02T09:54:44.002Z</time></trkpt><trkpt lat="44.88965069662187" lon="7.3397758612825434"><ele>365.2</ele><time>2026-05-02T09:54:46.002Z</time></trkpt><trkpt lat="44.889591578764424" lon="7.33967546433301"><ele>365.4</ele><time>2026-05-02T09:54:48.003Z</time></trkpt><trkpt lat="44.88953570099341" lon="7.339575855665192"><ele>365.6</ele><time>2026-05-02T09:54:50.003Z</time></trkpt><trkpt lat="44.889479852866806" lon="7.339478241616606"><ele>365.8</ele><time>2026-05-02T09:54:52.003Z</time></trkpt><trkpt lat="44.88941995462668" lon="7.339384503976887"><ele>366.0</ele><time>2026-05-02T09:54:54.003Z</time></trkpt><trkpt lat="44.889353540654675" lon="7.339295987589934"><ele>366.0</ele><time>2026-05-02T09:54:56.003Z</time></trkpt><trkpt lat="44.88929472529039" lon="7.339202684382321"><ele>366.0</ele><time>2026-05-02T09:54:58.003Z</time></trkpt><trkpt lat="44.889233439773236" lon="7.339112002486769"><ele>366.0</ele><time>2026-05-02T09:55:00.003Z</time></trkpt><trkpt lat="44.88916921099215" lon="7.339021603618376"><ele>366.0</ele><time>2026-05-02T09:55:02.003Z</time></trkpt><trkpt lat="44.8891097326569" lon="7.3389380928517705"><ele>366.0</ele><time>2026-05-02T09:55:04.003Z</time></trkpt><trkpt lat="44.889050323423646" lon="7.338844185055628"><ele>366.0</ele><time>2026-05-02T09:55:06.003Z</time></trkpt><trkpt lat="44.88899526205194" lon="7.338751414933499"><ele>366.20000000000005</ele><time>2026-05-02T09:55:08.003Z</time></trkpt><trkpt lat="44.88894612358865" lon="7.3386469144316555"><ele>366.40000000000003</ele><time>2026-05-02T09:55:10.003Z</time></trkpt><trkpt lat="44.88889967948261" lon="7.338539058347909"><ele>366.6</ele><time>2026-05-02T09:55:12Z</time></trkpt><trkpt lat="44.88885462128754" lon="7.33842952198637"><ele>366.8</ele><time>2026-05-02T09:55:14Z</time></trkpt><trkpt lat="44.88881535857797" lon="7.338312077246441"><ele>367.0</ele><time>2026-05-02T09:55:16Z</time></trkpt><trkpt lat="44.88878140420366" lon="7.338193609425281"><ele>367.0</ele><time>2026-05-02T09:55:18Z</time></trkpt><trkpt lat="44.88874824020262" lon="7.338072039076912"><ele>367.0</ele><time>2026-05-02T09:55:20Z</time></trkpt><trkpt lat="44.88871392851578" lon="7.337953365126194"><ele>367.0</ele><time>2026-05-02T09:55:22Z</time></trkpt><trkpt lat="44.88867641449821" lon="7.337835774938396"><ele>367.0</ele><time>2026-05-02T09:55:24Z</time></trkpt><trkpt lat="44.88864404310134" lon="7.337715856405865"><ele>367.0</ele><time>2026-05-02T09:55:26Z</time></trkpt><trkpt lat="44.8886130530922" lon="7.337598951786204"><ele>367.3333333333333</ele><time>2026-05-02T09:55:28Z</time></trkpt><trkpt lat="44.888577412218275" lon="7.337487591061838"><ele>367.66666666666663</ele><time>2026-05-02T09:55:30Z</time></trkpt><trkpt lat="44.88854503880162" lon="7.337376924523176"><ele>368.0</ele><time>2026-05-02T09:55:32Z</time></trkpt><trkpt lat="44.88851297426677" lon="7.337264932703503"><ele>368.3333333333333</ele><time>2026-05-02T09:55:34Z</time></trkpt><trkpt lat="44.888479827722854" lon="7.33715022881591"><ele>368.6666666666667</ele><time>2026-05-02T09:55:36.001Z</time></trkpt><trkpt lat="44.88844506794637" lon="7.3370410769508325"><ele>369.0</ele><time>2026-05-02T09:55:38.001Z</time></trkpt><trkpt lat="44.888410952155844" lon="7.33693156070805"><ele>369.2857142857143</ele><time>2026-05-02T09:55:40.001Z</time></trkpt><trkpt lat="44.88838490369907" lon="7.3368395532828625"><ele>369.57142857142856</ele><time>2026-05-02T09:55:42.001Z</time></trkpt><trkpt lat="44.888350896681" lon="7.336733965965987"><ele>369.8571428571429</ele><time>2026-05-02T09:55:45.001Z</time></trkpt><trkpt lat="44.88832319076222" lon="7.336646186905266"><ele>370.1428571428571</ele><time>2026-05-02T09:55:48.001Z</time></trkpt><trkpt lat="44.888305969361376" lon="7.3365546104756945"><ele>370.42857142857144</ele><time>2026-05-02T09:55:53.001Z</time></trkpt><trkpt lat="44.88829023922237" lon="7.336454931136508"><ele>370.7142857142857</ele><time>2026-05-02T09:56:20.002Z</time></trkpt><trkpt lat="44.88823225088755" lon="7.336377350918637"><ele>371.0</ele><time>2026-05-02T09:56:23.002Z</time></trkpt><trkpt lat="44.888081518111804" lon="7.336459550835313"><ele>371.0</ele><time>2026-05-02T09:56:29.002Z</time></trkpt><trkpt lat="44.88800415129444" lon="7.336504348357455"><ele>371.0</ele><time>2026-05-02T09:56:32.002Z</time></trkpt><trkpt lat="44.88792224317741" lon="7.3365507856843335"><ele>371.0</ele><time>2026-05-02T09:56:35.002Z</time></trkpt><trkpt lat="44.8878373669961" lon="7.336597239115557"><ele>371.0</ele><time>2026-05-02T09:56:38.002Z</time></trkpt><trkpt lat="44.8877568237131" lon="7.336635928302395"><ele>371.0</ele><time>2026-05-02T09:56:41.002Z</time></trkpt><trkpt lat="44.88769477370124" lon="7.336659517658025"><ele>371.0</ele><time>2026-05-02T09:56:43.002Z</time></trkpt><trkpt lat="44.88762880201002" lon="7.3366717459614526"><ele>371.0</ele><time>2026-05-02T09:56:46.002Z</time></trkpt><trkpt lat="44.88756135619396" lon="7.336547656272274"><ele>371.0</ele><time>2026-05-02T09:56:47.002Z</time></trkpt><trkpt lat="44.887513516559636" lon="7.33647629832734"><ele>371.0</ele><time>2026-05-02T09:56:49.002Z</time></trkpt><trkpt lat="44.88742883846535" lon="7.3365045569925655"><ele>371.0</ele><time>2026-05-02T09:56:52.003Z</time></trkpt><trkpt lat="44.88738962432769" lon="7.336590650772881"><ele>371.0</ele><time>2026-05-02T09:56:54.003Z</time></trkpt><trkpt lat="44.88733166649" lon="7.336630024151906"><ele>371.0</ele><time>2026-05-02T09:56:56.003Z</time></trkpt><trkpt lat="44.88726936124272" lon="7.336701456121827"><ele>371.0</ele><time>2026-05-02T09:56:59.003Z</time></trkpt><trkpt lat="44.88733239994668" lon="7.336815537346828"><ele>371.0</ele><time>2026-05-02T09:57:01.003Z</time></trkpt><trkpt lat="44.88720567736609" lon="7.336953821821134"><ele>371.0</ele><time>2026-05-02T09:57:04.003Z</time></trkpt><trkpt lat="44.887145968764436" lon="7.337000053779364"><ele>371.0</ele><time>2026-05-02T09:57:06.003Z</time></trkpt><trkpt lat="44.88707430736262" lon="7.337055251711479"><ele>371.0</ele><time>2026-05-02T09:57:08.003Z</time></trkpt><trkpt lat="44.887008052297396" lon="7.337119033629719"><ele>371.0</ele><time>2026-05-02T09:57:11.003Z</time></trkpt><trkpt lat="44.88691464129584" lon="7.337137290101719"><ele>371.0</ele><time>2026-05-02T09:57:13.003Z</time></trkpt><trkpt lat="44.88684424590271" lon="7.337177644586734"><ele>371.0</ele><time>2026-05-02T09:57:15.003Z</time></trkpt><trkpt lat="44.886770495533014" lon="7.337219922362504"><ele>371.0</ele><time>2026-05-02T09:57:17Z</time></trkpt><trkpt lat="44.886703425675044" lon="7.337258370467125"><ele>371.0</ele><time>2026-05-02T09:57:19Z</time></trkpt><trkpt lat="44.8866426370998" lon="7.337292096998442"><ele>371.0</ele><time>2026-05-02T09:57:21Z</time></trkpt><trkpt lat="44.88658255226903" lon="7.3373248753727"><ele>371.0</ele><time>2026-05-02T09:57:23Z</time></trkpt><trkpt lat="44.88640109401533" lon="7.3370784871451775"><ele>371.0</ele><time>2026-05-02T09:57:27Z</time></trkpt><trkpt lat="44.88637522365649" lon="7.336989146619701"><ele>371.0</ele><time>2026-05-02T09:57:29Z</time></trkpt><trkpt lat="44.886347190798816" lon="7.336892057059847"><ele>371.0</ele><time>2026-05-02T09:57:31Z</time></trkpt><trkpt lat="44.88631804444793" lon="7.336789533914292"><ele>371.0</ele><time>2026-05-02T09:57:33Z</time></trkpt><trkpt lat="44.88628809691561" lon="7.336684192466462"><ele>371.0</ele><time>2026-05-02T09:57:35Z</time></trkpt><trkpt lat="44.8862622541482" lon="7.336593289768645"><ele>371.0</ele><time>2026-05-02T09:57:37.001Z</time></trkpt><trkpt lat="44.88622389738905" lon="7.3364583686757"><ele>371.0</ele><time>2026-05-02T09:57:40.001Z</time></trkpt><trkpt lat="44.8861957373442" lon="7.336362251985789"><ele>371.0</ele><time>2026-05-02T09:57:42.001Z</time></trkpt><trkpt lat="44.88615659586364" lon="7.336263931125843"><ele>371.0</ele><time>2026-05-02T09:57:45.001Z</time></trkpt><trkpt lat="44.88615150156519" lon="7.336119911360377"><ele>371.33333333333337</ele><time>2026-05-02T09:57:48.001Z</time></trkpt><trkpt lat="44.88611314098153" lon="7.336005032758432"><ele>371.6666666666667</ele><time>2026-05-02T09:57:51.001Z</time></trkpt><trkpt lat="44.88609001595099" lon="7.3359130115770395"><ele>372.0</ele><time>2026-05-02T09:57:53.001Z</time></trkpt><trkpt lat="44.886059493967146" lon="7.335820036019454"><ele>372.3333333333333</ele><time>2026-05-02T09:57:55.001Z</time></trkpt><trkpt lat="44.88601029087789" lon="7.335730550044022"><ele>372.66666666666663</ele><time>2026-05-02T09:57:57.001Z</time></trkpt><trkpt lat="44.886006996844706" lon="7.335630533259397"><ele>373.0</ele><time>2026-05-02T09:57:59.001Z</time></trkpt><trkpt lat="44.8859803266203" lon="7.335537813698053"><ele>373.16666666666663</ele><time>2026-05-02T09:58:01.001Z</time></trkpt><trkpt lat="44.88595155738081" lon="7.335437477967087"><ele>373.3333333333333</ele><time>2026-05-02T09:58:03.001Z</time></trkpt><trkpt lat="44.88592315674585" lon="7.335329617477738"><ele>373.5</ele><time>2026-05-02T09:58:05.001Z</time></trkpt><trkpt lat="44.885894958370855" lon="7.3352269913121395"><ele>373.6666666666667</ele><time>2026-05-02T09:58:07.001Z</time></trkpt><trkpt lat="44.88586787031481" lon="7.335128053493273"><ele>373.83333333333337</ele><time>2026-05-02T09:58:09.001Z</time></trkpt><trkpt lat="44.8858397477422" lon="7.335031512774605"><ele>374.0</ele><time>2026-05-02T09:58:11.001Z</time></trkpt><trkpt lat="44.88580976807242" lon="7.334940008930586"><ele>374.0</ele><time>2026-05-02T09:58:13.001Z</time></trkpt><trkpt lat="44.885784620568195" lon="7.334848543897041"><ele>374.0</ele><time>2026-05-02T09:58:15.002Z</time></trkpt><trkpt lat="44.88576092311674" lon="7.334759604859353"><ele>374.0</ele><time>2026-05-02T09:58:17.002Z</time></trkpt><trkpt lat="44.88573910779443" lon="7.334664962624208"><ele>374.0</ele><time>2026-05-02T09:58:19.002Z</time></trkpt><trkpt lat="44.885707212029324" lon="7.334561213269576"><ele>374.0</ele><time>2026-05-02T09:58:21.002Z</time></trkpt><trkpt lat="44.885686923837696" lon="7.334470238471509"><ele>374.0</ele><time>2026-05-02T09:58:23.002Z</time></trkpt><trkpt lat="44.88564701298098" lon="7.33435708371815"><ele>374.0</ele><time>2026-05-02T09:58:26.002Z</time></trkpt><trkpt lat="44.88562505028657" lon="7.334258771745704"><ele>374.1666666666667</ele><time>2026-05-02T09:58:28.002Z</time></trkpt><trkpt lat="44.88559721158784" lon="7.334141769253515"><ele>374.33333333333337</ele><time>2026-05-02T09:58:30.002Z</time></trkpt><trkpt lat="44.885564675814095" lon="7.334031504436804"><ele>374.5</ele><time>2026-05-02T09:58:32.002Z</time></trkpt><trkpt lat="44.885534552266385" lon="7.3339229083246495"><ele>374.6666666666667</ele><time>2026-05-02T09:58:34.002Z</time></trkpt><trkpt lat="44.885502776959974" lon="7.333810777018243"><ele>374.8333333333333</ele><time>2026-05-02T09:58:36.002Z</time></trkpt><trkpt lat="44.88546694687571" lon="7.333705213329349"><ele>375.0</ele><time>2026-05-02T09:58:38.002Z</time></trkpt><trkpt lat="44.88543306197801" lon="7.333599970577063"><ele>375.0</ele><time>2026-05-02T09:58:40.002Z</time></trkpt><trkpt lat="44.88539759538366" lon="7.333491812047504"><ele>375.0</ele><time>2026-05-02T09:58:42.002Z</time></trkpt><trkpt lat="44.8853647117724" lon="7.333391734368693"><ele>375.0</ele><time>2026-05-02T09:58:44.002Z</time></trkpt><trkpt lat="44.885331086519464" lon="7.333302225766754"><ele>375.0</ele><time>2026-05-02T09:58:46.002Z</time></trkpt><trkpt lat="44.88529860386673" lon="7.3332173776475615"><ele>375.0</ele><time>2026-05-02T09:58:48.002Z</time></trkpt><trkpt lat="44.885267583828764" lon="7.3330938552464255"><ele>375.0</ele><time>2026-05-02T09:58:50.002Z</time></trkpt><trkpt lat="44.885232606979514" lon="7.332974799549803"><ele>375.5</ele><time>2026-05-02T09:58:52.003Z</time></trkpt><trkpt lat="44.88520255418387" lon="7.332859330677068"><ele>376.0</ele><time>2026-05-02T09:58:54.003Z</time></trkpt><trkpt lat="44.88516695264432" lon="7.33275017657674"><ele>376.5</ele><time>2026-05-02T09:58:56.003Z</time></trkpt><trkpt lat="44.885140402752924" lon="7.332640244592319"><ele>377.0</ele><time>2026-05-02T09:58:58.003Z</time></trkpt><trkpt lat="44.88513919647801" lon="7.3325286895281545"><ele>377.5</ele><time>2026-05-02T09:59:00.003Z</time></trkpt><trkpt lat="44.885112546628136" lon="7.332440988982617"><ele>378.0</ele><time>2026-05-02T09:59:02.003Z</time></trkpt><trkpt lat="44.88508907289086" lon="7.3323572361410605"><ele>378.25</ele><time>2026-05-02T09:59:04.003Z</time></trkpt><trkpt lat="44.885202329006106" lon="7.332186727043736"><ele>378.5</ele><time>2026-05-02T09:59:06.003Z</time></trkpt><trkpt lat="44.88518227442077" lon="7.332082430240739"><ele>378.75</ele><time>2026-05-02T09:59:08.003Z</time></trkpt><trkpt lat="44.88501620619581" lon="7.332097899429363"><ele>379.0</ele><time>2026-05-02T09:59:10.003Z</time></trkpt><trkpt lat="44.88513766801453" lon="7.331887487296881"><ele>379.0</ele><time>2026-05-02T09:59:13.003Z</time></trkpt><trkpt lat="44.885104309521616" lon="7.331778172302735"><ele>379.0</ele><time>2026-05-02T09:59:15.003Z</time></trkpt><trkpt lat="44.885079898718345" lon="7.331661931984684"><ele>379.0</ele><time>2026-05-02T09:59:17.003Z</time></trkpt><trkpt lat="44.88505126664845" lon="7.331550382435481"><ele>379.0</ele><time>2026-05-02T09:59:19.003Z</time></trkpt><trkpt lat="44.88502135492761" lon="7.331446658935986"><ele>379.0</ele><time>2026-05-02T09:59:21.003Z</time></trkpt><trkpt lat="44.884993534945664" lon="7.331340597397726"><ele>379.0</ele><time>2026-05-02T09:59:23Z</time></trkpt><trkpt lat="44.88496520113869" lon="7.331232508251372"><ele>379.0</ele><time>2026-05-02T09:59:25Z</time></trkpt><trkpt lat="44.88493046533089" lon="7.331136152444083"><ele>379.0</ele><time>2026-05-02T09:59:27Z</time></trkpt><trkpt lat="44.88490709155549" lon="7.331034603974436"><ele>379.0</ele><time>2026-05-02T09:59:29Z</time></trkpt><trkpt lat="44.88487168789057" lon="7.330921020075213"><ele>379.0</ele><time>2026-05-02T09:59:31Z</time></trkpt><trkpt lat="44.884835398634834" lon="7.330807582344236"><ele>379.0</ele><time>2026-05-02T09:59:33Z</time></trkpt><trkpt lat="44.88479309320223" lon="7.330677603694598"><ele>379.0</ele><time>2026-05-02T09:59:35Z</time></trkpt><trkpt lat="44.884628548259535" lon="7.330693890729126"><ele>379.0</ele><time>2026-05-02T09:59:36Z</time></trkpt><trkpt lat="44.884606471354004" lon="7.330604317781699"><ele>379.0</ele><time>2026-05-02T09:59:38Z</time></trkpt><trkpt lat="44.884598997887046" lon="7.3304793177741265"><ele>379.0</ele><time>2026-05-02T09:59:40.001Z</time></trkpt><trkpt lat="44.8846072496492" lon="7.330301790045961"><ele>379.0</ele><time>2026-05-02T09:59:42.001Z</time></trkpt><trkpt lat="44.88462327946083" lon="7.330155645481068"><ele>379.0</ele><time>2026-05-02T09:59:44.001Z</time></trkpt><trkpt lat="44.884642061101026" lon="7.330022044935866"><ele>379.5</ele><time>2026-05-02T09:59:46.001Z</time></trkpt><trkpt lat="44.884659284017914" lon="7.3299009409638005"><ele>380.0</ele><time>2026-05-02T09:59:48.001Z</time></trkpt><trkpt lat="44.88467619370431" lon="7.329782635348374"><ele>380.5</ele><time>2026-05-02T09:59:50.001Z</time></trkpt><trkpt lat="44.88469329841093" lon="7.329670985128151"><ele>381.0</ele><time>2026-05-02T09:59:52.001Z</time></trkpt><trkpt lat="44.88470956344986" lon="7.329564220782736"><ele>381.5</ele><time>2026-05-02T09:59:54.001Z</time></trkpt><trkpt lat="44.884737353461794" lon="7.329456422301675"><ele>382.0</ele><time>2026-05-02T09:59:56.001Z</time></trkpt><trkpt lat="44.88475029097234" lon="7.329328224660931"><ele>382.16666666666663</ele><time>2026-05-02T09:59:58.001Z</time></trkpt><trkpt lat="44.88476165869433" lon="7.329198844193167"><ele>382.3333333333333</ele><time>2026-05-02T10:00:00.001Z</time></trkpt><trkpt lat="44.88477534453629" lon="7.329076275403982"><ele>382.5</ele><time>2026-05-02T10:00:02.001Z</time></trkpt><trkpt lat="44.88479264919143" lon="7.328956565036031"><ele>382.6666666666667</ele><time>2026-05-02T10:00:04.001Z</time></trkpt><trkpt lat="44.88481222969584" lon="7.328835839059412"><ele>382.83333333333337</ele><time>2026-05-02T10:00:06.001Z</time></trkpt><trkpt lat="44.884826328739486" lon="7.328714791906683"><ele>383.0</ele><time>2026-05-02T10:00:08.001Z</time></trkpt><trkpt lat="44.88484535652464" lon="7.328610099223698"><ele>383.2</ele><time>2026-05-02T10:00:10.001Z</time></trkpt><trkpt lat="44.88485782033051" lon="7.328517068191458"><ele>383.4</ele><time>2026-05-02T10:00:13.001Z</time></trkpt><trkpt lat="44.88475489404622" lon="7.328462256140283"><ele>383.59999999999997</ele><time>2026-05-02T10:00:17.001Z</time></trkpt><trkpt lat="44.884720772803604" lon="7.3283830406096415"><ele>383.79999999999995</ele><time>2026-05-02T10:00:19.002Z</time></trkpt><trkpt lat="44.88484587278489" lon="7.328325419074525"><ele>384.0</ele><time>2026-05-02T10:00:21.002Z</time></trkpt><trkpt lat="44.884864369190666" lon="7.328195744964542"><ele>384.0</ele><time>2026-05-02T10:00:24.002Z</time></trkpt><trkpt lat="44.88488145081732" lon="7.328075989830737"><ele>384.0</ele><time>2026-05-02T10:00:27.002Z</time></trkpt><trkpt lat="44.88489421313176" lon="7.327986516163901"><ele>384.0</ele><time>2026-05-02T10:00:29.002Z</time></trkpt><trkpt lat="44.88490826832275" lon="7.3278879785244255"><ele>384.0</ele><time>2026-05-02T10:00:31.002Z</time></trkpt><trkpt lat="44.88492377133678" lon="7.327777001545548"><ele>384.0</ele><time>2026-05-02T10:00:33.002Z</time></trkpt><trkpt lat="44.884940505722675" lon="7.327657150967807"><ele>384.0</ele><time>2026-05-02T10:00:35.002Z</time></trkpt><trkpt lat="44.884958436847" lon="7.327529261854386"><ele>384.0</ele><time>2026-05-02T10:00:37.002Z</time></trkpt><trkpt lat="44.884975521483376" lon="7.327409116289955"><ele>384.0</ele><time>2026-05-02T10:00:39.002Z</time></trkpt><trkpt lat="44.88499166979666" lon="7.327295555359905"><ele>384.0</ele><time>2026-05-02T10:00:41.002Z</time></trkpt><trkpt lat="44.885007940768325" lon="7.327181131739854"><ele>384.0</ele><time>2026-05-02T10:00:43.002Z</time></trkpt><trkpt lat="44.88502346263675" lon="7.327071976184046"><ele>384.0</ele><time>2026-05-02T10:00:45.002Z</time></trkpt><trkpt lat="44.88503904890165" lon="7.326962367612578"><ele>384.0</ele><time>2026-05-02T10:00:47.002Z</time></trkpt><trkpt lat="44.88505382510698" lon="7.326858455891327"><ele>383.8333333333333</ele><time>2026-05-02T10:00:49.002Z</time></trkpt><trkpt lat="44.8850696207224" lon="7.326747376829219"><ele>383.6666666666667</ele><time>2026-05-02T10:00:51.002Z</time></trkpt><trkpt lat="44.885086246631495" lon="7.32663046354877"><ele>383.5</ele><time>2026-05-02T10:00:53.002Z</time></trkpt><trkpt lat="44.8851006948237" lon="7.32652551092758"><ele>383.33333333333337</ele><time>2026-05-02T10:00:55.003Z</time></trkpt><trkpt lat="44.88511521939433" lon="7.326421989523468"><ele>383.1666666666667</ele><time>2026-05-02T10:00:57.003Z</time></trkpt><trkpt lat="44.88512846469995" lon="7.3263281426530815"><ele>383.0</ele><time>2026-05-02T10:00:59.003Z</time></trkpt><trkpt lat="44.88514255008619" lon="7.326229693188913"><ele>383.6666666666667</ele><time>2026-05-02T10:01:01.003Z</time></trkpt><trkpt lat="44.88515797924045" lon="7.3261215519176215"><ele>384.33333333333337</ele><time>2026-05-02T10:01:03.003Z</time></trkpt><trkpt lat="44.885173906922645" lon="7.326008586498687"><ele>385.0</ele><time>2026-05-02T10:01:05.003Z</time></trkpt><trkpt lat="44.8851940236721" lon="7.325865073309113"><ele>385.6666666666667</ele><time>2026-05-02T10:01:07.003Z</time></trkpt><trkpt lat="44.88520994462805" lon="7.325751492692174"><ele>386.3333333333333</ele><time>2026-05-02T10:01:09.003Z</time></trkpt><trkpt lat="44.88522519222103" lon="7.325641333898929"><ele>387.0</ele><time>2026-05-02T10:01:11.003Z</time></trkpt><trkpt lat="44.88524160520588" lon="7.325522545062551"><ele>387.0</ele><time>2026-05-02T10:01:13.003Z</time></trkpt><trkpt lat="44.88525909528691" lon="7.3253959605745855"><ele>387.0</ele><time>2026-05-02T10:01:15.003Z</time></trkpt><trkpt lat="44.88527622749545" lon="7.325271966201106"><ele>387.0</ele><time>2026-05-02T10:01:17.003Z</time></trkpt><trkpt lat="44.88529339855198" lon="7.325147690712912"><ele>387.0</ele><time>2026-05-02T10:01:19.003Z</time></trkpt><trkpt lat="44.88530825638505" lon="7.325040157415751"><ele>387.0</ele><time>2026-05-02T10:01:21.003Z</time></trkpt><trkpt lat="44.88532358794042" lon="7.324934031600572"><ele>387.0</ele><time>2026-05-02T10:01:23.003Z</time></trkpt><trkpt lat="44.88533928606504" lon="7.32482523377323"><ele>387.1666666666667</ele><time>2026-05-02T10:01:25.003Z</time></trkpt><trkpt lat="44.885353799962466" lon="7.324722273859114"><ele>387.33333333333337</ele><time>2026-05-02T10:01:27.003Z</time></trkpt><trkpt lat="44.88536828292432" lon="7.324613651681701"><ele>387.5</ele><time>2026-05-02T10:01:29.001Z</time></trkpt><trkpt lat="44.88538218526183" lon="7.324507041750303"><ele>387.6666666666667</ele><time>2026-05-02T10:01:31.001Z</time></trkpt><trkpt lat="44.88539462408322" lon="7.324399796088185"><ele>387.83333333333337</ele><time>2026-05-02T10:01:33.001Z</time></trkpt><trkpt lat="44.88540676903225" lon="7.324287780891006"><ele>388.0</ele><time>2026-05-02T10:01:35.001Z</time></trkpt><trkpt lat="44.88541628475253" lon="7.324180829474221"><ele>388.0</ele><time>2026-05-02T10:01:37.001Z</time></trkpt><trkpt lat="44.88542557355838" lon="7.324067307513416"><ele>388.0</ele><time>2026-05-02T10:01:39.001Z</time></trkpt><trkpt lat="44.885433623869204" lon="7.323961353269135"><ele>388.0</ele><time>2026-05-02T10:01:41.001Z</time></trkpt><trkpt lat="44.885442112859906" lon="7.3238441700094"><ele>388.0</ele><time>2026-05-02T10:01:43.001Z</time></trkpt><trkpt lat="44.88544750449341" lon="7.323738185942455"><ele>388.0</ele><time>2026-05-02T10:01:45.001Z</time></trkpt><trkpt lat="44.88545136407748" lon="7.323641215303575"><ele>388.0</ele><time>2026-05-02T10:01:47.001Z</time></trkpt><trkpt lat="44.88545388434831" lon="7.323550485555255"><ele>388.0</ele><time>2026-05-02T10:01:49.001Z</time></trkpt><trkpt lat="44.88545630741193" lon="7.3234380827139764"><ele>387.6666666666667</ele><time>2026-05-02T10:01:51.001Z</time></trkpt><trkpt lat="44.8854587588931" lon="7.323316836586375"><ele>387.33333333333337</ele><time>2026-05-02T10:01:53.001Z</time></trkpt><trkpt lat="44.885461310013135" lon="7.323199011523189"><ele>387.0</ele><time>2026-05-02T10:01:55.001Z</time></trkpt><trkpt lat="44.88546403651385" lon="7.323075154254459"><ele>386.66666666666663</ele><time>2026-05-02T10:01:57.001Z</time></trkpt><trkpt lat="44.885466896431936" lon="7.322945236408647"><ele>386.3333333333333</ele><time>2026-05-02T10:01:59.001Z</time></trkpt><trkpt lat="44.885469581734604" lon="7.322823250722374"><ele>386.0</ele><time>2026-05-02T10:02:01.001Z</time></trkpt><trkpt lat="44.88547235569356" lon="7.32269723778356"><ele>385.99999999999994</ele><time>2026-05-02T10:02:03.001Z</time></trkpt><trkpt lat="44.885475045021145" lon="7.322575069352343"><ele>386.0</ele><time>2026-05-02T10:02:05.001Z</time></trkpt><trkpt lat="44.88547763834903" lon="7.322457261877411"><ele>386.0</ele><time>2026-05-02T10:02:07.001Z</time></trkpt><trkpt lat="44.885480145327556" lon="7.322345665161469"><ele>386.0</ele><time>2026-05-02T10:02:09.001Z</time></trkpt><trkpt lat="44.88548288600848" lon="7.3222273889359935"><ele>385.99999999999994</ele><time>2026-05-02T10:02:11.001Z</time></trkpt><trkpt lat="44.88548560801799" lon="7.32210991843211"><ele>386.0</ele><time>2026-05-02T10:02:13.001Z</time></trkpt><trkpt lat="44.8854882679863" lon="7.321995125293122"><ele>385.99999999999994</ele><time>2026-05-02T10:02:15.001Z</time></trkpt><trkpt lat="44.88549088132071" lon="7.321882344781636"><ele>386.0</ele><time>2026-05-02T10:02:17.001Z</time></trkpt><trkpt lat="44.88549356384194" lon="7.321766578474507"><ele>386.0</ele><time>2026-05-02T10:02:19.001Z</time></trkpt><trkpt lat="44.88549628765909" lon="7.321649029856418"><ele>386.0</ele><time>2026-05-02T10:02:21.002Z</time></trkpt><trkpt lat="44.88549887358089" lon="7.321537432316594"><ele>385.99999999999994</ele><time>2026-05-02T10:02:23.002Z</time></trkpt><trkpt lat="44.885502042685744" lon="7.321400666881278"><ele>386.0</ele><time>2026-05-02T10:02:26.002Z</time></trkpt><trkpt lat="44.88550460910925" lon="7.321289910989598"><ele>385.99999999999994</ele><time>2026-05-02T10:02:28.002Z</time></trkpt><trkpt lat="44.885508082402055" lon="7.321161759201226"><ele>386.0</ele><time>2026-05-02T10:02:30.002Z</time></trkpt><trkpt lat="44.885510655121614" lon="7.3210449487630775"><ele>386.0</ele><time>2026-05-02T10:02:32.002Z</time></trkpt><trkpt lat="44.88551340837113" lon="7.3209199422698195"><ele>386.0</ele><time>2026-05-02T10:02:34.002Z</time></trkpt><trkpt lat="44.88551638023554" lon="7.320795227888892"><ele>385.99999999999994</ele><time>2026-05-02T10:02:36.002Z</time></trkpt><trkpt lat="44.88551938809147" lon="7.320668763237836"><ele>386.0</ele><time>2026-05-02T10:02:38.002Z</time></trkpt><trkpt lat="44.88552219560598" lon="7.320550721860231"><ele>386.49999999999994</ele><time>2026-05-02T10:02:40.002Z</time></trkpt><trkpt lat="44.885524956450354" lon="7.320434642812009"><ele>387.0</ele><time>2026-05-02T10:02:42.002Z</time></trkpt><trkpt lat="44.88552775020287" lon="7.320320093882665"><ele>387.5</ele><time>2026-05-02T10:02:44.002Z</time></trkpt><trkpt lat="44.88553037367619" lon="7.320217329722457"><ele>388.0</ele><time>2026-05-02T10:02:46.002Z</time></trkpt><trkpt lat="44.88553306789779" lon="7.320111794204797"><ele>388.49999999999994</ele><time>2026-05-02T10:03:21.003Z</time></trkpt><trkpt lat="44.88553544680097" lon="7.320013482853124"><ele>389.0</ele><time>2026-05-02T10:03:25.003Z</time></trkpt><trkpt lat="44.885538228417985" lon="7.319895762933713"><ele>389.0</ele><time>2026-05-02T10:03:29.003Z</time></trkpt><trkpt lat="44.88554057745242" lon="7.319792529110109"><ele>389.0</ele><time>2026-05-02T10:03:32.003Z</time></trkpt><trkpt lat="44.88554353536905" lon="7.319662536457855"><ele>389.0</ele><time>2026-05-02T10:03:35.001Z</time></trkpt><trkpt lat="44.8855456754291" lon="7.319568486397233"><ele>389.0</ele><time>2026-05-02T10:03:37.001Z</time></trkpt><trkpt lat="44.88554786942378" lon="7.319472066088968"><ele>389.0</ele><time>2026-05-02T10:03:39.001Z</time></trkpt><trkpt lat="44.88555002921037" lon="7.3193771491244375"><ele>389.0</ele><time>2026-05-02T10:03:41.001Z</time></trkpt><trkpt lat="44.88555218833361" lon="7.3192822613912005"><ele>389.0</ele><time>2026-05-02T10:03:43.001Z</time></trkpt><trkpt lat="44.8855547565265" lon="7.319175334217847"><ele>388.8333333333333</ele><time>2026-05-02T10:03:45.001Z</time></trkpt><trkpt lat="44.885557513172664" lon="7.319065716965502"><ele>388.66666666666663</ele><time>2026-05-02T10:03:47.001Z</time></trkpt><trkpt lat="44.88556024954499" lon="7.3189569058923265"><ele>388.5</ele><time>2026-05-02T10:03:49.001Z</time></trkpt><trkpt lat="44.885562909982106" lon="7.318849354800226"><ele>388.33333333333337</ele><time>2026-05-02T10:03:51.001Z</time></trkpt><trkpt lat="44.885565492649384" lon="7.318742423370831"><ele>388.1666666666667</ele><time>2026-05-02T10:03:53.001Z</time></trkpt><trkpt lat="44.88556844983613" lon="7.318619988309528"><ele>388.0</ele><time>2026-05-02T10:03:55.001Z</time></trkpt><trkpt lat="44.88557076973989" lon="7.318508679999759"><ele>387.57142857142856</ele><time>2026-05-02T10:03:57.001Z</time></trkpt><trkpt lat="44.88557304402917" lon="7.318403783271892"><ele>387.14285714285717</ele><time>2026-05-02T10:03:59.001Z</time></trkpt><trkpt lat="44.88557632318964" lon="7.318298557827642"><ele>386.7142857142857</ele><time>2026-05-02T10:04:01.001Z</time></trkpt><trkpt lat="44.885579749057115" lon="7.318191594587898"><ele>386.2857142857143</ele><time>2026-05-02T10:04:03.001Z</time></trkpt><trkpt lat="44.88558296751239" lon="7.318091107187559"><ele>385.8571428571429</ele><time>2026-05-02T10:04:05.001Z</time></trkpt><trkpt lat="44.88558600098381" lon="7.317996395533318"><ele>385.42857142857144</ele><time>2026-05-02T10:04:07.001Z</time></trkpt><trkpt lat="44.88558900212668" lon="7.317902693164058"><ele>385.0</ele><time>2026-05-02T10:04:09.001Z</time></trkpt><trkpt lat="44.885592018246626" lon="7.317808525840595"><ele>385.00000000000006</ele><time>2026-05-02T10:04:11.001Z</time></trkpt><trkpt lat="44.88559462716254" lon="7.317708767665473"><ele>385.0</ele><time>2026-05-02T10:04:13.001Z</time></trkpt><trkpt lat="44.88559854178463" lon="7.317597173959942"><ele>385.0</ele><time>2026-05-02T10:04:15.001Z</time></trkpt><trkpt lat="44.88560236571131" lon="7.3174804353680205"><ele>385.0</ele><time>2026-05-02T10:04:17.001Z</time></trkpt><trkpt lat="44.885605946462505" lon="7.317369175884471"><ele>385.00000000000006</ele><time>2026-05-02T10:04:19.001Z</time></trkpt><trkpt lat="44.88560888055673" lon="7.317265871309942"><ele>385.0</ele><time>2026-05-02T10:04:21.002Z</time></trkpt><trkpt lat="44.88561214406354" lon="7.31715879056601"><ele>385.50000000000006</ele><time>2026-05-02T10:04:23.002Z</time></trkpt><trkpt lat="44.88561557023075" lon="7.3170529427461615"><ele>386.0</ele><time>2026-05-02T10:04:25.002Z</time></trkpt><trkpt lat="44.885573847546944" lon="7.316950608189967"><ele>386.5</ele><time>2026-05-02T10:04:27.002Z</time></trkpt><trkpt lat="44.88558097621408" lon="7.3168369357751795"><ele>387.0</ele><time>2026-05-02T10:04:31.002Z</time></trkpt><trkpt lat="44.8855799315502" lon="7.316705785234527"><ele>387.50000000000006</ele><time>2026-05-02T10:04:34.002Z</time></trkpt><trkpt lat="44.88558954736983" lon="7.316600356332305"><ele>388.0</ele><time>2026-05-02T10:04:36.002Z</time></trkpt><trkpt lat="44.88559268812204" lon="7.316485691312648"><ele>388.33333333333337</ele><time>2026-05-02T10:04:38.002Z</time></trkpt><trkpt lat="44.885593206387576" lon="7.316370739389826"><ele>388.6666666666667</ele><time>2026-05-02T10:04:40.002Z</time></trkpt><trkpt lat="44.88563549977059" lon="7.316251943378948"><ele>389.0</ele><time>2026-05-02T10:04:42.002Z</time></trkpt><trkpt lat="44.88563804458458" lon="7.316138412223337"><ele>389.33333333333337</ele><time>2026-05-02T10:04:44.002Z</time></trkpt><trkpt lat="44.88564067614387" lon="7.316019530423658"><ele>389.6666666666667</ele><time>2026-05-02T10:04:46.002Z</time></trkpt><trkpt lat="44.88564327416034" lon="7.315905085445566"><ele>390.0</ele><time>2026-05-02T10:04:48.002Z</time></trkpt><trkpt lat="44.88564601370975" lon="7.315784480788905"><ele>390.0</ele><time>2026-05-02T10:04:50.002Z</time></trkpt><trkpt lat="44.885648818328974" lon="7.31566101156788"><ele>390.0</ele><time>2026-05-02T10:04:52.002Z</time></trkpt><trkpt lat="44.88565135500021" lon="7.3155371731053656"><ele>390.0</ele><time>2026-05-02T10:04:54.002Z</time></trkpt><trkpt lat="44.88565375569237" lon="7.315417686023118"><ele>390.0</ele><time>2026-05-02T10:04:56.002Z</time></trkpt><trkpt lat="44.88565621569434" lon="7.31529524690389"><ele>390.0</ele><time>2026-05-02T10:04:58.002Z</time></trkpt><trkpt lat="44.88565858386362" lon="7.315177378578431"><ele>390.0</ele><time>2026-05-02T10:05:00.002Z</time></trkpt><trkpt lat="44.88566072803628" lon="7.315069692425923"><ele>389.8333333333333</ele><time>2026-05-02T10:05:02.003Z</time></trkpt><trkpt lat="44.88566243631394" lon="7.314965742488958"><ele>389.66666666666663</ele><time>2026-05-02T10:05:04.003Z</time></trkpt><trkpt lat="44.885664047367" lon="7.314867708629556"><ele>389.5</ele><time>2026-05-02T10:05:06.003Z</time></trkpt><trkpt lat="44.88566585949848" lon="7.3147574392500765"><ele>389.3333333333333</ele><time>2026-05-02T10:05:08.003Z</time></trkpt><trkpt lat="44.88566804194772" lon="7.31462463836362"><ele>389.16666666666663</ele><time>2026-05-02T10:05:10.003Z</time></trkpt><trkpt lat="44.88567019965108" lon="7.314493348238804"><ele>389.0</ele><time>2026-05-02T10:05:12.003Z</time></trkpt><trkpt lat="44.88560062340766" lon="7.3143595111142865"><ele>388.99999999999994</ele><time>2026-05-02T10:05:14.003Z</time></trkpt><trkpt lat="44.88560294949497" lon="7.314224326572406"><ele>389.0</ele><time>2026-05-02T10:05:16.003Z</time></trkpt><trkpt lat="44.88561953867055" lon="7.314092963115315"><ele>389.0</ele><time>2026-05-02T10:05:18.003Z</time></trkpt><trkpt lat="44.885619953262015" lon="7.313964366151542"><ele>389.0</ele><time>2026-05-02T10:05:20.003Z</time></trkpt><trkpt lat="44.88562617441379" lon="7.313839004672343"><ele>388.99999999999994</ele><time>2026-05-02T10:05:22.003Z</time></trkpt><trkpt lat="44.88568290278648" lon="7.313775745815086"><ele>389.0</ele><time>2026-05-02T10:05:23.003Z</time></trkpt><trkpt lat="44.88568502225629" lon="7.313649405730887"><ele>389.16666666666663</ele><time>2026-05-02T10:05:25.003Z</time></trkpt><trkpt lat="44.88568883706238" lon="7.3135268439642775"><ele>389.3333333333333</ele><time>2026-05-02T10:05:27.003Z</time></trkpt><trkpt lat="44.885692705046964" lon="7.313402573730726"><ele>389.5</ele><time>2026-05-02T10:05:29.003Z</time></trkpt><trkpt lat="44.88569562501433" lon="7.313275970772226"><ele>389.66666666666663</ele><time>2026-05-02T10:05:31.003Z</time></trkpt><trkpt lat="44.88569887309102" lon="7.313149152424704"><ele>389.8333333333333</ele><time>2026-05-02T10:05:33.003Z</time></trkpt><trkpt lat="44.88570246668048" lon="7.313047018855078"><ele>390.0</ele><time>2026-05-02T10:05:35.003Z</time></trkpt><trkpt lat="44.88570727720143" lon="7.312926862158697"><ele>390.0</ele><time>2026-05-02T10:05:39.003Z</time></trkpt><trkpt lat="44.88571399124499" lon="7.312792783336773"><ele>390.0</ele><time>2026-05-02T10:05:42.001Z</time></trkpt><trkpt lat="44.885719437064765" lon="7.312688114596919"><ele>390.0</ele><time>2026-05-02T10:05:44.001Z</time></trkpt><trkpt lat="44.88572691647952" lon="7.3125748979473535"><ele>390.0</ele><time>2026-05-02T10:05:46.001Z</time></trkpt><trkpt lat="44.88573358651549" lon="7.312478945376134"><ele>390.0</ele><time>2026-05-02T10:05:48.001Z</time></trkpt><trkpt lat="44.885741354507914" lon="7.312376210981702"><ele>390.0</ele><time>2026-05-02T10:05:50.001Z</time></trkpt><trkpt lat="44.885748146222866" lon="7.312265199991401"><ele>390.4</ele><time>2026-05-02T10:05:52.001Z</time></trkpt><trkpt lat="44.88574750179644" lon="7.312163728504756"><ele>390.8</ele><time>2026-05-02T10:05:54.001Z</time></trkpt><trkpt lat="44.88574499161221" lon="7.3120653690090975"><ele>391.20000000000005</ele><time>2026-05-02T10:05:56.001Z</time></trkpt><trkpt lat="44.88574181620595" lon="7.311940948882492"><ele>391.6</ele><time>2026-05-02T10:05:59.001Z</time></trkpt><trkpt lat="44.88553562537908" lon="7.311911483333135"><ele>392.0</ele><time>2026-05-02T10:06:00.001Z</time></trkpt><trkpt lat="44.88547507957782" lon="7.31183677479305"><ele>391.99999999999994</ele><time>2026-05-02T10:06:02.001Z</time></trkpt><trkpt lat="44.885502448026095" lon="7.311703467473494"><ele>392.0</ele><time>2026-05-02T10:06:03.001Z</time></trkpt><trkpt lat="44.88544671417105" lon="7.311633530682022"><ele>392.0</ele><time>2026-05-02T10:06:05.001Z</time></trkpt><trkpt lat="44.88539509138751" lon="7.311558844993344"><ele>392.0</ele><time>2026-05-02T10:06:07.001Z</time></trkpt><trkpt lat="44.88534673693032" lon="7.311478605106758"><ele>391.99999999999994</ele><time>2026-05-02T10:06:09.001Z</time></trkpt><trkpt lat="44.885298523112844" lon="7.311393068162207"><ele>392.0</ele><time>2026-05-02T10:06:11.001Z</time></trkpt><trkpt lat="44.88525440182938" lon="7.31131167165909"><ele>391.99999999999994</ele><time>2026-05-02T10:06:13.001Z</time></trkpt><trkpt lat="44.88521043744388" lon="7.311229219366806"><ele>392.0</ele><time>2026-05-02T10:06:15.001Z</time></trkpt><trkpt lat="44.88517091069245" lon="7.311155091783619"><ele>392.0</ele><time>2026-05-02T10:06:17.001Z</time></trkpt><trkpt lat="44.88512976904498" lon="7.311071934750076"><ele>392.0</ele><time>2026-05-02T10:06:30.001Z</time></trkpt><trkpt lat="44.88508381253956" lon="7.310937390385462"><ele>391.99999999999994</ele><time>2026-05-02T10:06:36.002Z</time></trkpt><trkpt lat="44.88507667009082" lon="7.310828907777586"><ele>392.0</ele><time>2026-05-02T10:06:38.002Z</time></trkpt><trkpt lat="44.885026827132734" lon="7.310762768633236"><ele>391.99999999999994</ele><time>2026-05-02T10:06:40.002Z</time></trkpt><trkpt lat="44.88497778957614" lon="7.3106774751619525"><ele>392.0</ele><time>2026-05-02T10:06:42.002Z</time></trkpt><trkpt lat="44.88494365684112" lon="7.310581417995011"><ele>392.0</ele><time>2026-05-02T10:06:44.002Z</time></trkpt><trkpt lat="44.88490269737629" lon="7.310471136888952"><ele>392.0</ele><time>2026-05-02T10:06:46.002Z</time></trkpt><trkpt lat="44.88485326796444" lon="7.310368236391823"><ele>391.99999999999994</ele><time>2026-05-02T10:06:48.002Z</time></trkpt><trkpt lat="44.88477459580884" lon="7.31027016628524"><ele>392.0</ele><time>2026-05-02T10:06:50.002Z</time></trkpt><trkpt lat="44.884743102219666" lon="7.310137331999129"><ele>392.0</ele><time>2026-05-02T10:06:52.002Z</time></trkpt><trkpt lat="44.88469385847204" lon="7.310025304763974"><ele>392.0</ele><time>2026-05-02T10:06:54.002Z</time></trkpt><trkpt lat="44.88464754224178" lon="7.309910766284089"><ele>392.0</ele><time>2026-05-02T10:06:56.002Z</time></trkpt><trkpt lat="44.88459883811551" lon="7.309796042279037"><ele>392.0</ele><time>2026-05-02T10:06:58.002Z</time></trkpt><trkpt lat="44.884538146679716" lon="7.309684973600874"><ele>392.0</ele><time>2026-05-02T10:07:00.002Z</time></trkpt><trkpt lat="44.88451096515916" lon="7.309549498311863"><ele>392.0</ele><time>2026-05-02T10:07:02.002Z</time></trkpt><trkpt lat="44.88446116166378" lon="7.309437103049983"><ele>392.0</ele><time>2026-05-02T10:07:04.002Z</time></trkpt><trkpt lat="44.884424493154626" lon="7.309309377842053"><ele>392.0</ele><time>2026-05-02T10:07:06.002Z</time></trkpt><trkpt lat="44.88440165027452" lon="7.309177951566779"><ele>392.0</ele><time>2026-05-02T10:07:08.002Z</time></trkpt><trkpt lat="44.88440382657176" lon="7.30903567200364"><ele>392.0</ele><time>2026-05-02T10:07:10.002Z</time></trkpt><trkpt lat="44.884381844982755" lon="7.308908981136336"><ele>392.40000000000003</ele><time>2026-05-02T10:07:12.002Z</time></trkpt><trkpt lat="44.88434663997412" lon="7.308783074684858"><ele>392.8</ele><time>2026-05-02T10:07:14.002Z</time></trkpt><trkpt lat="44.8843500885776" lon="7.308651030331014"><ele>393.2</ele><time>2026-05-02T10:07:16.003Z</time></trkpt><trkpt lat="44.88434466649717" lon="7.3085243547765035"><ele>393.6</ele><time>2026-05-02T10:07:18.003Z</time></trkpt><trkpt lat="44.8843375497707" lon="7.308390956905352"><ele>394.0</ele><time>2026-05-02T10:07:20.003Z</time></trkpt><trkpt lat="44.884332589573965" lon="7.308259464372684"><ele>394.0</ele><time>2026-05-02T10:07:22.003Z</time></trkpt><trkpt lat="44.88432296133586" lon="7.308134740723992"><ele>394.0</ele><time>2026-05-02T10:07:24.003Z</time></trkpt><trkpt lat="44.88431637795097" lon="7.308002735408501"><ele>394.0</ele><time>2026-05-02T10:07:26.003Z</time></trkpt><trkpt lat="44.884315328728015" lon="7.307872264625779"><ele>394.0</ele><time>2026-05-02T10:07:28.003Z</time></trkpt><trkpt lat="44.884309322059124" lon="7.307738551153545"><ele>394.0</ele><time>2026-05-02T10:07:30.003Z</time></trkpt><trkpt lat="44.88430007737598" lon="7.307605694980727"><ele>394.33333333333337</ele><time>2026-05-02T10:07:32.003Z</time></trkpt><trkpt lat="44.88429371478381" lon="7.307478682607426"><ele>394.6666666666667</ele><time>2026-05-02T10:07:34.003Z</time></trkpt><trkpt lat="44.88429109914765" lon="7.307381317332395"><ele>395.0</ele><time>2026-05-02T10:07:37.003Z</time></trkpt><trkpt lat="44.88427976949649" lon="7.307270387337991"><ele>395.33333333333337</ele><time>2026-05-02T10:07:40.003Z</time></trkpt><trkpt lat="44.88427438914479" lon="7.307136669390606"><ele>395.6666666666667</ele><time>2026-05-02T10:07:43.003Z</time></trkpt><trkpt lat="44.884269960133274" lon="7.307016187835069"><ele>396.0</ele><time>2026-05-02T10:07:46.003Z</time></trkpt><trkpt lat="44.884265344457205" lon="7.306890628756623"><ele>396.0</ele><time>2026-05-02T10:07:49.001Z</time></trkpt><trkpt lat="44.884260280033146" lon="7.306759797153109"><ele>396.0</ele><time>2026-05-02T10:07:52.001Z</time></trkpt><trkpt lat="44.884256683159535" lon="7.306668406067614"><ele>396.0</ele><time>2026-05-02T10:07:54.001Z</time></trkpt><trkpt lat="44.884253123636256" lon="7.3065779641804465"><ele>396.0</ele><time>2026-05-02T10:07:56.001Z</time></trkpt><trkpt lat="44.88424937695936" lon="7.306487838755807"><ele>396.0</ele><time>2026-05-02T10:07:58.001Z</time></trkpt><trkpt lat="44.88424260056749" lon="7.306390165521783"><ele>396.0</ele><time>2026-05-02T10:08:00.001Z</time></trkpt><trkpt lat="44.8842198131077" lon="7.306274874918901"><ele>396.0</ele><time>2026-05-02T10:08:03.001Z</time></trkpt><trkpt lat="44.88420747138902" lon="7.306124085545648"><ele>396.0</ele><time>2026-05-02T10:08:05.001Z</time></trkpt><trkpt lat="44.88426773342322" lon="7.306062346453951"><ele>396.0</ele><time>2026-05-02T10:08:07Z</time></trkpt><trkpt lat="44.884265104216446" lon="7.305926752600646"><ele>396.0</ele><time>2026-05-02T10:08:10Z</time></trkpt><trkpt lat="44.88419719590006" lon="7.30591772566067"><ele>396.0</ele><time>2026-05-02T10:08:11Z</time></trkpt><trkpt lat="44.88420411336876" lon="7.305822045469906"><ele>396.0</ele><time>2026-05-02T10:08:12Z</time></trkpt><trkpt lat="44.884209524058285" lon="7.305697594159719"><ele>396.0</ele><time>2026-05-02T10:08:15Z</time></trkpt><trkpt lat="44.8842053257023" lon="7.305602143356502"><ele>396.0</ele><time>2026-05-02T10:08:17Z</time></trkpt><trkpt lat="44.88419987244441" lon="7.305506854936392"><ele>396.0</ele><time>2026-05-02T10:08:19Z</time></trkpt><trkpt lat="44.884194146953774" lon="7.30540680947065"><ele>396.0</ele><time>2026-05-02T10:08:21Z</time></trkpt><trkpt lat="44.88419078030962" lon="7.305317030488345"><ele>396.0</ele><time>2026-05-02T10:08:23Z</time></trkpt><trkpt lat="44.88418748425522" lon="7.305203169528799"><ele>396.0</ele><time>2026-05-02T10:08:26Z</time></trkpt><trkpt lat="44.88422810157292" lon="7.3050867387627365"><ele>396.0</ele><time>2026-05-02T10:08:29Z</time></trkpt><trkpt lat="44.88421293268382" lon="7.3049396132777815"><ele>396.0</ele><time>2026-05-02T10:08:31Z</time></trkpt><trkpt lat="44.88418151527491" lon="7.304826583164055"><ele>396.0</ele><time>2026-05-02T10:08:33Z</time></trkpt><trkpt lat="44.88420957857584" lon="7.304728264665556"><ele>396.0</ele><time>2026-05-02T10:08:35.001Z</time></trkpt><trkpt lat="44.88421284526267" lon="7.304632813713524"><ele>396.0</ele><time>2026-05-02T10:08:37.001Z</time></trkpt><trkpt lat="44.88421555564846" lon="7.304539247466202"><ele>396.0</ele><time>2026-05-02T10:08:39.001Z</time></trkpt><trkpt lat="44.88421613314652" lon="7.304448425564469"><ele>396.0</ele><time>2026-05-02T10:08:41.001Z</time></trkpt><trkpt lat="44.88421836873325" lon="7.304350059822645"><ele>396.0</ele><time>2026-05-02T10:08:43.001Z</time></trkpt><trkpt lat="44.88422437771619" lon="7.304256515530161"><ele>396.0</ele><time>2026-05-02T10:08:45.001Z</time></trkpt><trkpt lat="44.88423313382879" lon="7.3041635098283075"><ele>396.0</ele><time>2026-05-02T10:08:47.001Z</time></trkpt><trkpt lat="44.88424205397254" lon="7.304066797881606"><ele>396.0</ele><time>2026-05-02T10:08:49.001Z</time></trkpt><trkpt lat="44.884247760889124" lon="7.303969770840234"><ele>396.0</ele><time>2026-05-02T10:08:51.001Z</time></trkpt><trkpt lat="44.88421445252412" lon="7.303864221229206"><ele>396.0</ele><time>2026-05-02T10:08:53.001Z</time></trkpt><trkpt lat="44.884224882864615" lon="7.3037635116234085"><ele>396.0</ele><time>2026-05-02T10:08:55.001Z</time></trkpt><trkpt lat="44.884237137796795" lon="7.303657080074242"><ele>396.0</ele><time>2026-05-02T10:08:57.001Z</time></trkpt><trkpt lat="44.88431395050501" lon="7.303632349915325"><ele>396.5</ele><time>2026-05-02T10:08:58.001Z</time></trkpt><trkpt lat="44.884331189757205" lon="7.303531463873788"><ele>397.0</ele><time>2026-05-02T10:09:00.001Z</time></trkpt><trkpt lat="44.884271479144076" lon="7.303407749131974"><ele>397.5</ele><time>2026-05-02T10:09:02.001Z</time></trkpt><trkpt lat="44.88428204717016" lon="7.303313893408686"><ele>398.0</ele><time>2026-05-02T10:09:04.001Z</time></trkpt><trkpt lat="44.88428747188476" lon="7.303221830243954"><ele>398.5</ele><time>2026-05-02T10:09:06.001Z</time></trkpt><trkpt lat="44.88427741393369" lon="7.303099322681711"><ele>399.0</ele><time>2026-05-02T10:09:09.001Z</time></trkpt><trkpt lat="44.884293809362376" lon="7.302953323256832"><ele>399.3333333333333</ele><time>2026-05-02T10:09:11.001Z</time></trkpt><trkpt lat="44.88438623502186" lon="7.302925632760534"><ele>399.66666666666663</ele><time>2026-05-02T10:09:12.001Z</time></trkpt><trkpt lat="44.884393911183395" lon="7.302814637269531"><ele>400.0</ele><time>2026-05-02T10:09:14.001Z</time></trkpt><trkpt lat="44.884399680845746" lon="7.302706956132777"><ele>400.3333333333333</ele><time>2026-05-02T10:09:16.002Z</time></trkpt><trkpt lat="44.88436741812245" lon="7.302598772209168"><ele>400.66666666666663</ele><time>2026-05-02T10:09:18.002Z</time></trkpt><trkpt lat="44.88437077589921" lon="7.302491185935564"><ele>401.0</ele><time>2026-05-02T10:09:20.002Z</time></trkpt><trkpt lat="44.88437463457032" lon="7.30237455000774"><ele>400.99999999999994</ele><time>2026-05-02T10:09:22.002Z</time></trkpt><trkpt lat="44.88442108549307" lon="7.302263403115165"><ele>401.0</ele><time>2026-05-02T10:09:24.002Z</time></trkpt><trkpt lat="44.88442075612937" lon="7.302148598353922"><ele>401.0</ele><time>2026-05-02T10:09:26.002Z</time></trkpt><trkpt lat="44.8844106633312" lon="7.302024027497182"><ele>401.0</ele><time>2026-05-02T10:09:28.002Z</time></trkpt><trkpt lat="44.884426228939525" lon="7.3018994074611925"><ele>400.99999999999994</ele><time>2026-05-02T10:09:30.002Z</time></trkpt><trkpt lat="44.88442342501381" lon="7.301777215841953"><ele>401.0</ele><time>2026-05-02T10:09:32.002Z</time></trkpt><trkpt lat="44.88443740190119" lon="7.301657186228402"><ele>401.16666666666663</ele><time>2026-05-02T10:09:34.002Z</time></trkpt><trkpt lat="44.88445169110686" lon="7.301534480079743"><ele>401.3333333333333</ele><time>2026-05-02T10:09:36.002Z</time></trkpt><trkpt lat="44.884464626977056" lon="7.3014154460492335"><ele>401.5</ele><time>2026-05-02T10:09:38.002Z</time></trkpt><trkpt lat="44.8844778432158" lon="7.301297753395017"><ele>401.66666666666663</ele><time>2026-05-02T10:09:40.002Z</time></trkpt><trkpt lat="44.88450654027247" lon="7.301177871995853"><ele>401.8333333333333</ele><time>2026-05-02T10:09:42.002Z</time></trkpt><trkpt lat="44.884512440287196" lon="7.3010510517990825"><ele>402.0</ele><time>2026-05-02T10:09:44.002Z</time></trkpt><trkpt lat="44.884523946527175" lon="7.300922099898124"><ele>402.3333333333333</ele><time>2026-05-02T10:09:46.002Z</time></trkpt><trkpt lat="44.88453404980736" lon="7.300798841708041"><ele>402.66666666666663</ele><time>2026-05-02T10:09:48.002Z</time></trkpt><trkpt lat="44.8845433526678" lon="7.300675601681565"><ele>403.0</ele><time>2026-05-02T10:09:50.002Z</time></trkpt><trkpt lat="44.88455210230342" lon="7.300551755023558"><ele>403.3333333333333</ele><time>2026-05-02T10:09:52.002Z</time></trkpt><trkpt lat="44.88456035338064" lon="7.300426962175053"><ele>403.66666666666663</ele><time>2026-05-02T10:09:54Z</time></trkpt><trkpt lat="44.88456644426316" lon="7.3002992137407325"><ele>404.0</ele><time>2026-05-02T10:09:56Z</time></trkpt><trkpt lat="44.88457442365511" lon="7.300170887678598"><ele>404.0</ele><time>2026-05-02T10:09:58Z</time></trkpt><trkpt lat="44.88458548363068" lon="7.30004627874237"><ele>404.0</ele><time>2026-05-02T10:10:00Z</time></trkpt><trkpt lat="44.8845963441317" lon="7.299917448431264"><ele>404.0</ele><time>2026-05-02T10:10:02Z</time></trkpt><trkpt lat="44.88460181319582" lon="7.2997884423818515"><ele>404.0</ele><time>2026-05-02T10:10:04Z</time></trkpt><trkpt lat="44.88460661657217" lon="7.299658623779874"><ele>404.0</ele><time>2026-05-02T10:10:06Z</time></trkpt><trkpt lat="44.88461577780383" lon="7.299531603062122"><ele>403.99999999999994</ele><time>2026-05-02T10:10:08Z</time></trkpt><trkpt lat="44.884628314525095" lon="7.299406636087537"><ele>404.0</ele><time>2026-05-02T10:10:10Z</time></trkpt><trkpt lat="44.884633612610536" lon="7.299281746938541"><ele>404.0</ele><time>2026-05-02T10:10:12Z</time></trkpt><trkpt lat="44.88464154594266" lon="7.29916835206668"><ele>404.0</ele><time>2026-05-02T10:10:14Z</time></trkpt><trkpt lat="44.884649556805655" lon="7.299043962049807"><ele>403.99999999999994</ele><time>2026-05-02T10:10:16Z</time></trkpt><trkpt lat="44.88466673078869" lon="7.298924774919019"><ele>404.0</ele><time>2026-05-02T10:10:18Z</time></trkpt><trkpt lat="44.88466360066862" lon="7.298813646010884"><ele>404.3333333333333</ele><time>2026-05-02T10:10:20Z</time></trkpt><trkpt lat="44.88468622852456" lon="7.298697890216712"><ele>404.66666666666663</ele><time>2026-05-02T10:10:22Z</time></trkpt><trkpt lat="44.88469409322578" lon="7.298586974363392"><ele>405.0</ele><time>2026-05-02T10:10:24Z</time></trkpt><trkpt lat="44.8847052665173" lon="7.298480553148831"><ele>405.33333333333337</ele><time>2026-05-02T10:10:26Z</time></trkpt><trkpt lat="44.88471418406429" lon="7.298379721785005"><ele>405.6666666666667</ele><time>2026-05-02T10:10:28Z</time></trkpt><trkpt lat="44.88471055313527" lon="7.298287565934749"><ele>406.0</ele><time>2026-05-02T10:10:30Z</time></trkpt><trkpt lat="44.88468741712909" lon="7.29817924683898"><ele>405.6666666666667</ele><time>2026-05-02T10:10:33Z</time></trkpt><trkpt lat="44.88470079281436" lon="7.298078499301266"><ele>405.33333333333337</ele><time>2026-05-02T10:10:35Z</time></trkpt><trkpt lat="44.884716802991264" lon="7.297952925814981"><ele>405.0</ele><time>2026-05-02T10:10:38Z</time></trkpt><trkpt lat="44.88473051282494" lon="7.297858116627028"><ele>404.66666666666663</ele><time>2026-05-02T10:10:40.001Z</time></trkpt><trkpt lat="44.88474357217051" lon="7.297767805905998"><ele>404.3333333333333</ele><time>2026-05-02T10:10:42.001Z</time></trkpt><trkpt lat="44.884776488382535" lon="7.297681265380255"><ele>404.0</ele><time>2026-05-02T10:10:44.001Z</time></trkpt><trkpt lat="44.88479237377931" lon="7.297494120357472"><ele>404.0</ele><time>2026-05-02T10:10:45.001Z</time></trkpt><trkpt lat="44.88465439718101" lon="7.297421677269491"><ele>404.0</ele><time>2026-05-02T10:10:47.001Z</time></trkpt><trkpt lat="44.88466557833841" lon="7.297295536443785"><ele>404.0</ele><time>2026-05-02T10:10:49.001Z</time></trkpt><trkpt lat="44.88468582402729" lon="7.297173961518945"><ele>404.0</ele><time>2026-05-02T10:10:51.001Z</time></trkpt><trkpt lat="44.8846945381207" lon="7.297058662744414"><ele>404.0</ele><time>2026-05-02T10:10:53.001Z</time></trkpt><trkpt lat="44.88470361142451" lon="7.296938611216438"><ele>403.99999999999994</ele><time>2026-05-02T10:10:55.001Z</time></trkpt><trkpt lat="44.88469541818116" lon="7.296809621180369"><ele>404.0</ele><time>2026-05-02T10:10:57.001Z</time></trkpt><trkpt lat="44.88471693571078" lon="7.296702064735945"><ele>404.0</ele><time>2026-05-02T10:10:59.001Z</time></trkpt><trkpt lat="44.88472204321908" lon="7.296598497066578"><ele>404.0</ele><time>2026-05-02T10:11:01.001Z</time></trkpt><trkpt lat="44.88472650182999" lon="7.296508087567827"><ele>403.99999999999994</ele><time>2026-05-02T10:11:03.001Z</time></trkpt><trkpt lat="44.88467081309876" lon="7.296448912866067"><ele>404.0</ele><time>2026-05-02T10:11:05.001Z</time></trkpt><trkpt lat="44.88459601436065" lon="7.296507419682675"><ele>404.0</ele><time>2026-05-02T10:11:08.001Z</time></trkpt><trkpt lat="44.88459049711802" lon="7.296597519356081"><ele>404.0</ele><time>2026-05-02T10:11:10.001Z</time></trkpt><trkpt lat="44.88456358453395" lon="7.29667874595098"><ele>404.0</ele><time>2026-05-02T10:11:12.001Z</time></trkpt><trkpt lat="44.884558758344944" lon="7.296784318377877"><ele>404.0</ele><time>2026-05-02T10:11:15.001Z</time></trkpt><trkpt lat="44.88448023705113" lon="7.296756554206679"><ele>404.0</ele><time>2026-05-02T10:11:18.001Z</time></trkpt><trkpt lat="44.884416045655215" lon="7.296762268420167"><ele>404.0</ele><time>2026-05-02T10:11:21.001Z</time></trkpt><trkpt lat="44.884352264089" lon="7.296782272776349"><ele>404.0</ele><time>2026-05-02T10:11:25.002Z</time></trkpt></trkseg></trk></gpx>